<?xml version="1.0" encoding="UTF-8" standalone="no" ?>
<gpx xmlns="http://www.topografix.com/GPX/1/1" xmlns:xsi="http://www.w3.org/2001/XMLSchema-instance" xsi:schemaLocation="http://www.topografix.com/GPX/1/1 http://www.topografix.com/GPX/1/1/gpx.xsd" version="1.1" creator="VisuGPX - https://www.visugpx.com">
  <metadata>
    <name>Miellerie de Clairan 02 Avril 2017</name>
    <desc><![CDATA[02 Avril 2017Journée randonnée du mas de Mouries à la Miellerie de Clairan.]]></desc>
  </metadata>
  <trk>
    <name><![CDATA[02-AVR-17 17:18:01]]></name>
    <trkseg>
      <trkpt lat="43.88357" lon="4.07075">
        <ele>85.69</ele>
        <time>2017-04-02T06:48:53Z</time>
      </trkpt>
      <trkpt lat="43.88359" lon="4.07088">
        <ele>80.89</ele>
        <time>2017-04-02T06:50:39Z</time>
      </trkpt>
      <trkpt lat="43.88357" lon="4.07096">
        <ele>79.45</ele>
        <time>2017-04-02T06:51:16Z</time>
      </trkpt>
      <trkpt lat="43.88361" lon="4.07103">
        <ele>79.45</ele>
        <time>2017-04-02T06:51:58Z</time>
      </trkpt>
      <trkpt lat="43.88367" lon="4.07115">
        <ele>77.04</ele>
        <time>2017-04-02T06:52:08Z</time>
      </trkpt>
      <trkpt lat="43.88365" lon="4.07124">
        <ele>76.56</ele>
        <time>2017-04-02T06:54:56Z</time>
      </trkpt>
      <trkpt lat="43.88361" lon="4.07122">
        <ele>77.04</ele>
        <time>2017-04-02T06:57:08Z</time>
      </trkpt>
      <trkpt lat="43.88354" lon="4.07109">
        <ele>75.6</ele>
        <time>2017-04-02T06:57:38Z</time>
      </trkpt>
      <trkpt lat="43.88345" lon="4.07102">
        <ele>74.64</ele>
        <time>2017-04-02T06:57:50Z</time>
      </trkpt>
      <trkpt lat="43.88341" lon="4.07096">
        <ele>75.12</ele>
        <time>2017-04-02T06:58:46Z</time>
      </trkpt>
      <trkpt lat="43.88337" lon="4.0709">
        <ele>74.16</ele>
        <time>2017-04-02T06:59:19Z</time>
      </trkpt>
      <trkpt lat="43.88329" lon="4.07087">
        <ele>73.68</ele>
        <time>2017-04-02T07:00:07Z</time>
      </trkpt>
      <trkpt lat="43.88322" lon="4.07075">
        <ele>71.76</ele>
        <time>2017-04-02T07:01:15Z</time>
      </trkpt>
      <trkpt lat="43.88314" lon="4.07065">
        <ele>72.24</ele>
        <time>2017-04-02T07:01:25Z</time>
      </trkpt>
      <trkpt lat="43.88308" lon="4.07053">
        <ele>70.79</ele>
        <time>2017-04-02T07:01:34Z</time>
      </trkpt>
      <trkpt lat="43.88302" lon="4.07038">
        <ele>70.79</ele>
        <time>2017-04-02T07:01:44Z</time>
      </trkpt>
      <trkpt lat="43.88304" lon="4.07021">
        <ele>69.35</ele>
        <time>2017-04-02T07:01:56Z</time>
      </trkpt>
      <trkpt lat="43.88299" lon="4.07006">
        <ele>68.39</ele>
        <time>2017-04-02T07:02:10Z</time>
      </trkpt>
      <trkpt lat="43.88302" lon="4.06988">
        <ele>66.95</ele>
        <time>2017-04-02T07:02:24Z</time>
      </trkpt>
      <trkpt lat="43.88308" lon="4.06975">
        <ele>65.51</ele>
        <time>2017-04-02T07:02:35Z</time>
      </trkpt>
      <trkpt lat="43.88316" lon="4.06967">
        <ele>65.03</ele>
        <time>2017-04-02T07:02:47Z</time>
      </trkpt>
      <trkpt lat="43.88325" lon="4.06956">
        <ele>67.43</ele>
        <time>2017-04-02T07:02:59Z</time>
      </trkpt>
      <trkpt lat="43.88332" lon="4.06946">
        <ele>68.39</ele>
        <time>2017-04-02T07:03:11Z</time>
      </trkpt>
      <trkpt lat="43.88338" lon="4.06934">
        <ele>69.83</ele>
        <time>2017-04-02T07:03:22Z</time>
      </trkpt>
      <trkpt lat="43.88345" lon="4.06922">
        <ele>69.35</ele>
        <time>2017-04-02T07:03:34Z</time>
      </trkpt>
      <trkpt lat="43.88352" lon="4.06912">
        <ele>68.87</ele>
        <time>2017-04-02T07:03:43Z</time>
      </trkpt>
      <trkpt lat="43.8836" lon="4.06902">
        <ele>69.83</ele>
        <time>2017-04-02T07:03:56Z</time>
      </trkpt>
      <trkpt lat="43.88369" lon="4.06897">
        <ele>68.87</ele>
        <time>2017-04-02T07:04:08Z</time>
      </trkpt>
      <trkpt lat="43.88379" lon="4.06893">
        <ele>68.39</ele>
        <time>2017-04-02T07:04:19Z</time>
      </trkpt>
      <trkpt lat="43.88389" lon="4.06886">
        <ele>67.91</ele>
        <time>2017-04-02T07:04:32Z</time>
      </trkpt>
      <trkpt lat="43.88399" lon="4.06879">
        <ele>67.91</ele>
        <time>2017-04-02T07:04:45Z</time>
      </trkpt>
      <trkpt lat="43.8841" lon="4.06872">
        <ele>67.91</ele>
        <time>2017-04-02T07:05:02Z</time>
      </trkpt>
      <trkpt lat="43.8842" lon="4.06871">
        <ele>72.24</ele>
        <time>2017-04-02T07:05:46Z</time>
      </trkpt>
      <trkpt lat="43.88431" lon="4.06869">
        <ele>71.76</ele>
        <time>2017-04-02T07:05:57Z</time>
      </trkpt>
      <trkpt lat="43.88443" lon="4.06868">
        <ele>72.24</ele>
        <time>2017-04-02T07:06:10Z</time>
      </trkpt>
      <trkpt lat="43.88454" lon="4.0687">
        <ele>74.16</ele>
        <time>2017-04-02T07:06:22Z</time>
      </trkpt>
      <trkpt lat="43.88464" lon="4.0687">
        <ele>76.08</ele>
        <time>2017-04-02T07:06:32Z</time>
      </trkpt>
      <trkpt lat="43.88472" lon="4.06862">
        <ele>77.04</ele>
        <time>2017-04-02T07:06:43Z</time>
      </trkpt>
      <trkpt lat="43.88477" lon="4.06851">
        <ele>77.04</ele>
        <time>2017-04-02T07:06:54Z</time>
      </trkpt>
      <trkpt lat="43.88485" lon="4.06841">
        <ele>77.52</ele>
        <time>2017-04-02T07:07:04Z</time>
      </trkpt>
      <trkpt lat="43.88495" lon="4.06839">
        <ele>77.04</ele>
        <time>2017-04-02T07:07:14Z</time>
      </trkpt>
      <trkpt lat="43.88503" lon="4.06832">
        <ele>79.45</ele>
        <time>2017-04-02T07:07:28Z</time>
      </trkpt>
      <trkpt lat="43.88513" lon="4.06825">
        <ele>79.93</ele>
        <time>2017-04-02T07:07:39Z</time>
      </trkpt>
      <trkpt lat="43.88522" lon="4.06815">
        <ele>79.45</ele>
        <time>2017-04-02T07:07:49Z</time>
      </trkpt>
      <trkpt lat="43.88531" lon="4.06806">
        <ele>78.97</ele>
        <time>2017-04-02T07:07:59Z</time>
      </trkpt>
      <trkpt lat="43.88539" lon="4.06799">
        <ele>78.48</ele>
        <time>2017-04-02T07:08:09Z</time>
      </trkpt>
      <trkpt lat="43.88551" lon="4.06797">
        <ele>78.48</ele>
        <time>2017-04-02T07:08:18Z</time>
      </trkpt>
      <trkpt lat="43.88561" lon="4.06796">
        <ele>78</ele>
        <time>2017-04-02T07:08:29Z</time>
      </trkpt>
      <trkpt lat="43.88571" lon="4.06792">
        <ele>77.52</ele>
        <time>2017-04-02T07:08:38Z</time>
      </trkpt>
      <trkpt lat="43.8858" lon="4.0679">
        <ele>78.48</ele>
        <time>2017-04-02T07:08:49Z</time>
      </trkpt>
      <trkpt lat="43.8859" lon="4.06788">
        <ele>78.97</ele>
        <time>2017-04-02T07:08:59Z</time>
      </trkpt>
      <trkpt lat="43.88601" lon="4.06791">
        <ele>79.45</ele>
        <time>2017-04-02T07:09:14Z</time>
      </trkpt>
      <trkpt lat="43.88612" lon="4.06797">
        <ele>82.33</ele>
        <time>2017-04-02T07:09:30Z</time>
      </trkpt>
      <trkpt lat="43.88622" lon="4.06802">
        <ele>83.77</ele>
        <time>2017-04-02T07:09:54Z</time>
      </trkpt>
      <trkpt lat="43.88631" lon="4.0681">
        <ele>84.25</ele>
        <time>2017-04-02T07:10:07Z</time>
      </trkpt>
      <trkpt lat="43.88641" lon="4.06819">
        <ele>81.85</ele>
        <time>2017-04-02T07:10:21Z</time>
      </trkpt>
      <trkpt lat="43.88653" lon="4.06824">
        <ele>84.73</ele>
        <time>2017-04-02T07:10:34Z</time>
      </trkpt>
      <trkpt lat="43.88665" lon="4.06828">
        <ele>90.02</ele>
        <time>2017-04-02T07:10:46Z</time>
      </trkpt>
      <trkpt lat="43.88673" lon="4.06836">
        <ele>92.42</ele>
        <time>2017-04-02T07:11:00Z</time>
      </trkpt>
      <trkpt lat="43.88683" lon="4.06846">
        <ele>90.98</ele>
        <time>2017-04-02T07:11:21Z</time>
      </trkpt>
      <trkpt lat="43.88693" lon="4.06852">
        <ele>91.94</ele>
        <time>2017-04-02T07:11:36Z</time>
      </trkpt>
      <trkpt lat="43.88703" lon="4.0686">
        <ele>92.9</ele>
        <time>2017-04-02T07:11:54Z</time>
      </trkpt>
      <trkpt lat="43.88711" lon="4.06871">
        <ele>102.52</ele>
        <time>2017-04-02T07:12:44Z</time>
      </trkpt>
      <trkpt lat="43.88712" lon="4.06882">
        <ele>102.04</ele>
        <time>2017-04-02T07:12:59Z</time>
      </trkpt>
      <trkpt lat="43.88723" lon="4.06891">
        <ele>102.52</ele>
        <time>2017-04-02T07:13:15Z</time>
      </trkpt>
      <trkpt lat="43.88733" lon="4.06898">
        <ele>102.52</ele>
        <time>2017-04-02T07:13:31Z</time>
      </trkpt>
      <trkpt lat="43.88745" lon="4.06902">
        <ele>103.96</ele>
        <time>2017-04-02T07:13:48Z</time>
      </trkpt>
      <trkpt lat="43.88755" lon="4.06908">
        <ele>109.73</ele>
        <time>2017-04-02T07:14:14Z</time>
      </trkpt>
      <trkpt lat="43.88765" lon="4.06912">
        <ele>116.46</ele>
        <time>2017-04-02T07:14:39Z</time>
      </trkpt>
      <trkpt lat="43.88777" lon="4.06917">
        <ele>124.15</ele>
        <time>2017-04-02T07:15:11Z</time>
      </trkpt>
      <trkpt lat="43.88777" lon="4.06934">
        <ele>127.99</ele>
        <time>2017-04-02T07:15:41Z</time>
      </trkpt>
      <trkpt lat="43.88772" lon="4.06951">
        <ele>130.4</ele>
        <time>2017-04-02T07:16:02Z</time>
      </trkpt>
      <trkpt lat="43.8877" lon="4.06964">
        <ele>129.43</ele>
        <time>2017-04-02T07:16:15Z</time>
      </trkpt>
      <trkpt lat="43.88774" lon="4.0697">
        <ele>128.47</ele>
        <time>2017-04-02T07:16:32Z</time>
      </trkpt>
      <trkpt lat="43.88781" lon="4.06963">
        <ele>130.4</ele>
        <time>2017-04-02T07:16:45Z</time>
      </trkpt>
      <trkpt lat="43.88789" lon="4.06958">
        <ele>128.47</ele>
        <time>2017-04-02T07:16:58Z</time>
      </trkpt>
      <trkpt lat="43.88799" lon="4.06953">
        <ele>128.47</ele>
        <time>2017-04-02T07:17:13Z</time>
      </trkpt>
      <trkpt lat="43.88807" lon="4.06945">
        <ele>131.84</ele>
        <time>2017-04-02T07:17:29Z</time>
      </trkpt>
      <trkpt lat="43.88816" lon="4.06936">
        <ele>133.28</ele>
        <time>2017-04-02T07:17:45Z</time>
      </trkpt>
      <trkpt lat="43.88827" lon="4.06933">
        <ele>138.09</ele>
        <time>2017-04-02T07:18:00Z</time>
      </trkpt>
      <trkpt lat="43.88839" lon="4.06937">
        <ele>140.01</ele>
        <time>2017-04-02T07:18:14Z</time>
      </trkpt>
      <trkpt lat="43.8885" lon="4.06943">
        <ele>141.45</ele>
        <time>2017-04-02T07:18:26Z</time>
      </trkpt>
      <trkpt lat="43.88862" lon="4.06947">
        <ele>142.41</ele>
        <time>2017-04-02T07:18:39Z</time>
      </trkpt>
      <trkpt lat="43.88872" lon="4.06952">
        <ele>141.45</ele>
        <time>2017-04-02T07:18:52Z</time>
      </trkpt>
      <trkpt lat="43.88879" lon="4.06965">
        <ele>139.53</ele>
        <time>2017-04-02T07:19:04Z</time>
      </trkpt>
      <trkpt lat="43.8888" lon="4.06982">
        <ele>135.68</ele>
        <time>2017-04-02T07:19:19Z</time>
      </trkpt>
      <trkpt lat="43.88879" lon="4.06998">
        <ele>131.84</ele>
        <time>2017-04-02T07:19:31Z</time>
      </trkpt>
      <trkpt lat="43.88882" lon="4.07011">
        <ele>130.88</ele>
        <time>2017-04-02T07:19:40Z</time>
      </trkpt>
      <trkpt lat="43.88887" lon="4.07025">
        <ele>130.88</ele>
        <time>2017-04-02T07:19:53Z</time>
      </trkpt>
      <trkpt lat="43.88895" lon="4.07036">
        <ele>131.84</ele>
        <time>2017-04-02T07:20:07Z</time>
      </trkpt>
      <trkpt lat="43.88906" lon="4.07049">
        <ele>129.92</ele>
        <time>2017-04-02T07:20:19Z</time>
      </trkpt>
      <trkpt lat="43.88915" lon="4.07062">
        <ele>129.43</ele>
        <time>2017-04-02T07:20:33Z</time>
      </trkpt>
      <trkpt lat="43.88924" lon="4.07072">
        <ele>128.47</ele>
        <time>2017-04-02T07:20:48Z</time>
      </trkpt>
      <trkpt lat="43.88936" lon="4.07078">
        <ele>130.4</ele>
        <time>2017-04-02T07:21:01Z</time>
      </trkpt>
      <trkpt lat="43.88945" lon="4.07076">
        <ele>131.36</ele>
        <time>2017-04-02T07:21:13Z</time>
      </trkpt>
      <trkpt lat="43.88956" lon="4.07075">
        <ele>133.28</ele>
        <time>2017-04-02T07:21:29Z</time>
      </trkpt>
      <trkpt lat="43.88967" lon="4.07073">
        <ele>136.16</ele>
        <time>2017-04-02T07:21:45Z</time>
      </trkpt>
      <trkpt lat="43.88977" lon="4.07075">
        <ele>137.61</ele>
        <time>2017-04-02T07:22:07Z</time>
      </trkpt>
      <trkpt lat="43.88985" lon="4.07073">
        <ele>131.36</ele>
        <time>2017-04-02T07:23:19Z</time>
      </trkpt>
      <trkpt lat="43.88996" lon="4.07067">
        <ele>132.8</ele>
        <time>2017-04-02T07:23:31Z</time>
      </trkpt>
      <trkpt lat="43.89007" lon="4.07065">
        <ele>133.28</ele>
        <time>2017-04-02T07:23:44Z</time>
      </trkpt>
      <trkpt lat="43.89018" lon="4.07065">
        <ele>135.68</ele>
        <time>2017-04-02T07:23:56Z</time>
      </trkpt>
      <trkpt lat="43.89031" lon="4.07065">
        <ele>137.13</ele>
        <time>2017-04-02T07:24:09Z</time>
      </trkpt>
      <trkpt lat="43.89042" lon="4.07062">
        <ele>139.05</ele>
        <time>2017-04-02T07:24:20Z</time>
      </trkpt>
      <trkpt lat="43.89051" lon="4.07057">
        <ele>139.53</ele>
        <time>2017-04-02T07:24:32Z</time>
      </trkpt>
      <trkpt lat="43.89063" lon="4.07054">
        <ele>137.61</ele>
        <time>2017-04-02T07:24:43Z</time>
      </trkpt>
      <trkpt lat="43.89074" lon="4.07053">
        <ele>134.72</ele>
        <time>2017-04-02T07:24:54Z</time>
      </trkpt>
      <trkpt lat="43.89085" lon="4.07051">
        <ele>134.72</ele>
        <time>2017-04-02T07:25:05Z</time>
      </trkpt>
      <trkpt lat="43.89096" lon="4.07048">
        <ele>133.28</ele>
        <time>2017-04-02T07:25:16Z</time>
      </trkpt>
      <trkpt lat="43.89107" lon="4.07048">
        <ele>132.32</ele>
        <time>2017-04-02T07:25:27Z</time>
      </trkpt>
      <trkpt lat="43.89117" lon="4.07048">
        <ele>131.36</ele>
        <time>2017-04-02T07:25:37Z</time>
      </trkpt>
      <trkpt lat="43.89127" lon="4.07046">
        <ele>130.4</ele>
        <time>2017-04-02T07:25:46Z</time>
      </trkpt>
      <trkpt lat="43.89136" lon="4.07046">
        <ele>129.43</ele>
        <time>2017-04-02T07:25:55Z</time>
      </trkpt>
      <trkpt lat="43.89147" lon="4.07047">
        <ele>128.47</ele>
        <time>2017-04-02T07:26:04Z</time>
      </trkpt>
      <trkpt lat="43.89156" lon="4.07043">
        <ele>127.99</ele>
        <time>2017-04-02T07:26:13Z</time>
      </trkpt>
      <trkpt lat="43.89164" lon="4.07036">
        <ele>127.51</ele>
        <time>2017-04-02T07:26:22Z</time>
      </trkpt>
      <trkpt lat="43.89171" lon="4.07029">
        <ele>127.03</ele>
        <time>2017-04-02T07:26:30Z</time>
      </trkpt>
      <trkpt lat="43.89179" lon="4.0702">
        <ele>126.55</ele>
        <time>2017-04-02T07:26:39Z</time>
      </trkpt>
      <trkpt lat="43.89189" lon="4.07015">
        <ele>126.07</ele>
        <time>2017-04-02T07:26:48Z</time>
      </trkpt>
      <trkpt lat="43.89199" lon="4.07021">
        <ele>126.07</ele>
        <time>2017-04-02T07:26:57Z</time>
      </trkpt>
      <trkpt lat="43.89207" lon="4.07029">
        <ele>127.03</ele>
        <time>2017-04-02T07:27:06Z</time>
      </trkpt>
      <trkpt lat="43.89216" lon="4.07035">
        <ele>126.55</ele>
        <time>2017-04-02T07:27:15Z</time>
      </trkpt>
      <trkpt lat="43.89225" lon="4.07039">
        <ele>125.59</ele>
        <time>2017-04-02T07:27:25Z</time>
      </trkpt>
      <trkpt lat="43.89235" lon="4.07043">
        <ele>124.63</ele>
        <time>2017-04-02T07:27:34Z</time>
      </trkpt>
      <trkpt lat="43.89244" lon="4.07048">
        <ele>124.15</ele>
        <time>2017-04-02T07:27:42Z</time>
      </trkpt>
      <trkpt lat="43.89253" lon="4.07054">
        <ele>123.19</ele>
        <time>2017-04-02T07:27:51Z</time>
      </trkpt>
      <trkpt lat="43.89262" lon="4.07058">
        <ele>122.71</ele>
        <time>2017-04-02T07:28:00Z</time>
      </trkpt>
      <trkpt lat="43.89271" lon="4.07063">
        <ele>122.22</ele>
        <time>2017-04-02T07:28:09Z</time>
      </trkpt>
      <trkpt lat="43.89281" lon="4.07067">
        <ele>122.22</ele>
        <time>2017-04-02T07:28:18Z</time>
      </trkpt>
      <trkpt lat="43.8929" lon="4.07071">
        <ele>120.78</ele>
        <time>2017-04-02T07:28:27Z</time>
      </trkpt>
      <trkpt lat="43.89301" lon="4.07073">
        <ele>119.82</ele>
        <time>2017-04-02T07:28:37Z</time>
      </trkpt>
      <trkpt lat="43.89312" lon="4.07073">
        <ele>119.82</ele>
        <time>2017-04-02T07:28:47Z</time>
      </trkpt>
      <trkpt lat="43.89321" lon="4.07076">
        <ele>118.86</ele>
        <time>2017-04-02T07:28:56Z</time>
      </trkpt>
      <trkpt lat="43.89332" lon="4.0708">
        <ele>118.86</ele>
        <time>2017-04-02T07:29:06Z</time>
      </trkpt>
      <trkpt lat="43.89342" lon="4.07082">
        <ele>119.34</ele>
        <time>2017-04-02T07:29:15Z</time>
      </trkpt>
      <trkpt lat="43.89353" lon="4.07084">
        <ele>118.86</ele>
        <time>2017-04-02T07:29:25Z</time>
      </trkpt>
      <trkpt lat="43.89363" lon="4.07086">
        <ele>119.34</ele>
        <time>2017-04-02T07:29:35Z</time>
      </trkpt>
      <trkpt lat="43.89373" lon="4.07089">
        <ele>118.86</ele>
        <time>2017-04-02T07:29:44Z</time>
      </trkpt>
      <trkpt lat="43.89384" lon="4.07091">
        <ele>118.86</ele>
        <time>2017-04-02T07:29:53Z</time>
      </trkpt>
      <trkpt lat="43.89395" lon="4.07096">
        <ele>119.82</ele>
        <time>2017-04-02T07:30:04Z</time>
      </trkpt>
      <trkpt lat="43.89404" lon="4.07098">
        <ele>118.38</ele>
        <time>2017-04-02T07:30:13Z</time>
      </trkpt>
      <trkpt lat="43.89414" lon="4.07104">
        <ele>118.38</ele>
        <time>2017-04-02T07:30:23Z</time>
      </trkpt>
      <trkpt lat="43.89424" lon="4.07111">
        <ele>117.9</ele>
        <time>2017-04-02T07:30:33Z</time>
      </trkpt>
      <trkpt lat="43.89435" lon="4.07117">
        <ele>117.9</ele>
        <time>2017-04-02T07:30:44Z</time>
      </trkpt>
      <trkpt lat="43.89444" lon="4.07121">
        <ele>116.94</ele>
        <time>2017-04-02T07:30:53Z</time>
      </trkpt>
      <trkpt lat="43.89455" lon="4.07121">
        <ele>115.01</ele>
        <time>2017-04-02T07:31:03Z</time>
      </trkpt>
      <trkpt lat="43.89465" lon="4.07118">
        <ele>112.61</ele>
        <time>2017-04-02T07:31:13Z</time>
      </trkpt>
      <trkpt lat="43.89473" lon="4.07108">
        <ele>112.13</ele>
        <time>2017-04-02T07:31:23Z</time>
      </trkpt>
      <trkpt lat="43.89481" lon="4.07102">
        <ele>110.69</ele>
        <time>2017-04-02T07:31:33Z</time>
      </trkpt>
      <trkpt lat="43.8949" lon="4.07094">
        <ele>111.17</ele>
        <time>2017-04-02T07:31:42Z</time>
      </trkpt>
      <trkpt lat="43.89498" lon="4.07085">
        <ele>113.57</ele>
        <time>2017-04-02T07:31:52Z</time>
      </trkpt>
      <trkpt lat="43.89509" lon="4.0708">
        <ele>112.61</ele>
        <time>2017-04-02T07:32:02Z</time>
      </trkpt>
      <trkpt lat="43.89519" lon="4.07074">
        <ele>112.61</ele>
        <time>2017-04-02T07:32:12Z</time>
      </trkpt>
      <trkpt lat="43.89529" lon="4.0707">
        <ele>112.61</ele>
        <time>2017-04-02T07:32:22Z</time>
      </trkpt>
      <trkpt lat="43.89538" lon="4.07065">
        <ele>113.57</ele>
        <time>2017-04-02T07:32:33Z</time>
      </trkpt>
      <trkpt lat="43.89549" lon="4.07061">
        <ele>115.01</ele>
        <time>2017-04-02T07:32:44Z</time>
      </trkpt>
      <trkpt lat="43.89561" lon="4.07065">
        <ele>116.46</ele>
        <time>2017-04-02T07:32:55Z</time>
      </trkpt>
      <trkpt lat="43.89572" lon="4.07063">
        <ele>118.38</ele>
        <time>2017-04-02T07:33:05Z</time>
      </trkpt>
      <trkpt lat="43.89582" lon="4.0706">
        <ele>117.9</ele>
        <time>2017-04-02T07:33:14Z</time>
      </trkpt>
      <trkpt lat="43.89592" lon="4.07054">
        <ele>117.9</ele>
        <time>2017-04-02T07:33:23Z</time>
      </trkpt>
      <trkpt lat="43.896" lon="4.07049">
        <ele>117.9</ele>
        <time>2017-04-02T07:33:32Z</time>
      </trkpt>
      <trkpt lat="43.89609" lon="4.07046">
        <ele>117.42</ele>
        <time>2017-04-02T07:33:41Z</time>
      </trkpt>
      <trkpt lat="43.89619" lon="4.07044">
        <ele>117.42</ele>
        <time>2017-04-02T07:33:50Z</time>
      </trkpt>
      <trkpt lat="43.89628" lon="4.07043">
        <ele>116.94</ele>
        <time>2017-04-02T07:33:59Z</time>
      </trkpt>
      <trkpt lat="43.89639" lon="4.07045">
        <ele>116.46</ele>
        <time>2017-04-02T07:34:08Z</time>
      </trkpt>
      <trkpt lat="43.89648" lon="4.07045">
        <ele>116.94</ele>
        <time>2017-04-02T07:34:17Z</time>
      </trkpt>
      <trkpt lat="43.89657" lon="4.07043">
        <ele>116.94</ele>
        <time>2017-04-02T07:34:26Z</time>
      </trkpt>
      <trkpt lat="43.89667" lon="4.07042">
        <ele>116.94</ele>
        <time>2017-04-02T07:34:35Z</time>
      </trkpt>
      <trkpt lat="43.89677" lon="4.07042">
        <ele>117.42</ele>
        <time>2017-04-02T07:34:45Z</time>
      </trkpt>
      <trkpt lat="43.89688" lon="4.0704">
        <ele>118.86</ele>
        <time>2017-04-02T07:34:57Z</time>
      </trkpt>
      <trkpt lat="43.89698" lon="4.0704">
        <ele>120.3</ele>
        <time>2017-04-02T07:35:08Z</time>
      </trkpt>
      <trkpt lat="43.89708" lon="4.07038">
        <ele>120.78</ele>
        <time>2017-04-02T07:35:19Z</time>
      </trkpt>
      <trkpt lat="43.89719" lon="4.0704">
        <ele>123.19</ele>
        <time>2017-04-02T07:35:31Z</time>
      </trkpt>
      <trkpt lat="43.89729" lon="4.07045">
        <ele>124.15</ele>
        <time>2017-04-02T07:35:41Z</time>
      </trkpt>
      <trkpt lat="43.89739" lon="4.07047">
        <ele>124.63</ele>
        <time>2017-04-02T07:35:51Z</time>
      </trkpt>
      <trkpt lat="43.89749" lon="4.07045">
        <ele>124.15</ele>
        <time>2017-04-02T07:36:00Z</time>
      </trkpt>
      <trkpt lat="43.89759" lon="4.07045">
        <ele>123.67</ele>
        <time>2017-04-02T07:36:11Z</time>
      </trkpt>
      <trkpt lat="43.89771" lon="4.07043">
        <ele>124.15</ele>
        <time>2017-04-02T07:36:22Z</time>
      </trkpt>
      <trkpt lat="43.89783" lon="4.07043">
        <ele>125.11</ele>
        <time>2017-04-02T07:36:32Z</time>
      </trkpt>
      <trkpt lat="43.89794" lon="4.07045">
        <ele>126.55</ele>
        <time>2017-04-02T07:36:43Z</time>
      </trkpt>
      <trkpt lat="43.89805" lon="4.07046">
        <ele>126.07</ele>
        <time>2017-04-02T07:36:55Z</time>
      </trkpt>
      <trkpt lat="43.89816" lon="4.07042">
        <ele>125.59</ele>
        <time>2017-04-02T07:37:06Z</time>
      </trkpt>
      <trkpt lat="43.89826" lon="4.07038">
        <ele>127.99</ele>
        <time>2017-04-02T07:37:16Z</time>
      </trkpt>
      <trkpt lat="43.89838" lon="4.07038">
        <ele>129.43</ele>
        <time>2017-04-02T07:37:27Z</time>
      </trkpt>
      <trkpt lat="43.8985" lon="4.07041">
        <ele>130.88</ele>
        <time>2017-04-02T07:37:38Z</time>
      </trkpt>
      <trkpt lat="43.89861" lon="4.07045">
        <ele>129.92</ele>
        <time>2017-04-02T07:37:48Z</time>
      </trkpt>
      <trkpt lat="43.89871" lon="4.07045">
        <ele>129.43</ele>
        <time>2017-04-02T07:37:58Z</time>
      </trkpt>
      <trkpt lat="43.8988" lon="4.07048">
        <ele>128.47</ele>
        <time>2017-04-02T07:38:08Z</time>
      </trkpt>
      <trkpt lat="43.8989" lon="4.07051">
        <ele>128.47</ele>
        <time>2017-04-02T07:38:18Z</time>
      </trkpt>
      <trkpt lat="43.89901" lon="4.07053">
        <ele>128.47</ele>
        <time>2017-04-02T07:38:28Z</time>
      </trkpt>
      <trkpt lat="43.89912" lon="4.07053">
        <ele>127.99</ele>
        <time>2017-04-02T07:38:37Z</time>
      </trkpt>
      <trkpt lat="43.89922" lon="4.07051">
        <ele>127.03</ele>
        <time>2017-04-02T07:38:46Z</time>
      </trkpt>
      <trkpt lat="43.89933" lon="4.0705">
        <ele>127.51</ele>
        <time>2017-04-02T07:38:56Z</time>
      </trkpt>
      <trkpt lat="43.89943" lon="4.07052">
        <ele>127.03</ele>
        <time>2017-04-02T07:39:06Z</time>
      </trkpt>
      <trkpt lat="43.89954" lon="4.07051">
        <ele>124.63</ele>
        <time>2017-04-02T07:39:16Z</time>
      </trkpt>
      <trkpt lat="43.89965" lon="4.07051">
        <ele>122.71</ele>
        <time>2017-04-02T07:39:25Z</time>
      </trkpt>
      <trkpt lat="43.89974" lon="4.07051">
        <ele>121.26</ele>
        <time>2017-04-02T07:39:34Z</time>
      </trkpt>
      <trkpt lat="43.89984" lon="4.07054">
        <ele>120.78</ele>
        <time>2017-04-02T07:39:43Z</time>
      </trkpt>
      <trkpt lat="43.89993" lon="4.07053">
        <ele>120.78</ele>
        <time>2017-04-02T07:39:52Z</time>
      </trkpt>
      <trkpt lat="43.90003" lon="4.07053">
        <ele>119.82</ele>
        <time>2017-04-02T07:40:02Z</time>
      </trkpt>
      <trkpt lat="43.90013" lon="4.07059">
        <ele>122.22</ele>
        <time>2017-04-02T07:40:14Z</time>
      </trkpt>
      <trkpt lat="43.90023" lon="4.0706">
        <ele>122.71</ele>
        <time>2017-04-02T07:40:24Z</time>
      </trkpt>
      <trkpt lat="43.90034" lon="4.07061">
        <ele>125.59</ele>
        <time>2017-04-02T07:40:35Z</time>
      </trkpt>
      <trkpt lat="43.90044" lon="4.07067">
        <ele>126.55</ele>
        <time>2017-04-02T07:40:47Z</time>
      </trkpt>
      <trkpt lat="43.90055" lon="4.07069">
        <ele>127.99</ele>
        <time>2017-04-02T07:41:00Z</time>
      </trkpt>
      <trkpt lat="43.90065" lon="4.0707">
        <ele>128.47</ele>
        <time>2017-04-02T07:41:10Z</time>
      </trkpt>
      <trkpt lat="43.90075" lon="4.07073">
        <ele>130.4</ele>
        <time>2017-04-02T07:41:21Z</time>
      </trkpt>
      <trkpt lat="43.90085" lon="4.07071">
        <ele>129.43</ele>
        <time>2017-04-02T07:41:32Z</time>
      </trkpt>
      <trkpt lat="43.90095" lon="4.07072">
        <ele>127.99</ele>
        <time>2017-04-02T07:41:42Z</time>
      </trkpt>
      <trkpt lat="43.90106" lon="4.07075">
        <ele>125.11</ele>
        <time>2017-04-02T07:41:52Z</time>
      </trkpt>
      <trkpt lat="43.90115" lon="4.07078">
        <ele>123.67</ele>
        <time>2017-04-02T07:42:02Z</time>
      </trkpt>
      <trkpt lat="43.90126" lon="4.07085">
        <ele>123.67</ele>
        <time>2017-04-02T07:42:15Z</time>
      </trkpt>
      <trkpt lat="43.90136" lon="4.07092">
        <ele>125.11</ele>
        <time>2017-04-02T07:42:27Z</time>
      </trkpt>
      <trkpt lat="43.90147" lon="4.07098">
        <ele>127.03</ele>
        <time>2017-04-02T07:42:39Z</time>
      </trkpt>
      <trkpt lat="43.90154" lon="4.07111">
        <ele>128.47</ele>
        <time>2017-04-02T07:42:51Z</time>
      </trkpt>
      <trkpt lat="43.90165" lon="4.0712">
        <ele>126.07</ele>
        <time>2017-04-02T07:43:05Z</time>
      </trkpt>
      <trkpt lat="43.90172" lon="4.07132">
        <ele>124.15</ele>
        <time>2017-04-02T07:43:17Z</time>
      </trkpt>
      <trkpt lat="43.90172" lon="4.07145">
        <ele>122.71</ele>
        <time>2017-04-02T07:43:28Z</time>
      </trkpt>
      <trkpt lat="43.90171" lon="4.07159">
        <ele>123.19</ele>
        <time>2017-04-02T07:43:38Z</time>
      </trkpt>
      <trkpt lat="43.90162" lon="4.07169">
        <ele>122.71</ele>
        <time>2017-04-02T07:43:50Z</time>
      </trkpt>
      <trkpt lat="43.9015" lon="4.07172">
        <ele>121.74</ele>
        <time>2017-04-02T07:44:01Z</time>
      </trkpt>
      <trkpt lat="43.90137" lon="4.0718">
        <ele>120.78</ele>
        <time>2017-04-02T07:44:13Z</time>
      </trkpt>
      <trkpt lat="43.90129" lon="4.07189">
        <ele>119.34</ele>
        <time>2017-04-02T07:44:23Z</time>
      </trkpt>
      <trkpt lat="43.90123" lon="4.07199">
        <ele>119.34</ele>
        <time>2017-04-02T07:44:33Z</time>
      </trkpt>
      <trkpt lat="43.90118" lon="4.0721">
        <ele>116.94</ele>
        <time>2017-04-02T07:44:45Z</time>
      </trkpt>
      <trkpt lat="43.90112" lon="4.07224">
        <ele>116.46</ele>
        <time>2017-04-02T07:44:57Z</time>
      </trkpt>
      <trkpt lat="43.90112" lon="4.07239">
        <ele>116.46</ele>
        <time>2017-04-02T07:45:08Z</time>
      </trkpt>
      <trkpt lat="43.90104" lon="4.07253">
        <ele>117.42</ele>
        <time>2017-04-02T07:45:19Z</time>
      </trkpt>
      <trkpt lat="43.901" lon="4.07266">
        <ele>119.34</ele>
        <time>2017-04-02T07:45:29Z</time>
      </trkpt>
      <trkpt lat="43.90092" lon="4.07278">
        <ele>120.3</ele>
        <time>2017-04-02T07:45:39Z</time>
      </trkpt>
      <trkpt lat="43.90091" lon="4.07288">
        <ele>121.26</ele>
        <time>2017-04-02T07:45:46Z</time>
      </trkpt>
      <trkpt lat="43.90087" lon="4.073">
        <ele>122.71</ele>
        <time>2017-04-02T07:45:56Z</time>
      </trkpt>
      <trkpt lat="43.90086" lon="4.07314">
        <ele>122.22</ele>
        <time>2017-04-02T07:46:07Z</time>
      </trkpt>
      <trkpt lat="43.90085" lon="4.07329">
        <ele>118.86</ele>
        <time>2017-04-02T07:46:18Z</time>
      </trkpt>
      <trkpt lat="43.90085" lon="4.07343">
        <ele>117.42</ele>
        <time>2017-04-02T07:46:28Z</time>
      </trkpt>
      <trkpt lat="43.90085" lon="4.07358">
        <ele>116.46</ele>
        <time>2017-04-02T07:46:38Z</time>
      </trkpt>
      <trkpt lat="43.90085" lon="4.07373">
        <ele>116.46</ele>
        <time>2017-04-02T07:46:48Z</time>
      </trkpt>
      <trkpt lat="43.90083" lon="4.07386">
        <ele>117.42</ele>
        <time>2017-04-02T07:46:57Z</time>
      </trkpt>
      <trkpt lat="43.90079" lon="4.07399">
        <ele>117.42</ele>
        <time>2017-04-02T07:47:06Z</time>
      </trkpt>
      <trkpt lat="43.90075" lon="4.07411">
        <ele>117.42</ele>
        <time>2017-04-02T07:47:16Z</time>
      </trkpt>
      <trkpt lat="43.90072" lon="4.07425">
        <ele>119.34</ele>
        <time>2017-04-02T07:47:27Z</time>
      </trkpt>
      <trkpt lat="43.90068" lon="4.0744">
        <ele>118.38</ele>
        <time>2017-04-02T07:47:39Z</time>
      </trkpt>
      <trkpt lat="43.9006" lon="4.07452">
        <ele>116.46</ele>
        <time>2017-04-02T07:47:50Z</time>
      </trkpt>
      <trkpt lat="43.90053" lon="4.07463">
        <ele>115.01</ele>
        <time>2017-04-02T07:48:02Z</time>
      </trkpt>
      <trkpt lat="43.9005" lon="4.07475">
        <ele>116.46</ele>
        <time>2017-04-02T07:48:12Z</time>
      </trkpt>
      <trkpt lat="43.90047" lon="4.07486">
        <ele>117.42</ele>
        <time>2017-04-02T07:48:28Z</time>
      </trkpt>
      <trkpt lat="43.90048" lon="4.07499">
        <ele>116.46</ele>
        <time>2017-04-02T07:48:39Z</time>
      </trkpt>
      <trkpt lat="43.90049" lon="4.07513">
        <ele>116.46</ele>
        <time>2017-04-02T07:48:49Z</time>
      </trkpt>
      <trkpt lat="43.90049" lon="4.07525">
        <ele>117.9</ele>
        <time>2017-04-02T07:48:58Z</time>
      </trkpt>
      <trkpt lat="43.90051" lon="4.07539">
        <ele>117.42</ele>
        <time>2017-04-02T07:49:07Z</time>
      </trkpt>
      <trkpt lat="43.90051" lon="4.07552">
        <ele>118.38</ele>
        <time>2017-04-02T07:49:15Z</time>
      </trkpt>
      <trkpt lat="43.90052" lon="4.07564">
        <ele>118.38</ele>
        <time>2017-04-02T07:49:24Z</time>
      </trkpt>
      <trkpt lat="43.90049" lon="4.07574">
        <ele>120.3</ele>
        <time>2017-04-02T07:50:25Z</time>
      </trkpt>
      <trkpt lat="43.90057" lon="4.07579">
        <ele>123.19</ele>
        <time>2017-04-02T07:50:46Z</time>
      </trkpt>
      <trkpt lat="43.90067" lon="4.07581">
        <ele>126.07</ele>
        <time>2017-04-02T07:51:00Z</time>
      </trkpt>
      <trkpt lat="43.90076" lon="4.07582">
        <ele>127.99</ele>
        <time>2017-04-02T07:51:20Z</time>
      </trkpt>
      <trkpt lat="43.9008" lon="4.07581">
        <ele>127.99</ele>
        <time>2017-04-02T07:54:33Z</time>
      </trkpt>
      <trkpt lat="43.90086" lon="4.07572">
        <ele>127.03</ele>
        <time>2017-04-02T07:54:53Z</time>
      </trkpt>
      <trkpt lat="43.90092" lon="4.07562">
        <ele>128.47</ele>
        <time>2017-04-02T07:55:14Z</time>
      </trkpt>
      <trkpt lat="43.90096" lon="4.07553">
        <ele>132.8</ele>
        <time>2017-04-02T07:55:34Z</time>
      </trkpt>
      <trkpt lat="43.90102" lon="4.07541">
        <ele>133.76</ele>
        <time>2017-04-02T07:55:49Z</time>
      </trkpt>
      <trkpt lat="43.90107" lon="4.07529">
        <ele>136.16</ele>
        <time>2017-04-02T07:56:04Z</time>
      </trkpt>
      <trkpt lat="43.90113" lon="4.0752">
        <ele>140.97</ele>
        <time>2017-04-02T07:56:25Z</time>
      </trkpt>
      <trkpt lat="43.9012" lon="4.07511">
        <ele>141.45</ele>
        <time>2017-04-02T07:56:38Z</time>
      </trkpt>
      <trkpt lat="43.90129" lon="4.07503">
        <ele>140.49</ele>
        <time>2017-04-02T07:56:48Z</time>
      </trkpt>
      <trkpt lat="43.90136" lon="4.07495">
        <ele>140.49</ele>
        <time>2017-04-02T07:56:58Z</time>
      </trkpt>
      <trkpt lat="43.90143" lon="4.07486">
        <ele>139.53</ele>
        <time>2017-04-02T07:57:10Z</time>
      </trkpt>
      <trkpt lat="43.90149" lon="4.07478">
        <ele>139.53</ele>
        <time>2017-04-02T07:57:25Z</time>
      </trkpt>
      <trkpt lat="43.90152" lon="4.07472">
        <ele>140.49</ele>
        <time>2017-04-02T07:57:45Z</time>
      </trkpt>
      <trkpt lat="43.90156" lon="4.07461">
        <ele>141.93</ele>
        <time>2017-04-02T07:57:55Z</time>
      </trkpt>
      <trkpt lat="43.9016" lon="4.07453">
        <ele>142.89</ele>
        <time>2017-04-02T07:58:19Z</time>
      </trkpt>
      <trkpt lat="43.90169" lon="4.07452">
        <ele>146.74</ele>
        <time>2017-04-02T07:59:17Z</time>
      </trkpt>
      <trkpt lat="43.9018" lon="4.07449">
        <ele>150.1</ele>
        <time>2017-04-02T07:59:32Z</time>
      </trkpt>
      <trkpt lat="43.90189" lon="4.07446">
        <ele>152.51</ele>
        <time>2017-04-02T07:59:48Z</time>
      </trkpt>
      <trkpt lat="43.90199" lon="4.07443">
        <ele>153.47</ele>
        <time>2017-04-02T08:00:06Z</time>
      </trkpt>
      <trkpt lat="43.90207" lon="4.07439">
        <ele>154.91</ele>
        <time>2017-04-02T08:00:23Z</time>
      </trkpt>
      <trkpt lat="43.90215" lon="4.07433">
        <ele>157.31</ele>
        <time>2017-04-02T08:00:38Z</time>
      </trkpt>
      <trkpt lat="43.90225" lon="4.07429">
        <ele>158.75</ele>
        <time>2017-04-02T08:00:52Z</time>
      </trkpt>
      <trkpt lat="43.90233" lon="4.07425">
        <ele>162.12</ele>
        <time>2017-04-02T08:01:10Z</time>
      </trkpt>
      <trkpt lat="43.90242" lon="4.07421">
        <ele>162.6</ele>
        <time>2017-04-02T08:01:23Z</time>
      </trkpt>
      <trkpt lat="43.90251" lon="4.07417">
        <ele>164.52</ele>
        <time>2017-04-02T08:01:37Z</time>
      </trkpt>
      <trkpt lat="43.9026" lon="4.07412">
        <ele>166.45</ele>
        <time>2017-04-02T08:01:50Z</time>
      </trkpt>
      <trkpt lat="43.90267" lon="4.07407">
        <ele>167.89</ele>
        <time>2017-04-02T08:02:22Z</time>
      </trkpt>
      <trkpt lat="43.90269" lon="4.07401">
        <ele>171.25</ele>
        <time>2017-04-02T08:05:38Z</time>
      </trkpt>
      <trkpt lat="43.90275" lon="4.07393">
        <ele>173.17</ele>
        <time>2017-04-02T08:06:03Z</time>
      </trkpt>
      <trkpt lat="43.90279" lon="4.07381">
        <ele>174.62</ele>
        <time>2017-04-02T08:06:18Z</time>
      </trkpt>
      <trkpt lat="43.90282" lon="4.07369">
        <ele>175.58</ele>
        <time>2017-04-02T08:06:32Z</time>
      </trkpt>
      <trkpt lat="43.90284" lon="4.07356">
        <ele>177.02</ele>
        <time>2017-04-02T08:06:45Z</time>
      </trkpt>
      <trkpt lat="43.90285" lon="4.07344">
        <ele>178.46</ele>
        <time>2017-04-02T08:06:58Z</time>
      </trkpt>
      <trkpt lat="43.90284" lon="4.0733">
        <ele>178.94</ele>
        <time>2017-04-02T08:07:10Z</time>
      </trkpt>
      <trkpt lat="43.90287" lon="4.07318">
        <ele>179.9</ele>
        <time>2017-04-02T08:07:21Z</time>
      </trkpt>
      <trkpt lat="43.90294" lon="4.07306">
        <ele>179.9</ele>
        <time>2017-04-02T08:07:32Z</time>
      </trkpt>
      <trkpt lat="43.903" lon="4.07296">
        <ele>180.38</ele>
        <time>2017-04-02T08:07:43Z</time>
      </trkpt>
      <trkpt lat="43.90308" lon="4.07286">
        <ele>180.87</ele>
        <time>2017-04-02T08:07:53Z</time>
      </trkpt>
      <trkpt lat="43.90316" lon="4.07277">
        <ele>181.35</ele>
        <time>2017-04-02T08:08:04Z</time>
      </trkpt>
      <trkpt lat="43.90324" lon="4.07269">
        <ele>181.35</ele>
        <time>2017-04-02T08:08:14Z</time>
      </trkpt>
      <trkpt lat="43.90333" lon="4.07262">
        <ele>181.83</ele>
        <time>2017-04-02T08:08:25Z</time>
      </trkpt>
      <trkpt lat="43.90341" lon="4.07254">
        <ele>182.79</ele>
        <time>2017-04-02T08:08:37Z</time>
      </trkpt>
      <trkpt lat="43.9035" lon="4.07247">
        <ele>184.71</ele>
        <time>2017-04-02T08:08:50Z</time>
      </trkpt>
      <trkpt lat="43.9036" lon="4.07241">
        <ele>186.63</ele>
        <time>2017-04-02T08:09:03Z</time>
      </trkpt>
      <trkpt lat="43.90369" lon="4.07235">
        <ele>188.08</ele>
        <time>2017-04-02T08:09:15Z</time>
      </trkpt>
      <trkpt lat="43.90378" lon="4.07229">
        <ele>191.92</ele>
        <time>2017-04-02T08:09:30Z</time>
      </trkpt>
      <trkpt lat="43.90387" lon="4.07224">
        <ele>193.84</ele>
        <time>2017-04-02T08:09:45Z</time>
      </trkpt>
      <trkpt lat="43.90396" lon="4.07219">
        <ele>195.77</ele>
        <time>2017-04-02T08:10:01Z</time>
      </trkpt>
      <trkpt lat="43.90406" lon="4.07214">
        <ele>198.65</ele>
        <time>2017-04-02T08:10:21Z</time>
      </trkpt>
      <trkpt lat="43.90413" lon="4.07211">
        <ele>199.61</ele>
        <time>2017-04-02T08:12:57Z</time>
      </trkpt>
      <trkpt lat="43.90419" lon="4.0721">
        <ele>202.01</ele>
        <time>2017-04-02T08:13:14Z</time>
      </trkpt>
      <trkpt lat="43.90427" lon="4.07209">
        <ele>203.94</ele>
        <time>2017-04-02T08:13:29Z</time>
      </trkpt>
      <trkpt lat="43.90436" lon="4.07207">
        <ele>207.78</ele>
        <time>2017-04-02T08:13:44Z</time>
      </trkpt>
      <trkpt lat="43.90447" lon="4.07202">
        <ele>211.63</ele>
        <time>2017-04-02T08:14:02Z</time>
      </trkpt>
      <trkpt lat="43.90458" lon="4.07196">
        <ele>214.51</ele>
        <time>2017-04-02T08:14:13Z</time>
      </trkpt>
      <trkpt lat="43.90467" lon="4.0719">
        <ele>216.43</ele>
        <time>2017-04-02T08:14:24Z</time>
      </trkpt>
      <trkpt lat="43.90476" lon="4.07182">
        <ele>216.91</ele>
        <time>2017-04-02T08:14:37Z</time>
      </trkpt>
      <trkpt lat="43.90485" lon="4.07178">
        <ele>217.88</ele>
        <time>2017-04-02T08:14:50Z</time>
      </trkpt>
      <trkpt lat="43.90495" lon="4.07184">
        <ele>218.84</ele>
        <time>2017-04-02T08:15:02Z</time>
      </trkpt>
      <trkpt lat="43.90508" lon="4.07197">
        <ele>215.95</ele>
        <time>2017-04-02T08:15:42Z</time>
      </trkpt>
      <trkpt lat="43.90515" lon="4.07204">
        <ele>214.99</ele>
        <time>2017-04-02T08:15:57Z</time>
      </trkpt>
      <trkpt lat="43.90525" lon="4.07213">
        <ele>213.55</ele>
        <time>2017-04-02T08:16:11Z</time>
      </trkpt>
      <trkpt lat="43.90534" lon="4.07221">
        <ele>213.55</ele>
        <time>2017-04-02T08:16:24Z</time>
      </trkpt>
      <trkpt lat="43.90543" lon="4.07231">
        <ele>212.59</ele>
        <time>2017-04-02T08:16:37Z</time>
      </trkpt>
      <trkpt lat="43.90554" lon="4.07239">
        <ele>211.15</ele>
        <time>2017-04-02T08:16:51Z</time>
      </trkpt>
      <trkpt lat="43.90565" lon="4.07245">
        <ele>210.19</ele>
        <time>2017-04-02T08:17:03Z</time>
      </trkpt>
      <trkpt lat="43.90577" lon="4.07249">
        <ele>210.67</ele>
        <time>2017-04-02T08:17:16Z</time>
      </trkpt>
      <trkpt lat="43.90589" lon="4.07252">
        <ele>210.67</ele>
        <time>2017-04-02T08:17:28Z</time>
      </trkpt>
      <trkpt lat="43.90602" lon="4.07256">
        <ele>210.19</ele>
        <time>2017-04-02T08:17:42Z</time>
      </trkpt>
      <trkpt lat="43.90615" lon="4.07257">
        <ele>209.22</ele>
        <time>2017-04-02T08:17:59Z</time>
      </trkpt>
      <trkpt lat="43.90626" lon="4.07258">
        <ele>206.82</ele>
        <time>2017-04-02T08:18:12Z</time>
      </trkpt>
      <trkpt lat="43.90637" lon="4.0726">
        <ele>206.34</ele>
        <time>2017-04-02T08:18:26Z</time>
      </trkpt>
      <trkpt lat="43.9065" lon="4.07266">
        <ele>203.94</ele>
        <time>2017-04-02T08:18:52Z</time>
      </trkpt>
      <trkpt lat="43.90662" lon="4.07271">
        <ele>202.49</ele>
        <time>2017-04-02T08:19:04Z</time>
      </trkpt>
      <trkpt lat="43.90673" lon="4.07274">
        <ele>202.98</ele>
        <time>2017-04-02T08:19:16Z</time>
      </trkpt>
      <trkpt lat="43.90684" lon="4.07278">
        <ele>204.42</ele>
        <time>2017-04-02T08:19:30Z</time>
      </trkpt>
      <trkpt lat="43.90695" lon="4.07281">
        <ele>205.38</ele>
        <time>2017-04-02T08:19:43Z</time>
      </trkpt>
      <trkpt lat="43.90708" lon="4.07283">
        <ele>205.86</ele>
        <time>2017-04-02T08:19:57Z</time>
      </trkpt>
      <trkpt lat="43.90722" lon="4.07287">
        <ele>206.82</ele>
        <time>2017-04-02T08:20:13Z</time>
      </trkpt>
      <trkpt lat="43.90735" lon="4.0729">
        <ele>208.26</ele>
        <time>2017-04-02T08:20:28Z</time>
      </trkpt>
      <trkpt lat="43.90749" lon="4.07292">
        <ele>209.7</ele>
        <time>2017-04-02T08:20:43Z</time>
      </trkpt>
      <trkpt lat="43.90764" lon="4.07292">
        <ele>209.22</ele>
        <time>2017-04-02T08:20:59Z</time>
      </trkpt>
      <trkpt lat="43.90779" lon="4.0729">
        <ele>208.74</ele>
        <time>2017-04-02T08:21:13Z</time>
      </trkpt>
      <trkpt lat="43.90791" lon="4.07288">
        <ele>207.3</ele>
        <time>2017-04-02T08:21:25Z</time>
      </trkpt>
      <trkpt lat="43.90804" lon="4.07285">
        <ele>205.38</ele>
        <time>2017-04-02T08:21:36Z</time>
      </trkpt>
      <trkpt lat="43.90814" lon="4.0728">
        <ele>205.86</ele>
        <time>2017-04-02T08:21:48Z</time>
      </trkpt>
      <trkpt lat="43.90827" lon="4.07275">
        <ele>206.34</ele>
        <time>2017-04-02T08:22:01Z</time>
      </trkpt>
      <trkpt lat="43.90842" lon="4.07272">
        <ele>207.78</ele>
        <time>2017-04-02T08:22:16Z</time>
      </trkpt>
      <trkpt lat="43.90854" lon="4.07267">
        <ele>210.19</ele>
        <time>2017-04-02T08:22:29Z</time>
      </trkpt>
      <trkpt lat="43.90869" lon="4.07264">
        <ele>213.55</ele>
        <time>2017-04-02T08:22:46Z</time>
      </trkpt>
      <trkpt lat="43.90879" lon="4.07256">
        <ele>218.36</ele>
        <time>2017-04-02T08:23:03Z</time>
      </trkpt>
      <trkpt lat="43.90891" lon="4.0725">
        <ele>215.47</ele>
        <time>2017-04-02T08:23:17Z</time>
      </trkpt>
      <trkpt lat="43.90904" lon="4.07243">
        <ele>214.03</ele>
        <time>2017-04-02T08:23:31Z</time>
      </trkpt>
      <trkpt lat="43.90913" lon="4.07233">
        <ele>212.59</ele>
        <time>2017-04-02T08:23:45Z</time>
      </trkpt>
      <trkpt lat="43.90918" lon="4.07226">
        <ele>212.59</ele>
        <time>2017-04-02T08:24:25Z</time>
      </trkpt>
      <trkpt lat="43.90927" lon="4.07215">
        <ele>211.15</ele>
        <time>2017-04-02T08:24:37Z</time>
      </trkpt>
      <trkpt lat="43.9093" lon="4.07201">
        <ele>209.7</ele>
        <time>2017-04-02T08:24:50Z</time>
      </trkpt>
      <trkpt lat="43.90934" lon="4.07185">
        <ele>207.78</ele>
        <time>2017-04-02T08:25:02Z</time>
      </trkpt>
      <trkpt lat="43.90938" lon="4.07168">
        <ele>206.82</ele>
        <time>2017-04-02T08:25:17Z</time>
      </trkpt>
      <trkpt lat="43.90942" lon="4.07151">
        <ele>205.38</ele>
        <time>2017-04-02T08:25:29Z</time>
      </trkpt>
      <trkpt lat="43.90948" lon="4.07136">
        <ele>203.46</ele>
        <time>2017-04-02T08:25:39Z</time>
      </trkpt>
      <trkpt lat="43.9095" lon="4.07122">
        <ele>198.65</ele>
        <time>2017-04-02T08:25:52Z</time>
      </trkpt>
      <trkpt lat="43.90956" lon="4.07107">
        <ele>195.77</ele>
        <time>2017-04-02T08:26:09Z</time>
      </trkpt>
      <trkpt lat="43.90961" lon="4.07091">
        <ele>191.44</ele>
        <time>2017-04-02T08:26:26Z</time>
      </trkpt>
      <trkpt lat="43.90969" lon="4.07082">
        <ele>190.48</ele>
        <time>2017-04-02T08:26:37Z</time>
      </trkpt>
      <trkpt lat="43.90977" lon="4.07072">
        <ele>190</ele>
        <time>2017-04-02T08:26:49Z</time>
      </trkpt>
      <trkpt lat="43.90984" lon="4.07062">
        <ele>188.56</ele>
        <time>2017-04-02T08:27:02Z</time>
      </trkpt>
      <trkpt lat="43.90995" lon="4.07054">
        <ele>187.59</ele>
        <time>2017-04-02T08:27:19Z</time>
      </trkpt>
      <trkpt lat="43.91007" lon="4.07054">
        <ele>185.19</ele>
        <time>2017-04-02T08:27:44Z</time>
      </trkpt>
      <trkpt lat="43.91021" lon="4.07057">
        <ele>182.31</ele>
        <time>2017-04-02T08:28:06Z</time>
      </trkpt>
      <trkpt lat="43.91034" lon="4.0706">
        <ele>178.46</ele>
        <time>2017-04-02T08:28:23Z</time>
      </trkpt>
      <trkpt lat="43.91045" lon="4.07055">
        <ele>173.66</ele>
        <time>2017-04-02T08:28:36Z</time>
      </trkpt>
      <trkpt lat="43.91055" lon="4.0705">
        <ele>170.29</ele>
        <time>2017-04-02T08:28:49Z</time>
      </trkpt>
      <trkpt lat="43.91066" lon="4.07056">
        <ele>168.37</ele>
        <time>2017-04-02T08:29:02Z</time>
      </trkpt>
      <trkpt lat="43.91068" lon="4.07072">
        <ele>166.45</ele>
        <time>2017-04-02T08:29:15Z</time>
      </trkpt>
      <trkpt lat="43.91071" lon="4.07084">
        <ele>167.41</ele>
        <time>2017-04-02T08:29:25Z</time>
      </trkpt>
      <trkpt lat="43.9107" lon="4.07087">
        <ele>165.96</ele>
        <time>2017-04-02T08:30:04Z</time>
      </trkpt>
      <trkpt lat="43.91067" lon="4.07097">
        <ele>162.12</ele>
        <time>2017-04-02T08:30:36Z</time>
      </trkpt>
      <trkpt lat="43.91064" lon="4.0711">
        <ele>164.04</ele>
        <time>2017-04-02T08:30:47Z</time>
      </trkpt>
      <trkpt lat="43.91064" lon="4.07123">
        <ele>166.45</ele>
        <time>2017-04-02T08:30:57Z</time>
      </trkpt>
      <trkpt lat="43.91065" lon="4.07135">
        <ele>168.85</ele>
        <time>2017-04-02T08:31:07Z</time>
      </trkpt>
      <trkpt lat="43.91065" lon="4.07148">
        <ele>169.81</ele>
        <time>2017-04-02T08:31:17Z</time>
      </trkpt>
      <trkpt lat="43.91065" lon="4.07162">
        <ele>169.33</ele>
        <time>2017-04-02T08:31:27Z</time>
      </trkpt>
      <trkpt lat="43.91068" lon="4.07174">
        <ele>167.89</ele>
        <time>2017-04-02T08:31:36Z</time>
      </trkpt>
      <trkpt lat="43.91073" lon="4.07182">
        <ele>166.45</ele>
        <time>2017-04-02T08:31:46Z</time>
      </trkpt>
      <trkpt lat="43.91081" lon="4.07188">
        <ele>166.45</ele>
        <time>2017-04-02T08:31:56Z</time>
      </trkpt>
      <trkpt lat="43.9109" lon="4.07185">
        <ele>167.41</ele>
        <time>2017-04-02T08:32:06Z</time>
      </trkpt>
      <trkpt lat="43.91098" lon="4.07181">
        <ele>167.89</ele>
        <time>2017-04-02T08:32:17Z</time>
      </trkpt>
      <trkpt lat="43.91107" lon="4.07174">
        <ele>167.41</ele>
        <time>2017-04-02T08:32:27Z</time>
      </trkpt>
      <trkpt lat="43.91117" lon="4.07168">
        <ele>165.96</ele>
        <time>2017-04-02T08:32:38Z</time>
      </trkpt>
      <trkpt lat="43.91127" lon="4.07161">
        <ele>163.08</ele>
        <time>2017-04-02T08:32:47Z</time>
      </trkpt>
      <trkpt lat="43.91136" lon="4.07156">
        <ele>162.12</ele>
        <time>2017-04-02T08:32:56Z</time>
      </trkpt>
      <trkpt lat="43.91147" lon="4.07153">
        <ele>160.68</ele>
        <time>2017-04-02T08:33:05Z</time>
      </trkpt>
      <trkpt lat="43.91157" lon="4.07151">
        <ele>159.72</ele>
        <time>2017-04-02T08:33:14Z</time>
      </trkpt>
      <trkpt lat="43.91166" lon="4.0715">
        <ele>160.2</ele>
        <time>2017-04-02T08:33:26Z</time>
      </trkpt>
      <trkpt lat="43.91177" lon="4.07149">
        <ele>165</ele>
        <time>2017-04-02T08:33:40Z</time>
      </trkpt>
      <trkpt lat="43.91192" lon="4.07148">
        <ele>168.37</ele>
        <time>2017-04-02T08:33:54Z</time>
      </trkpt>
      <trkpt lat="43.91207" lon="4.07151">
        <ele>168.37</ele>
        <time>2017-04-02T08:34:05Z</time>
      </trkpt>
      <trkpt lat="43.9122" lon="4.07151">
        <ele>165</ele>
        <time>2017-04-02T08:34:15Z</time>
      </trkpt>
      <trkpt lat="43.91231" lon="4.07154">
        <ele>162.12</ele>
        <time>2017-04-02T08:34:24Z</time>
      </trkpt>
      <trkpt lat="43.91242" lon="4.07155">
        <ele>159.24</ele>
        <time>2017-04-02T08:34:33Z</time>
      </trkpt>
      <trkpt lat="43.91253" lon="4.07157">
        <ele>157.79</ele>
        <time>2017-04-02T08:34:42Z</time>
      </trkpt>
      <trkpt lat="43.91263" lon="4.07157">
        <ele>156.83</ele>
        <time>2017-04-02T08:34:51Z</time>
      </trkpt>
      <trkpt lat="43.91273" lon="4.07157">
        <ele>155.39</ele>
        <time>2017-04-02T08:35:00Z</time>
      </trkpt>
      <trkpt lat="43.91284" lon="4.07157">
        <ele>154.43</ele>
        <time>2017-04-02T08:35:10Z</time>
      </trkpt>
      <trkpt lat="43.91294" lon="4.07158">
        <ele>154.43</ele>
        <time>2017-04-02T08:35:19Z</time>
      </trkpt>
      <trkpt lat="43.91304" lon="4.07158">
        <ele>153.95</ele>
        <time>2017-04-02T08:35:28Z</time>
      </trkpt>
      <trkpt lat="43.91314" lon="4.07158">
        <ele>153.47</ele>
        <time>2017-04-02T08:35:37Z</time>
      </trkpt>
      <trkpt lat="43.91324" lon="4.07157">
        <ele>153.47</ele>
        <time>2017-04-02T08:35:46Z</time>
      </trkpt>
      <trkpt lat="43.91334" lon="4.07157">
        <ele>152.99</ele>
        <time>2017-04-02T08:35:55Z</time>
      </trkpt>
      <trkpt lat="43.91344" lon="4.07157">
        <ele>152.99</ele>
        <time>2017-04-02T08:36:04Z</time>
      </trkpt>
      <trkpt lat="43.91353" lon="4.07157">
        <ele>152.99</ele>
        <time>2017-04-02T08:36:13Z</time>
      </trkpt>
      <trkpt lat="43.91364" lon="4.07156">
        <ele>152.51</ele>
        <time>2017-04-02T08:36:22Z</time>
      </trkpt>
      <trkpt lat="43.91374" lon="4.07157">
        <ele>153.47</ele>
        <time>2017-04-02T08:36:31Z</time>
      </trkpt>
      <trkpt lat="43.91384" lon="4.07156">
        <ele>153.95</ele>
        <time>2017-04-02T08:36:40Z</time>
      </trkpt>
      <trkpt lat="43.91394" lon="4.07156">
        <ele>153.47</ele>
        <time>2017-04-02T08:36:49Z</time>
      </trkpt>
      <trkpt lat="43.91403" lon="4.07157">
        <ele>152.99</ele>
        <time>2017-04-02T08:36:58Z</time>
      </trkpt>
      <trkpt lat="43.91413" lon="4.07159">
        <ele>153.47</ele>
        <time>2017-04-02T08:37:07Z</time>
      </trkpt>
      <trkpt lat="43.91422" lon="4.0716">
        <ele>153.47</ele>
        <time>2017-04-02T08:37:16Z</time>
      </trkpt>
      <trkpt lat="43.91432" lon="4.07161">
        <ele>152.99</ele>
        <time>2017-04-02T08:37:25Z</time>
      </trkpt>
      <trkpt lat="43.91443" lon="4.07165">
        <ele>152.99</ele>
        <time>2017-04-02T08:37:35Z</time>
      </trkpt>
      <trkpt lat="43.91452" lon="4.07166">
        <ele>152.99</ele>
        <time>2017-04-02T08:37:44Z</time>
      </trkpt>
      <trkpt lat="43.91462" lon="4.07167">
        <ele>152.99</ele>
        <time>2017-04-02T08:37:53Z</time>
      </trkpt>
      <trkpt lat="43.91472" lon="4.0717">
        <ele>152.99</ele>
        <time>2017-04-02T08:38:06Z</time>
      </trkpt>
      <trkpt lat="43.91481" lon="4.07171">
        <ele>152.99</ele>
        <time>2017-04-02T08:38:14Z</time>
      </trkpt>
      <trkpt lat="43.91491" lon="4.07172">
        <ele>152.99</ele>
        <time>2017-04-02T08:38:22Z</time>
      </trkpt>
      <trkpt lat="43.91501" lon="4.07174">
        <ele>152.99</ele>
        <time>2017-04-02T08:38:30Z</time>
      </trkpt>
      <trkpt lat="43.9151" lon="4.07175">
        <ele>153.47</ele>
        <time>2017-04-02T08:38:39Z</time>
      </trkpt>
      <trkpt lat="43.9152" lon="4.07177">
        <ele>153.47</ele>
        <time>2017-04-02T08:38:49Z</time>
      </trkpt>
      <trkpt lat="43.9153" lon="4.07179">
        <ele>152.99</ele>
        <time>2017-04-02T08:38:57Z</time>
      </trkpt>
      <trkpt lat="43.91539" lon="4.0718">
        <ele>152.51</ele>
        <time>2017-04-02T08:39:06Z</time>
      </trkpt>
      <trkpt lat="43.91549" lon="4.07181">
        <ele>152.99</ele>
        <time>2017-04-02T08:39:15Z</time>
      </trkpt>
      <trkpt lat="43.91558" lon="4.07183">
        <ele>153.47</ele>
        <time>2017-04-02T08:39:23Z</time>
      </trkpt>
      <trkpt lat="43.91568" lon="4.07186">
        <ele>153.47</ele>
        <time>2017-04-02T08:39:32Z</time>
      </trkpt>
      <trkpt lat="43.91578" lon="4.07187">
        <ele>153.47</ele>
        <time>2017-04-02T08:39:41Z</time>
      </trkpt>
      <trkpt lat="43.91588" lon="4.07188">
        <ele>153.95</ele>
        <time>2017-04-02T08:39:50Z</time>
      </trkpt>
      <trkpt lat="43.91599" lon="4.07189">
        <ele>153.47</ele>
        <time>2017-04-02T08:39:59Z</time>
      </trkpt>
      <trkpt lat="43.91608" lon="4.0719">
        <ele>153.47</ele>
        <time>2017-04-02T08:40:07Z</time>
      </trkpt>
      <trkpt lat="43.91618" lon="4.07192">
        <ele>152.99</ele>
        <time>2017-04-02T08:40:16Z</time>
      </trkpt>
      <trkpt lat="43.91628" lon="4.07194">
        <ele>152.99</ele>
        <time>2017-04-02T08:40:25Z</time>
      </trkpt>
      <trkpt lat="43.91638" lon="4.07194">
        <ele>152.99</ele>
        <time>2017-04-02T08:40:34Z</time>
      </trkpt>
      <trkpt lat="43.91648" lon="4.07196">
        <ele>153.47</ele>
        <time>2017-04-02T08:40:43Z</time>
      </trkpt>
      <trkpt lat="43.91657" lon="4.07196">
        <ele>152.99</ele>
        <time>2017-04-02T08:40:52Z</time>
      </trkpt>
      <trkpt lat="43.91667" lon="4.07197">
        <ele>152.99</ele>
        <time>2017-04-02T08:41:01Z</time>
      </trkpt>
      <trkpt lat="43.91678" lon="4.07196">
        <ele>153.47</ele>
        <time>2017-04-02T08:41:11Z</time>
      </trkpt>
      <trkpt lat="43.91687" lon="4.07195">
        <ele>152.99</ele>
        <time>2017-04-02T08:41:20Z</time>
      </trkpt>
      <trkpt lat="43.91697" lon="4.07195">
        <ele>152.99</ele>
        <time>2017-04-02T08:41:30Z</time>
      </trkpt>
      <trkpt lat="43.91706" lon="4.07195">
        <ele>153.95</ele>
        <time>2017-04-02T08:41:39Z</time>
      </trkpt>
      <trkpt lat="43.91715" lon="4.07196">
        <ele>153.95</ele>
        <time>2017-04-02T08:41:47Z</time>
      </trkpt>
      <trkpt lat="43.91724" lon="4.07195">
        <ele>154.91</ele>
        <time>2017-04-02T08:41:55Z</time>
      </trkpt>
      <trkpt lat="43.91734" lon="4.07195">
        <ele>155.39</ele>
        <time>2017-04-02T08:42:03Z</time>
      </trkpt>
      <trkpt lat="43.91744" lon="4.07195">
        <ele>154.91</ele>
        <time>2017-04-02T08:42:11Z</time>
      </trkpt>
      <trkpt lat="43.91754" lon="4.07194">
        <ele>154.91</ele>
        <time>2017-04-02T08:42:21Z</time>
      </trkpt>
      <trkpt lat="43.91766" lon="4.07192">
        <ele>154.91</ele>
        <time>2017-04-02T08:42:31Z</time>
      </trkpt>
      <trkpt lat="43.91777" lon="4.07191">
        <ele>154.91</ele>
        <time>2017-04-02T08:42:41Z</time>
      </trkpt>
      <trkpt lat="43.91788" lon="4.07189">
        <ele>155.87</ele>
        <time>2017-04-02T08:42:52Z</time>
      </trkpt>
      <trkpt lat="43.918" lon="4.07188">
        <ele>155.87</ele>
        <time>2017-04-02T08:43:02Z</time>
      </trkpt>
      <trkpt lat="43.91811" lon="4.07187">
        <ele>155.87</ele>
        <time>2017-04-02T08:43:12Z</time>
      </trkpt>
      <trkpt lat="43.91823" lon="4.07186">
        <ele>155.39</ele>
        <time>2017-04-02T08:43:21Z</time>
      </trkpt>
      <trkpt lat="43.91833" lon="4.07185">
        <ele>153.47</ele>
        <time>2017-04-02T08:43:30Z</time>
      </trkpt>
      <trkpt lat="43.91844" lon="4.07187">
        <ele>153.95</ele>
        <time>2017-04-02T08:43:40Z</time>
      </trkpt>
      <trkpt lat="43.91855" lon="4.07186">
        <ele>153.95</ele>
        <time>2017-04-02T08:43:50Z</time>
      </trkpt>
      <trkpt lat="43.91868" lon="4.07186">
        <ele>154.43</ele>
        <time>2017-04-02T08:44:03Z</time>
      </trkpt>
      <trkpt lat="43.91881" lon="4.07186">
        <ele>153.47</ele>
        <time>2017-04-02T08:44:14Z</time>
      </trkpt>
      <trkpt lat="43.91894" lon="4.0719">
        <ele>152.99</ele>
        <time>2017-04-02T08:44:25Z</time>
      </trkpt>
      <trkpt lat="43.91906" lon="4.07193">
        <ele>152.51</ele>
        <time>2017-04-02T08:44:35Z</time>
      </trkpt>
      <trkpt lat="43.91917" lon="4.07199">
        <ele>154.43</ele>
        <time>2017-04-02T08:44:45Z</time>
      </trkpt>
      <trkpt lat="43.91927" lon="4.07206">
        <ele>155.39</ele>
        <time>2017-04-02T08:44:55Z</time>
      </trkpt>
      <trkpt lat="43.91937" lon="4.07212">
        <ele>157.31</ele>
        <time>2017-04-02T08:45:08Z</time>
      </trkpt>
      <trkpt lat="43.91948" lon="4.07217">
        <ele>157.31</ele>
        <time>2017-04-02T08:45:18Z</time>
      </trkpt>
      <trkpt lat="43.91958" lon="4.07222">
        <ele>157.31</ele>
        <time>2017-04-02T08:45:29Z</time>
      </trkpt>
      <trkpt lat="43.91967" lon="4.07229">
        <ele>157.79</ele>
        <time>2017-04-02T08:45:38Z</time>
      </trkpt>
      <trkpt lat="43.91976" lon="4.07236">
        <ele>157.31</ele>
        <time>2017-04-02T08:45:48Z</time>
      </trkpt>
      <trkpt lat="43.91986" lon="4.07242">
        <ele>156.83</ele>
        <time>2017-04-02T08:45:59Z</time>
      </trkpt>
      <trkpt lat="43.91996" lon="4.07248">
        <ele>156.83</ele>
        <time>2017-04-02T08:46:10Z</time>
      </trkpt>
      <trkpt lat="43.92006" lon="4.07254">
        <ele>156.83</ele>
        <time>2017-04-02T08:46:19Z</time>
      </trkpt>
      <trkpt lat="43.92017" lon="4.07264">
        <ele>157.79</ele>
        <time>2017-04-02T08:46:29Z</time>
      </trkpt>
      <trkpt lat="43.92024" lon="4.07274">
        <ele>158.27</ele>
        <time>2017-04-02T08:46:38Z</time>
      </trkpt>
      <trkpt lat="43.92032" lon="4.07285">
        <ele>160.68</ele>
        <time>2017-04-02T08:46:47Z</time>
      </trkpt>
      <trkpt lat="43.92038" lon="4.07298">
        <ele>160.2</ele>
        <time>2017-04-02T08:46:57Z</time>
      </trkpt>
      <trkpt lat="43.92045" lon="4.0731">
        <ele>160.68</ele>
        <time>2017-04-02T08:47:07Z</time>
      </trkpt>
      <trkpt lat="43.9205" lon="4.07321">
        <ele>160.68</ele>
        <time>2017-04-02T08:47:17Z</time>
      </trkpt>
      <trkpt lat="43.92056" lon="4.07335">
        <ele>161.16</ele>
        <time>2017-04-02T08:47:26Z</time>
      </trkpt>
      <trkpt lat="43.92064" lon="4.07348">
        <ele>160.68</ele>
        <time>2017-04-02T08:47:35Z</time>
      </trkpt>
      <trkpt lat="43.92068" lon="4.07364">
        <ele>158.27</ele>
        <time>2017-04-02T08:47:43Z</time>
      </trkpt>
      <trkpt lat="43.92074" lon="4.07379">
        <ele>154.43</ele>
        <time>2017-04-02T08:47:53Z</time>
      </trkpt>
      <trkpt lat="43.92081" lon="4.0739">
        <ele>152.03</ele>
        <time>2017-04-02T08:48:03Z</time>
      </trkpt>
      <trkpt lat="43.92089" lon="4.07397">
        <ele>151.54</ele>
        <time>2017-04-02T08:48:13Z</time>
      </trkpt>
      <trkpt lat="43.92099" lon="4.07406">
        <ele>148.66</ele>
        <time>2017-04-02T08:48:22Z</time>
      </trkpt>
      <trkpt lat="43.92108" lon="4.07413">
        <ele>147.22</ele>
        <time>2017-04-02T08:48:31Z</time>
      </trkpt>
      <trkpt lat="43.92115" lon="4.07423">
        <ele>146.26</ele>
        <time>2017-04-02T08:48:39Z</time>
      </trkpt>
      <trkpt lat="43.92123" lon="4.07429">
        <ele>145.3</ele>
        <time>2017-04-02T08:48:47Z</time>
      </trkpt>
      <trkpt lat="43.92131" lon="4.07432">
        <ele>144.82</ele>
        <time>2017-04-02T08:48:56Z</time>
      </trkpt>
      <trkpt lat="43.9214" lon="4.07433">
        <ele>144.82</ele>
        <time>2017-04-02T08:49:05Z</time>
      </trkpt>
      <trkpt lat="43.9215" lon="4.07435">
        <ele>145.3</ele>
        <time>2017-04-02T08:49:15Z</time>
      </trkpt>
      <trkpt lat="43.9216" lon="4.07438">
        <ele>145.3</ele>
        <time>2017-04-02T08:49:24Z</time>
      </trkpt>
      <trkpt lat="43.92171" lon="4.07443">
        <ele>143.85</ele>
        <time>2017-04-02T08:49:31Z</time>
      </trkpt>
      <trkpt lat="43.92179" lon="4.07447">
        <ele>143.85</ele>
        <time>2017-04-02T08:49:40Z</time>
      </trkpt>
      <trkpt lat="43.92189" lon="4.07451">
        <ele>144.34</ele>
        <time>2017-04-02T08:49:49Z</time>
      </trkpt>
      <trkpt lat="43.92198" lon="4.07455">
        <ele>144.34</ele>
        <time>2017-04-02T08:49:58Z</time>
      </trkpt>
      <trkpt lat="43.92207" lon="4.0746">
        <ele>144.82</ele>
        <time>2017-04-02T08:50:07Z</time>
      </trkpt>
      <trkpt lat="43.92215" lon="4.07466">
        <ele>145.3</ele>
        <time>2017-04-02T08:50:16Z</time>
      </trkpt>
      <trkpt lat="43.92224" lon="4.07473">
        <ele>145.3</ele>
        <time>2017-04-02T08:50:25Z</time>
      </trkpt>
      <trkpt lat="43.92232" lon="4.07484">
        <ele>145.3</ele>
        <time>2017-04-02T08:50:34Z</time>
      </trkpt>
      <trkpt lat="43.92238" lon="4.07495">
        <ele>145.3</ele>
        <time>2017-04-02T08:50:42Z</time>
      </trkpt>
      <trkpt lat="43.92246" lon="4.07504">
        <ele>145.78</ele>
        <time>2017-04-02T08:50:50Z</time>
      </trkpt>
      <trkpt lat="43.92251" lon="4.07514">
        <ele>146.74</ele>
        <time>2017-04-02T08:50:58Z</time>
      </trkpt>
      <trkpt lat="43.92256" lon="4.07524">
        <ele>147.22</ele>
        <time>2017-04-02T08:51:06Z</time>
      </trkpt>
      <trkpt lat="43.92262" lon="4.07535">
        <ele>147.7</ele>
        <time>2017-04-02T08:51:15Z</time>
      </trkpt>
      <trkpt lat="43.92264" lon="4.07548">
        <ele>147.7</ele>
        <time>2017-04-02T08:51:30Z</time>
      </trkpt>
      <trkpt lat="43.92266" lon="4.07562">
        <ele>147.7</ele>
        <time>2017-04-02T08:51:38Z</time>
      </trkpt>
      <trkpt lat="43.92268" lon="4.07573">
        <ele>148.18</ele>
        <time>2017-04-02T08:52:09Z</time>
      </trkpt>
      <trkpt lat="43.9227" lon="4.07586">
        <ele>147.22</ele>
        <time>2017-04-02T08:52:17Z</time>
      </trkpt>
      <trkpt lat="43.92271" lon="4.076">
        <ele>145.78</ele>
        <time>2017-04-02T08:52:26Z</time>
      </trkpt>
      <trkpt lat="43.92269" lon="4.07612">
        <ele>145.3</ele>
        <time>2017-04-02T08:52:35Z</time>
      </trkpt>
      <trkpt lat="43.92265" lon="4.07625">
        <ele>142.41</ele>
        <time>2017-04-02T08:52:45Z</time>
      </trkpt>
      <trkpt lat="43.92259" lon="4.07637">
        <ele>142.41</ele>
        <time>2017-04-02T08:52:54Z</time>
      </trkpt>
      <trkpt lat="43.92255" lon="4.07649">
        <ele>141.45</ele>
        <time>2017-04-02T08:53:03Z</time>
      </trkpt>
      <trkpt lat="43.92249" lon="4.07663">
        <ele>139.05</ele>
        <time>2017-04-02T08:53:12Z</time>
      </trkpt>
      <trkpt lat="43.92247" lon="4.07675">
        <ele>138.09</ele>
        <time>2017-04-02T08:53:20Z</time>
      </trkpt>
      <trkpt lat="43.92247" lon="4.07688">
        <ele>138.57</ele>
        <time>2017-04-02T08:53:30Z</time>
      </trkpt>
      <trkpt lat="43.9225" lon="4.07701">
        <ele>140.49</ele>
        <time>2017-04-02T08:53:41Z</time>
      </trkpt>
      <trkpt lat="43.92254" lon="4.07714">
        <ele>142.41</ele>
        <time>2017-04-02T08:53:51Z</time>
      </trkpt>
      <trkpt lat="43.92257" lon="4.07728">
        <ele>141.93</ele>
        <time>2017-04-02T08:54:01Z</time>
      </trkpt>
      <trkpt lat="43.9226" lon="4.07741">
        <ele>141.45</ele>
        <time>2017-04-02T08:54:12Z</time>
      </trkpt>
      <trkpt lat="43.92265" lon="4.07754">
        <ele>142.41</ele>
        <time>2017-04-02T08:54:20Z</time>
      </trkpt>
      <trkpt lat="43.9227" lon="4.07766">
        <ele>141.93</ele>
        <time>2017-04-02T08:54:29Z</time>
      </trkpt>
      <trkpt lat="43.92275" lon="4.07779">
        <ele>142.41</ele>
        <time>2017-04-02T08:54:38Z</time>
      </trkpt>
      <trkpt lat="43.9228" lon="4.0779">
        <ele>143.85</ele>
        <time>2017-04-02T08:54:48Z</time>
      </trkpt>
      <trkpt lat="43.92286" lon="4.07801">
        <ele>144.34</ele>
        <time>2017-04-02T08:54:57Z</time>
      </trkpt>
      <trkpt lat="43.92293" lon="4.07812">
        <ele>143.85</ele>
        <time>2017-04-02T08:55:06Z</time>
      </trkpt>
      <trkpt lat="43.92298" lon="4.07826">
        <ele>144.34</ele>
        <time>2017-04-02T08:55:16Z</time>
      </trkpt>
      <trkpt lat="43.923" lon="4.0784">
        <ele>142.89</ele>
        <time>2017-04-02T08:55:26Z</time>
      </trkpt>
      <trkpt lat="43.92303" lon="4.07854">
        <ele>142.41</ele>
        <time>2017-04-02T08:55:35Z</time>
      </trkpt>
      <trkpt lat="43.92305" lon="4.07867">
        <ele>142.89</ele>
        <time>2017-04-02T08:55:46Z</time>
      </trkpt>
      <trkpt lat="43.92309" lon="4.07883">
        <ele>145.78</ele>
        <time>2017-04-02T08:55:55Z</time>
      </trkpt>
      <trkpt lat="43.92309" lon="4.07898">
        <ele>145.3</ele>
        <time>2017-04-02T08:56:04Z</time>
      </trkpt>
      <trkpt lat="43.92305" lon="4.07914">
        <ele>143.37</ele>
        <time>2017-04-02T08:56:14Z</time>
      </trkpt>
      <trkpt lat="43.92301" lon="4.07929">
        <ele>141.45</ele>
        <time>2017-04-02T08:56:24Z</time>
      </trkpt>
      <trkpt lat="43.92296" lon="4.07941">
        <ele>140.01</ele>
        <time>2017-04-02T08:56:33Z</time>
      </trkpt>
      <trkpt lat="43.92298" lon="4.07949">
        <ele>140.97</ele>
        <time>2017-04-02T08:56:43Z</time>
      </trkpt>
      <trkpt lat="43.92297" lon="4.07954">
        <ele>137.13</ele>
        <time>2017-04-02T08:57:37Z</time>
      </trkpt>
      <trkpt lat="43.92291" lon="4.07966">
        <ele>135.68</ele>
        <time>2017-04-02T08:57:45Z</time>
      </trkpt>
      <trkpt lat="43.92287" lon="4.0798">
        <ele>131.84</ele>
        <time>2017-04-02T08:57:52Z</time>
      </trkpt>
      <trkpt lat="43.92283" lon="4.07994">
        <ele>129.92</ele>
        <time>2017-04-02T08:57:59Z</time>
      </trkpt>
      <trkpt lat="43.92283" lon="4.08009">
        <ele>128.95</ele>
        <time>2017-04-02T08:58:07Z</time>
      </trkpt>
      <trkpt lat="43.92283" lon="4.08022">
        <ele>128.95</ele>
        <time>2017-04-02T08:58:14Z</time>
      </trkpt>
      <trkpt lat="43.92281" lon="4.08035">
        <ele>127.99</ele>
        <time>2017-04-02T08:58:21Z</time>
      </trkpt>
      <trkpt lat="43.9228" lon="4.08049">
        <ele>130.4</ele>
        <time>2017-04-02T08:58:29Z</time>
      </trkpt>
      <trkpt lat="43.92279" lon="4.08065">
        <ele>129.43</ele>
        <time>2017-04-02T08:58:37Z</time>
      </trkpt>
      <trkpt lat="43.92279" lon="4.08079">
        <ele>128.95</ele>
        <time>2017-04-02T08:58:45Z</time>
      </trkpt>
      <trkpt lat="43.92277" lon="4.08094">
        <ele>130.4</ele>
        <time>2017-04-02T08:58:54Z</time>
      </trkpt>
      <trkpt lat="43.92278" lon="4.08109">
        <ele>131.84</ele>
        <time>2017-04-02T08:59:02Z</time>
      </trkpt>
      <trkpt lat="43.92282" lon="4.08124">
        <ele>132.32</ele>
        <time>2017-04-02T08:59:14Z</time>
      </trkpt>
      <trkpt lat="43.9229" lon="4.08139">
        <ele>133.76</ele>
        <time>2017-04-02T08:59:23Z</time>
      </trkpt>
      <trkpt lat="43.92297" lon="4.08152">
        <ele>134.72</ele>
        <time>2017-04-02T08:59:31Z</time>
      </trkpt>
      <trkpt lat="43.92304" lon="4.08162">
        <ele>135.2</ele>
        <time>2017-04-02T08:59:39Z</time>
      </trkpt>
      <trkpt lat="43.92311" lon="4.08174">
        <ele>135.68</ele>
        <time>2017-04-02T08:59:47Z</time>
      </trkpt>
      <trkpt lat="43.92319" lon="4.08188">
        <ele>135.2</ele>
        <time>2017-04-02T08:59:55Z</time>
      </trkpt>
      <trkpt lat="43.92327" lon="4.08198">
        <ele>134.72</ele>
        <time>2017-04-02T09:00:03Z</time>
      </trkpt>
      <trkpt lat="43.92333" lon="4.08207">
        <ele>133.28</ele>
        <time>2017-04-02T09:00:11Z</time>
      </trkpt>
      <trkpt lat="43.92341" lon="4.08216">
        <ele>131.84</ele>
        <time>2017-04-02T09:00:20Z</time>
      </trkpt>
      <trkpt lat="43.92349" lon="4.08226">
        <ele>132.32</ele>
        <time>2017-04-02T09:00:29Z</time>
      </trkpt>
      <trkpt lat="43.92357" lon="4.08238">
        <ele>133.76</ele>
        <time>2017-04-02T09:00:40Z</time>
      </trkpt>
      <trkpt lat="43.92369" lon="4.0825">
        <ele>132.8</ele>
        <time>2017-04-02T09:00:50Z</time>
      </trkpt>
      <trkpt lat="43.92378" lon="4.08261">
        <ele>132.8</ele>
        <time>2017-04-02T09:01:01Z</time>
      </trkpt>
      <trkpt lat="43.92386" lon="4.08273">
        <ele>132.32</ele>
        <time>2017-04-02T09:01:10Z</time>
      </trkpt>
      <trkpt lat="43.92394" lon="4.08285">
        <ele>132.32</ele>
        <time>2017-04-02T09:01:18Z</time>
      </trkpt>
      <trkpt lat="43.92401" lon="4.08298">
        <ele>133.28</ele>
        <time>2017-04-02T09:01:27Z</time>
      </trkpt>
      <trkpt lat="43.92406" lon="4.08312">
        <ele>135.68</ele>
        <time>2017-04-02T09:01:37Z</time>
      </trkpt>
      <trkpt lat="43.92411" lon="4.08329">
        <ele>136.16</ele>
        <time>2017-04-02T09:01:47Z</time>
      </trkpt>
      <trkpt lat="43.92413" lon="4.08343">
        <ele>135.2</ele>
        <time>2017-04-02T09:01:56Z</time>
      </trkpt>
      <trkpt lat="43.92414" lon="4.08358">
        <ele>134.24</ele>
        <time>2017-04-02T09:02:05Z</time>
      </trkpt>
      <trkpt lat="43.92413" lon="4.08374">
        <ele>131.84</ele>
        <time>2017-04-02T09:02:14Z</time>
      </trkpt>
      <trkpt lat="43.92413" lon="4.08388">
        <ele>131.84</ele>
        <time>2017-04-02T09:02:22Z</time>
      </trkpt>
      <trkpt lat="43.92411" lon="4.08402">
        <ele>130.4</ele>
        <time>2017-04-02T09:02:31Z</time>
      </trkpt>
      <trkpt lat="43.9241" lon="4.08416">
        <ele>127.51</ele>
        <time>2017-04-02T09:02:40Z</time>
      </trkpt>
      <trkpt lat="43.92408" lon="4.08428">
        <ele>126.55</ele>
        <time>2017-04-02T09:02:50Z</time>
      </trkpt>
      <trkpt lat="43.92402" lon="4.08439">
        <ele>124.63</ele>
        <time>2017-04-02T09:03:00Z</time>
      </trkpt>
      <trkpt lat="43.92397" lon="4.08453">
        <ele>125.11</ele>
        <time>2017-04-02T09:03:15Z</time>
      </trkpt>
      <trkpt lat="43.92392" lon="4.08466">
        <ele>124.63</ele>
        <time>2017-04-02T09:03:24Z</time>
      </trkpt>
      <trkpt lat="43.92386" lon="4.08478">
        <ele>122.71</ele>
        <time>2017-04-02T09:03:32Z</time>
      </trkpt>
      <trkpt lat="43.92384" lon="4.0849">
        <ele>122.22</ele>
        <time>2017-04-02T09:03:40Z</time>
      </trkpt>
      <trkpt lat="43.92384" lon="4.08503">
        <ele>122.71</ele>
        <time>2017-04-02T09:03:48Z</time>
      </trkpt>
      <trkpt lat="43.92387" lon="4.08515">
        <ele>122.71</ele>
        <time>2017-04-02T09:03:56Z</time>
      </trkpt>
      <trkpt lat="43.92393" lon="4.08525">
        <ele>123.67</ele>
        <time>2017-04-02T09:04:04Z</time>
      </trkpt>
      <trkpt lat="43.92401" lon="4.0853">
        <ele>124.63</ele>
        <time>2017-04-02T09:04:13Z</time>
      </trkpt>
      <trkpt lat="43.92403" lon="4.08537">
        <ele>124.15</ele>
        <time>2017-04-02T09:04:32Z</time>
      </trkpt>
      <trkpt lat="43.92405" lon="4.08529">
        <ele>125.11</ele>
        <time>2017-04-02T09:05:10Z</time>
      </trkpt>
      <trkpt lat="43.92413" lon="4.08541">
        <ele>122.71</ele>
        <time>2017-04-02T09:06:13Z</time>
      </trkpt>
      <trkpt lat="43.92423" lon="4.0855">
        <ele>122.22</ele>
        <time>2017-04-02T09:06:21Z</time>
      </trkpt>
      <trkpt lat="43.92431" lon="4.08561">
        <ele>121.26</ele>
        <time>2017-04-02T09:06:31Z</time>
      </trkpt>
      <trkpt lat="43.92441" lon="4.0857">
        <ele>121.26</ele>
        <time>2017-04-02T09:06:40Z</time>
      </trkpt>
      <trkpt lat="43.9245" lon="4.08578">
        <ele>121.26</ele>
        <time>2017-04-02T09:06:49Z</time>
      </trkpt>
      <trkpt lat="43.9246" lon="4.08586">
        <ele>120.78</ele>
        <time>2017-04-02T09:06:57Z</time>
      </trkpt>
      <trkpt lat="43.92468" lon="4.08594">
        <ele>120.3</ele>
        <time>2017-04-02T09:07:06Z</time>
      </trkpt>
      <trkpt lat="43.92477" lon="4.08605">
        <ele>122.22</ele>
        <time>2017-04-02T09:07:16Z</time>
      </trkpt>
      <trkpt lat="43.92486" lon="4.08617">
        <ele>121.26</ele>
        <time>2017-04-02T09:07:25Z</time>
      </trkpt>
      <trkpt lat="43.92493" lon="4.08631">
        <ele>119.34</ele>
        <time>2017-04-02T09:07:35Z</time>
      </trkpt>
      <trkpt lat="43.92501" lon="4.08645">
        <ele>118.38</ele>
        <time>2017-04-02T09:07:47Z</time>
      </trkpt>
      <trkpt lat="43.92505" lon="4.08662">
        <ele>117.9</ele>
        <time>2017-04-02T09:08:00Z</time>
      </trkpt>
      <trkpt lat="43.9251" lon="4.08682">
        <ele>119.34</ele>
        <time>2017-04-02T09:08:14Z</time>
      </trkpt>
      <trkpt lat="43.92516" lon="4.08699">
        <ele>118.38</ele>
        <time>2017-04-02T09:08:29Z</time>
      </trkpt>
      <trkpt lat="43.92517" lon="4.08716">
        <ele>117.42</ele>
        <time>2017-04-02T09:08:42Z</time>
      </trkpt>
      <trkpt lat="43.92514" lon="4.08737">
        <ele>117.42</ele>
        <time>2017-04-02T09:08:54Z</time>
      </trkpt>
      <trkpt lat="43.92515" lon="4.08755">
        <ele>116.46</ele>
        <time>2017-04-02T09:09:10Z</time>
      </trkpt>
      <trkpt lat="43.92515" lon="4.08781">
        <ele>116.46</ele>
        <time>2017-04-02T09:09:26Z</time>
      </trkpt>
      <trkpt lat="43.92517" lon="4.08799">
        <ele>116.46</ele>
        <time>2017-04-02T09:09:39Z</time>
      </trkpt>
      <trkpt lat="43.92519" lon="4.08815">
        <ele>118.38</ele>
        <time>2017-04-02T09:09:51Z</time>
      </trkpt>
      <trkpt lat="43.92524" lon="4.08831">
        <ele>116.94</ele>
        <time>2017-04-02T09:10:02Z</time>
      </trkpt>
      <trkpt lat="43.92528" lon="4.08853">
        <ele>114.53</ele>
        <time>2017-04-02T09:10:18Z</time>
      </trkpt>
      <trkpt lat="43.9253" lon="4.08873">
        <ele>112.13</ele>
        <time>2017-04-02T09:10:30Z</time>
      </trkpt>
      <trkpt lat="43.92532" lon="4.08891">
        <ele>112.61</ele>
        <time>2017-04-02T09:10:40Z</time>
      </trkpt>
      <trkpt lat="43.92534" lon="4.08907">
        <ele>114.05</ele>
        <time>2017-04-02T09:10:49Z</time>
      </trkpt>
      <trkpt lat="43.92536" lon="4.08921">
        <ele>113.09</ele>
        <time>2017-04-02T09:10:58Z</time>
      </trkpt>
      <trkpt lat="43.92528" lon="4.08932">
        <ele>106.36</ele>
        <time>2017-04-02T09:11:14Z</time>
      </trkpt>
      <trkpt lat="43.9252" lon="4.08944">
        <ele>105.4</ele>
        <time>2017-04-02T09:11:24Z</time>
      </trkpt>
      <trkpt lat="43.92511" lon="4.08954">
        <ele>103.96</ele>
        <time>2017-04-02T09:11:34Z</time>
      </trkpt>
      <trkpt lat="43.92505" lon="4.08968">
        <ele>105.4</ele>
        <time>2017-04-02T09:11:43Z</time>
      </trkpt>
      <trkpt lat="43.92501" lon="4.08985">
        <ele>107.32</ele>
        <time>2017-04-02T09:11:52Z</time>
      </trkpt>
      <trkpt lat="43.92495" lon="4.08999">
        <ele>108.77</ele>
        <time>2017-04-02T09:12:04Z</time>
      </trkpt>
      <trkpt lat="43.92484" lon="4.08998">
        <ele>111.17</ele>
        <time>2017-04-02T09:12:15Z</time>
      </trkpt>
      <trkpt lat="43.92475" lon="4.08999">
        <ele>111.17</ele>
        <time>2017-04-02T09:12:24Z</time>
      </trkpt>
      <trkpt lat="43.92465" lon="4.08998">
        <ele>110.21</ele>
        <time>2017-04-02T09:12:33Z</time>
      </trkpt>
      <trkpt lat="43.92455" lon="4.09001">
        <ele>110.21</ele>
        <time>2017-04-02T09:12:43Z</time>
      </trkpt>
      <trkpt lat="43.92444" lon="4.09003">
        <ele>108.77</ele>
        <time>2017-04-02T09:12:52Z</time>
      </trkpt>
      <trkpt lat="43.92435" lon="4.09004">
        <ele>108.77</ele>
        <time>2017-04-02T09:13:01Z</time>
      </trkpt>
      <trkpt lat="43.92425" lon="4.09006">
        <ele>108.77</ele>
        <time>2017-04-02T09:13:10Z</time>
      </trkpt>
      <trkpt lat="43.92415" lon="4.09008">
        <ele>109.73</ele>
        <time>2017-04-02T09:13:18Z</time>
      </trkpt>
      <trkpt lat="43.92405" lon="4.09011">
        <ele>110.21</ele>
        <time>2017-04-02T09:13:27Z</time>
      </trkpt>
      <trkpt lat="43.92396" lon="4.09012">
        <ele>109.73</ele>
        <time>2017-04-02T09:13:36Z</time>
      </trkpt>
      <trkpt lat="43.92386" lon="4.09015">
        <ele>110.69</ele>
        <time>2017-04-02T09:13:45Z</time>
      </trkpt>
      <trkpt lat="43.92376" lon="4.09015">
        <ele>110.69</ele>
        <time>2017-04-02T09:13:54Z</time>
      </trkpt>
      <trkpt lat="43.92366" lon="4.09016">
        <ele>110.69</ele>
        <time>2017-04-02T09:14:03Z</time>
      </trkpt>
      <trkpt lat="43.92355" lon="4.09016">
        <ele>110.69</ele>
        <time>2017-04-02T09:14:12Z</time>
      </trkpt>
      <trkpt lat="43.92346" lon="4.09018">
        <ele>110.21</ele>
        <time>2017-04-02T09:14:21Z</time>
      </trkpt>
      <trkpt lat="43.92336" lon="4.09017">
        <ele>109.73</ele>
        <time>2017-04-02T09:14:30Z</time>
      </trkpt>
      <trkpt lat="43.92326" lon="4.09014">
        <ele>109.73</ele>
        <time>2017-04-02T09:14:40Z</time>
      </trkpt>
      <trkpt lat="43.92316" lon="4.09014">
        <ele>109.73</ele>
        <time>2017-04-02T09:14:49Z</time>
      </trkpt>
      <trkpt lat="43.92306" lon="4.09015">
        <ele>110.21</ele>
        <time>2017-04-02T09:14:58Z</time>
      </trkpt>
      <trkpt lat="43.92296" lon="4.09016">
        <ele>109.25</ele>
        <time>2017-04-02T09:15:07Z</time>
      </trkpt>
      <trkpt lat="43.92287" lon="4.09019">
        <ele>109.25</ele>
        <time>2017-04-02T09:15:16Z</time>
      </trkpt>
      <trkpt lat="43.92278" lon="4.09023">
        <ele>111.17</ele>
        <time>2017-04-02T09:15:25Z</time>
      </trkpt>
      <trkpt lat="43.92268" lon="4.09026">
        <ele>111.17</ele>
        <time>2017-04-02T09:15:34Z</time>
      </trkpt>
      <trkpt lat="43.92263" lon="4.09036">
        <ele>111.17</ele>
        <time>2017-04-02T09:15:44Z</time>
      </trkpt>
      <trkpt lat="43.92262" lon="4.0905">
        <ele>111.17</ele>
        <time>2017-04-02T09:15:53Z</time>
      </trkpt>
      <trkpt lat="43.92262" lon="4.09063">
        <ele>110.69</ele>
        <time>2017-04-02T09:16:04Z</time>
      </trkpt>
      <trkpt lat="43.92263" lon="4.09077">
        <ele>110.21</ele>
        <time>2017-04-02T09:16:13Z</time>
      </trkpt>
      <trkpt lat="43.92263" lon="4.0909">
        <ele>110.21</ele>
        <time>2017-04-02T09:16:22Z</time>
      </trkpt>
      <trkpt lat="43.92262" lon="4.09105">
        <ele>109.73</ele>
        <time>2017-04-02T09:16:31Z</time>
      </trkpt>
      <trkpt lat="43.92262" lon="4.09119">
        <ele>110.21</ele>
        <time>2017-04-02T09:16:40Z</time>
      </trkpt>
      <trkpt lat="43.92261" lon="4.09131">
        <ele>110.69</ele>
        <time>2017-04-02T09:17:06Z</time>
      </trkpt>
      <trkpt lat="43.92259" lon="4.09146">
        <ele>111.65</ele>
        <time>2017-04-02T09:17:15Z</time>
      </trkpt>
      <trkpt lat="43.92257" lon="4.0916">
        <ele>112.13</ele>
        <time>2017-04-02T09:17:24Z</time>
      </trkpt>
      <trkpt lat="43.92255" lon="4.09174">
        <ele>112.13</ele>
        <time>2017-04-02T09:17:33Z</time>
      </trkpt>
      <trkpt lat="43.92252" lon="4.09189">
        <ele>112.13</ele>
        <time>2017-04-02T09:17:43Z</time>
      </trkpt>
      <trkpt lat="43.9225" lon="4.09205">
        <ele>112.61</ele>
        <time>2017-04-02T09:17:53Z</time>
      </trkpt>
      <trkpt lat="43.92247" lon="4.09219">
        <ele>112.13</ele>
        <time>2017-04-02T09:18:02Z</time>
      </trkpt>
      <trkpt lat="43.92244" lon="4.0923">
        <ele>112.13</ele>
        <time>2017-04-02T09:18:10Z</time>
      </trkpt>
      <trkpt lat="43.92242" lon="4.09243">
        <ele>111.65</ele>
        <time>2017-04-02T09:18:18Z</time>
      </trkpt>
      <trkpt lat="43.92239" lon="4.09256">
        <ele>112.61</ele>
        <time>2017-04-02T09:18:27Z</time>
      </trkpt>
      <trkpt lat="43.92235" lon="4.0927">
        <ele>112.61</ele>
        <time>2017-04-02T09:18:36Z</time>
      </trkpt>
      <trkpt lat="43.92233" lon="4.09283">
        <ele>113.57</ele>
        <time>2017-04-02T09:18:45Z</time>
      </trkpt>
      <trkpt lat="43.92232" lon="4.09297">
        <ele>114.05</ele>
        <time>2017-04-02T09:18:54Z</time>
      </trkpt>
      <trkpt lat="43.9223" lon="4.09313">
        <ele>114.05</ele>
        <time>2017-04-02T09:19:05Z</time>
      </trkpt>
      <trkpt lat="43.92229" lon="4.09329">
        <ele>115.01</ele>
        <time>2017-04-02T09:19:16Z</time>
      </trkpt>
      <trkpt lat="43.9223" lon="4.0934">
        <ele>115.98</ele>
        <time>2017-04-02T09:19:36Z</time>
      </trkpt>
      <trkpt lat="43.92224" lon="4.0933">
        <ele>115.01</ele>
        <time>2017-04-02T09:19:56Z</time>
      </trkpt>
      <trkpt lat="43.9222" lon="4.0934">
        <ele>115.01</ele>
        <time>2017-04-02T09:20:10Z</time>
      </trkpt>
      <trkpt lat="43.92211" lon="4.09336">
        <ele>115.01</ele>
        <time>2017-04-02T09:20:28Z</time>
      </trkpt>
      <trkpt lat="43.92218" lon="4.0934">
        <ele>116.46</ele>
        <time>2017-04-02T09:20:58Z</time>
      </trkpt>
      <trkpt lat="43.92225" lon="4.09338">
        <ele>116.46</ele>
        <time>2017-04-02T09:22:33Z</time>
      </trkpt>
      <trkpt lat="43.92222" lon="4.09349">
        <ele>115.5</ele>
        <time>2017-04-02T09:23:16Z</time>
      </trkpt>
      <trkpt lat="43.92217" lon="4.09364">
        <ele>114.05</ele>
        <time>2017-04-02T09:23:29Z</time>
      </trkpt>
      <trkpt lat="43.92212" lon="4.09379">
        <ele>114.53</ele>
        <time>2017-04-02T09:23:39Z</time>
      </trkpt>
      <trkpt lat="43.92207" lon="4.09393">
        <ele>113.57</ele>
        <time>2017-04-02T09:23:50Z</time>
      </trkpt>
      <trkpt lat="43.92204" lon="4.09406">
        <ele>114.53</ele>
        <time>2017-04-02T09:23:59Z</time>
      </trkpt>
      <trkpt lat="43.922" lon="4.09422">
        <ele>115.5</ele>
        <time>2017-04-02T09:24:10Z</time>
      </trkpt>
      <trkpt lat="43.92196" lon="4.09438">
        <ele>115.98</ele>
        <time>2017-04-02T09:24:20Z</time>
      </trkpt>
      <trkpt lat="43.92194" lon="4.09454">
        <ele>118.38</ele>
        <time>2017-04-02T09:24:29Z</time>
      </trkpt>
      <trkpt lat="43.9219" lon="4.09468">
        <ele>120.3</ele>
        <time>2017-04-02T09:24:38Z</time>
      </trkpt>
      <trkpt lat="43.92187" lon="4.09481">
        <ele>121.26</ele>
        <time>2017-04-02T09:24:47Z</time>
      </trkpt>
      <trkpt lat="43.92184" lon="4.09495">
        <ele>121.74</ele>
        <time>2017-04-02T09:24:58Z</time>
      </trkpt>
      <trkpt lat="43.92179" lon="4.09508">
        <ele>120.78</ele>
        <time>2017-04-02T09:25:09Z</time>
      </trkpt>
      <trkpt lat="43.9218" lon="4.09525">
        <ele>121.26</ele>
        <time>2017-04-02T09:25:20Z</time>
      </trkpt>
      <trkpt lat="43.92188" lon="4.09532">
        <ele>122.71</ele>
        <time>2017-04-02T09:25:31Z</time>
      </trkpt>
      <trkpt lat="43.92196" lon="4.09535">
        <ele>122.71</ele>
        <time>2017-04-02T09:25:40Z</time>
      </trkpt>
      <trkpt lat="43.92205" lon="4.09538">
        <ele>122.22</ele>
        <time>2017-04-02T09:25:48Z</time>
      </trkpt>
      <trkpt lat="43.92216" lon="4.0954">
        <ele>122.71</ele>
        <time>2017-04-02T09:25:57Z</time>
      </trkpt>
      <trkpt lat="43.92226" lon="4.09544">
        <ele>123.67</ele>
        <time>2017-04-02T09:26:05Z</time>
      </trkpt>
      <trkpt lat="43.92235" lon="4.09549">
        <ele>125.11</ele>
        <time>2017-04-02T09:26:12Z</time>
      </trkpt>
      <trkpt lat="43.92243" lon="4.09556">
        <ele>125.59</ele>
        <time>2017-04-02T09:26:20Z</time>
      </trkpt>
      <trkpt lat="43.92252" lon="4.09564">
        <ele>126.55</ele>
        <time>2017-04-02T09:26:28Z</time>
      </trkpt>
      <trkpt lat="43.9226" lon="4.09571">
        <ele>127.51</ele>
        <time>2017-04-02T09:26:36Z</time>
      </trkpt>
      <trkpt lat="43.92268" lon="4.09583">
        <ele>127.51</ele>
        <time>2017-04-02T09:26:46Z</time>
      </trkpt>
      <trkpt lat="43.92277" lon="4.09593">
        <ele>127.03</ele>
        <time>2017-04-02T09:26:55Z</time>
      </trkpt>
      <trkpt lat="43.92285" lon="4.09602">
        <ele>126.07</ele>
        <time>2017-04-02T09:27:04Z</time>
      </trkpt>
      <trkpt lat="43.92293" lon="4.09611">
        <ele>126.55</ele>
        <time>2017-04-02T09:27:13Z</time>
      </trkpt>
      <trkpt lat="43.92302" lon="4.09621">
        <ele>126.07</ele>
        <time>2017-04-02T09:27:23Z</time>
      </trkpt>
      <trkpt lat="43.92311" lon="4.09632">
        <ele>124.63</ele>
        <time>2017-04-02T09:27:33Z</time>
      </trkpt>
      <trkpt lat="43.9232" lon="4.09641">
        <ele>124.15</ele>
        <time>2017-04-02T09:27:42Z</time>
      </trkpt>
      <trkpt lat="43.92327" lon="4.09652">
        <ele>121.26</ele>
        <time>2017-04-02T09:27:53Z</time>
      </trkpt>
      <trkpt lat="43.92338" lon="4.09662">
        <ele>123.19</ele>
        <time>2017-04-02T09:28:03Z</time>
      </trkpt>
      <trkpt lat="43.92348" lon="4.09668">
        <ele>124.15</ele>
        <time>2017-04-02T09:28:10Z</time>
      </trkpt>
      <trkpt lat="43.92358" lon="4.09675">
        <ele>124.63</ele>
        <time>2017-04-02T09:28:19Z</time>
      </trkpt>
      <trkpt lat="43.92368" lon="4.09681">
        <ele>126.07</ele>
        <time>2017-04-02T09:28:27Z</time>
      </trkpt>
      <trkpt lat="43.92376" lon="4.09689">
        <ele>124.63</ele>
        <time>2017-04-02T09:28:36Z</time>
      </trkpt>
      <trkpt lat="43.92385" lon="4.09695">
        <ele>124.15</ele>
        <time>2017-04-02T09:28:45Z</time>
      </trkpt>
      <trkpt lat="43.92396" lon="4.09703">
        <ele>123.67</ele>
        <time>2017-04-02T09:28:55Z</time>
      </trkpt>
      <trkpt lat="43.92404" lon="4.09712">
        <ele>122.22</ele>
        <time>2017-04-02T09:29:04Z</time>
      </trkpt>
      <trkpt lat="43.92412" lon="4.09723">
        <ele>119.82</ele>
        <time>2017-04-02T09:29:14Z</time>
      </trkpt>
      <trkpt lat="43.9242" lon="4.09731">
        <ele>120.3</ele>
        <time>2017-04-02T09:29:22Z</time>
      </trkpt>
      <trkpt lat="43.9243" lon="4.0974">
        <ele>119.82</ele>
        <time>2017-04-02T09:29:31Z</time>
      </trkpt>
      <trkpt lat="43.9244" lon="4.09749">
        <ele>119.82</ele>
        <time>2017-04-02T09:29:39Z</time>
      </trkpt>
      <trkpt lat="43.92446" lon="4.09759">
        <ele>116.94</ele>
        <time>2017-04-02T09:29:48Z</time>
      </trkpt>
      <trkpt lat="43.92455" lon="4.09769">
        <ele>115.01</ele>
        <time>2017-04-02T09:29:57Z</time>
      </trkpt>
      <trkpt lat="43.92465" lon="4.09777">
        <ele>115.5</ele>
        <time>2017-04-02T09:30:05Z</time>
      </trkpt>
      <trkpt lat="43.92474" lon="4.09785">
        <ele>114.05</ele>
        <time>2017-04-02T09:30:13Z</time>
      </trkpt>
      <trkpt lat="43.92482" lon="4.09793">
        <ele>113.57</ele>
        <time>2017-04-02T09:30:21Z</time>
      </trkpt>
      <trkpt lat="43.92491" lon="4.09803">
        <ele>111.17</ele>
        <time>2017-04-02T09:30:31Z</time>
      </trkpt>
      <trkpt lat="43.925" lon="4.09811">
        <ele>109.25</ele>
        <time>2017-04-02T09:30:39Z</time>
      </trkpt>
      <trkpt lat="43.92508" lon="4.09821">
        <ele>107.81</ele>
        <time>2017-04-02T09:30:48Z</time>
      </trkpt>
      <trkpt lat="43.92515" lon="4.0983">
        <ele>106.84</ele>
        <time>2017-04-02T09:30:57Z</time>
      </trkpt>
      <trkpt lat="43.92523" lon="4.0984">
        <ele>106.36</ele>
        <time>2017-04-02T09:31:06Z</time>
      </trkpt>
      <trkpt lat="43.92531" lon="4.09849">
        <ele>106.36</ele>
        <time>2017-04-02T09:31:14Z</time>
      </trkpt>
      <trkpt lat="43.92538" lon="4.09858">
        <ele>104.44</ele>
        <time>2017-04-02T09:31:23Z</time>
      </trkpt>
      <trkpt lat="43.92546" lon="4.09868">
        <ele>104.44</ele>
        <time>2017-04-02T09:31:32Z</time>
      </trkpt>
      <trkpt lat="43.92554" lon="4.09878">
        <ele>102.04</ele>
        <time>2017-04-02T09:31:41Z</time>
      </trkpt>
      <trkpt lat="43.92562" lon="4.09887">
        <ele>101.08</ele>
        <time>2017-04-02T09:31:49Z</time>
      </trkpt>
      <trkpt lat="43.9257" lon="4.09896">
        <ele>101.08</ele>
        <time>2017-04-02T09:31:57Z</time>
      </trkpt>
      <trkpt lat="43.92578" lon="4.09904">
        <ele>100.6</ele>
        <time>2017-04-02T09:32:05Z</time>
      </trkpt>
      <trkpt lat="43.92587" lon="4.09912">
        <ele>100.11</ele>
        <time>2017-04-02T09:32:14Z</time>
      </trkpt>
      <trkpt lat="43.92594" lon="4.09922">
        <ele>99.15</ele>
        <time>2017-04-02T09:32:23Z</time>
      </trkpt>
      <trkpt lat="43.92604" lon="4.0993">
        <ele>99.15</ele>
        <time>2017-04-02T09:32:32Z</time>
      </trkpt>
      <trkpt lat="43.92612" lon="4.09939">
        <ele>97.23</ele>
        <time>2017-04-02T09:32:41Z</time>
      </trkpt>
      <trkpt lat="43.92624" lon="4.09946">
        <ele>97.71</ele>
        <time>2017-04-02T09:32:50Z</time>
      </trkpt>
      <trkpt lat="43.92634" lon="4.09952">
        <ele>97.23</ele>
        <time>2017-04-02T09:33:00Z</time>
      </trkpt>
      <trkpt lat="43.92647" lon="4.09961">
        <ele>94.35</ele>
        <time>2017-04-02T09:33:11Z</time>
      </trkpt>
      <trkpt lat="43.92654" lon="4.0997">
        <ele>93.87</ele>
        <time>2017-04-02T09:33:25Z</time>
      </trkpt>
      <trkpt lat="43.92663" lon="4.0998">
        <ele>94.83</ele>
        <time>2017-04-02T09:33:35Z</time>
      </trkpt>
      <trkpt lat="43.92675" lon="4.0999">
        <ele>94.83</ele>
        <time>2017-04-02T09:33:45Z</time>
      </trkpt>
      <trkpt lat="43.92689" lon="4.1">
        <ele>95.31</ele>
        <time>2017-04-02T09:33:57Z</time>
      </trkpt>
      <trkpt lat="43.92699" lon="4.10009">
        <ele>94.83</ele>
        <time>2017-04-02T09:34:07Z</time>
      </trkpt>
      <trkpt lat="43.92703" lon="4.10018">
        <ele>91.46</ele>
        <time>2017-04-02T09:34:19Z</time>
      </trkpt>
      <trkpt lat="43.92722" lon="4.10026">
        <ele>91.46</ele>
        <time>2017-04-02T09:34:30Z</time>
      </trkpt>
      <trkpt lat="43.92737" lon="4.10034">
        <ele>92.42</ele>
        <time>2017-04-02T09:34:41Z</time>
      </trkpt>
      <trkpt lat="43.92741" lon="4.10044">
        <ele>90.02</ele>
        <time>2017-04-02T09:34:51Z</time>
      </trkpt>
      <trkpt lat="43.92758" lon="4.1005">
        <ele>90.02</ele>
        <time>2017-04-02T09:35:02Z</time>
      </trkpt>
      <trkpt lat="43.9277" lon="4.10055">
        <ele>87.14</ele>
        <time>2017-04-02T09:36:06Z</time>
      </trkpt>
      <trkpt lat="43.92783" lon="4.10053">
        <ele>83.77</ele>
        <time>2017-04-02T09:36:23Z</time>
      </trkpt>
      <trkpt lat="43.92793" lon="4.10051">
        <ele>82.81</ele>
        <time>2017-04-02T09:36:34Z</time>
      </trkpt>
      <trkpt lat="43.92803" lon="4.10047">
        <ele>83.29</ele>
        <time>2017-04-02T09:36:45Z</time>
      </trkpt>
      <trkpt lat="43.92814" lon="4.10046">
        <ele>82.33</ele>
        <time>2017-04-02T09:36:55Z</time>
      </trkpt>
      <trkpt lat="43.92825" lon="4.10042">
        <ele>82.33</ele>
        <time>2017-04-02T09:37:04Z</time>
      </trkpt>
      <trkpt lat="43.92835" lon="4.10039">
        <ele>79.45</ele>
        <time>2017-04-02T09:37:14Z</time>
      </trkpt>
      <trkpt lat="43.92846" lon="4.10038">
        <ele>78.97</ele>
        <time>2017-04-02T09:37:23Z</time>
      </trkpt>
      <trkpt lat="43.92856" lon="4.10035">
        <ele>79.93</ele>
        <time>2017-04-02T09:37:32Z</time>
      </trkpt>
      <trkpt lat="43.92866" lon="4.10031">
        <ele>79.45</ele>
        <time>2017-04-02T09:37:41Z</time>
      </trkpt>
      <trkpt lat="43.92876" lon="4.10023">
        <ele>78.48</ele>
        <time>2017-04-02T09:37:50Z</time>
      </trkpt>
      <trkpt lat="43.92885" lon="4.10013">
        <ele>77.04</ele>
        <time>2017-04-02T09:38:00Z</time>
      </trkpt>
      <trkpt lat="43.92893" lon="4.10003">
        <ele>75.6</ele>
        <time>2017-04-02T09:38:10Z</time>
      </trkpt>
      <trkpt lat="43.92902" lon="4.09995">
        <ele>78.97</ele>
        <time>2017-04-02T09:38:20Z</time>
      </trkpt>
      <trkpt lat="43.92913" lon="4.09989">
        <ele>82.81</ele>
        <time>2017-04-02T09:38:31Z</time>
      </trkpt>
      <trkpt lat="43.92925" lon="4.09993">
        <ele>83.29</ele>
        <time>2017-04-02T09:38:42Z</time>
      </trkpt>
      <trkpt lat="43.92935" lon="4.10001">
        <ele>80.89</ele>
        <time>2017-04-02T09:38:55Z</time>
      </trkpt>
      <trkpt lat="43.9295" lon="4.10007">
        <ele>81.85</ele>
        <time>2017-04-02T09:39:10Z</time>
      </trkpt>
      <trkpt lat="43.92966" lon="4.10011">
        <ele>84.73</ele>
        <time>2017-04-02T09:39:22Z</time>
      </trkpt>
      <trkpt lat="43.92979" lon="4.10013">
        <ele>88.1</ele>
        <time>2017-04-02T09:39:32Z</time>
      </trkpt>
      <trkpt lat="43.92989" lon="4.10021">
        <ele>87.14</ele>
        <time>2017-04-02T09:39:43Z</time>
      </trkpt>
      <trkpt lat="43.92998" lon="4.1003">
        <ele>88.58</ele>
        <time>2017-04-02T09:39:57Z</time>
      </trkpt>
      <trkpt lat="43.92999" lon="4.10045">
        <ele>90.02</ele>
        <time>2017-04-02T09:40:10Z</time>
      </trkpt>
      <trkpt lat="43.92995" lon="4.1006">
        <ele>90.98</ele>
        <time>2017-04-02T09:40:29Z</time>
      </trkpt>
      <trkpt lat="43.92998" lon="4.10078">
        <ele>86.66</ele>
        <time>2017-04-02T09:40:44Z</time>
      </trkpt>
      <trkpt lat="43.92996" lon="4.10094">
        <ele>84.73</ele>
        <time>2017-04-02T09:40:56Z</time>
      </trkpt>
      <trkpt lat="43.92991" lon="4.10108">
        <ele>86.66</ele>
        <time>2017-04-02T09:41:07Z</time>
      </trkpt>
      <trkpt lat="43.92986" lon="4.10121">
        <ele>88.58</ele>
        <time>2017-04-02T09:41:17Z</time>
      </trkpt>
      <trkpt lat="43.92983" lon="4.10135">
        <ele>90.5</ele>
        <time>2017-04-02T09:41:27Z</time>
      </trkpt>
      <trkpt lat="43.92978" lon="4.10148">
        <ele>91.46</ele>
        <time>2017-04-02T09:41:36Z</time>
      </trkpt>
      <trkpt lat="43.92973" lon="4.10161">
        <ele>90.98</ele>
        <time>2017-04-02T09:41:45Z</time>
      </trkpt>
      <trkpt lat="43.92968" lon="4.10175">
        <ele>90.02</ele>
        <time>2017-04-02T09:41:54Z</time>
      </trkpt>
      <trkpt lat="43.92963" lon="4.1019">
        <ele>90.02</ele>
        <time>2017-04-02T09:42:05Z</time>
      </trkpt>
      <trkpt lat="43.92959" lon="4.10205">
        <ele>91.46</ele>
        <time>2017-04-02T09:42:15Z</time>
      </trkpt>
      <trkpt lat="43.92956" lon="4.10217">
        <ele>91.94</ele>
        <time>2017-04-02T09:42:29Z</time>
      </trkpt>
      <trkpt lat="43.92959" lon="4.10229">
        <ele>92.9</ele>
        <time>2017-04-02T09:42:40Z</time>
      </trkpt>
      <trkpt lat="43.92967" lon="4.10239">
        <ele>95.31</ele>
        <time>2017-04-02T09:42:51Z</time>
      </trkpt>
      <trkpt lat="43.92976" lon="4.10247">
        <ele>97.23</ele>
        <time>2017-04-02T09:43:03Z</time>
      </trkpt>
      <trkpt lat="43.92983" lon="4.10243">
        <ele>98.19</ele>
        <time>2017-04-02T09:43:21Z</time>
      </trkpt>
      <trkpt lat="43.92989" lon="4.10237">
        <ele>98.67</ele>
        <time>2017-04-02T09:44:02Z</time>
      </trkpt>
      <trkpt lat="43.92988" lon="4.10224">
        <ele>100.11</ele>
        <time>2017-04-02T09:45:48Z</time>
      </trkpt>
      <trkpt lat="43.92991" lon="4.10217">
        <ele>97.23</ele>
        <time>2017-04-02T09:46:38Z</time>
      </trkpt>
      <trkpt lat="43.9299" lon="4.10214">
        <ele>94.83</ele>
        <time>2017-04-02T09:48:59Z</time>
      </trkpt>
      <trkpt lat="43.92989" lon="4.10226">
        <ele>92.42</ele>
        <time>2017-04-02T09:49:12Z</time>
      </trkpt>
      <trkpt lat="43.92989" lon="4.10238">
        <ele>89.06</ele>
        <time>2017-04-02T09:49:35Z</time>
      </trkpt>
      <trkpt lat="43.92981" lon="4.10251">
        <ele>87.62</ele>
        <time>2017-04-02T09:49:56Z</time>
      </trkpt>
      <trkpt lat="43.92985" lon="4.10258">
        <ele>90.5</ele>
        <time>2017-04-02T09:50:27Z</time>
      </trkpt>
      <trkpt lat="43.92983" lon="4.1025">
        <ele>90.98</ele>
        <time>2017-04-02T09:50:39Z</time>
      </trkpt>
      <trkpt lat="43.92991" lon="4.10241">
        <ele>92.42</ele>
        <time>2017-04-02T09:50:47Z</time>
      </trkpt>
      <trkpt lat="43.9299" lon="4.10231">
        <ele>97.71</ele>
        <time>2017-04-02T09:51:17Z</time>
      </trkpt>
      <trkpt lat="43.92993" lon="4.10218">
        <ele>98.19</ele>
        <time>2017-04-02T09:51:32Z</time>
      </trkpt>
      <trkpt lat="43.92995" lon="4.10228">
        <ele>97.23</ele>
        <time>2017-04-02T09:52:27Z</time>
      </trkpt>
      <trkpt lat="43.92989" lon="4.10241">
        <ele>94.83</ele>
        <time>2017-04-02T09:52:36Z</time>
      </trkpt>
      <trkpt lat="43.92984" lon="4.10256">
        <ele>93.87</ele>
        <time>2017-04-02T09:52:45Z</time>
      </trkpt>
      <trkpt lat="43.92989" lon="4.10262">
        <ele>94.83</ele>
        <time>2017-04-02T09:53:15Z</time>
      </trkpt>
      <trkpt lat="43.92986" lon="4.1026">
        <ele>97.23</ele>
        <time>2017-04-02T09:53:29Z</time>
      </trkpt>
      <trkpt lat="43.92989" lon="4.10269">
        <ele>91.94</ele>
        <time>2017-04-02T09:59:27Z</time>
      </trkpt>
      <trkpt lat="43.92986" lon="4.10274">
        <ele>103.48</ele>
        <time>2017-04-02T10:39:54Z</time>
      </trkpt>
      <trkpt lat="43.9298" lon="4.10262">
        <ele>102.04</ele>
        <time>2017-04-02T10:41:19Z</time>
      </trkpt>
      <trkpt lat="43.92982" lon="4.10248">
        <ele>101.08</ele>
        <time>2017-04-02T10:41:27Z</time>
      </trkpt>
      <trkpt lat="43.9299" lon="4.10239">
        <ele>101.56</ele>
        <time>2017-04-02T10:41:38Z</time>
      </trkpt>
      <trkpt lat="43.92987" lon="4.1024">
        <ele>100.6</ele>
        <time>2017-04-02T10:45:15Z</time>
      </trkpt>
      <trkpt lat="43.92988" lon="4.10241">
        <ele>96.27</ele>
        <time>2017-04-02T10:46:28Z</time>
      </trkpt>
      <trkpt lat="43.92982" lon="4.10251">
        <ele>94.83</ele>
        <time>2017-04-02T10:46:45Z</time>
      </trkpt>
      <trkpt lat="43.92987" lon="4.10261">
        <ele>94.83</ele>
        <time>2017-04-02T10:46:57Z</time>
      </trkpt>
      <trkpt lat="43.92987" lon="4.10265">
        <ele>98.19</ele>
        <time>2017-04-02T10:49:35Z</time>
      </trkpt>
      <trkpt lat="43.9298" lon="4.1026">
        <ele>99.15</ele>
        <time>2017-04-02T10:53:13Z</time>
      </trkpt>
      <trkpt lat="43.92981" lon="4.10247">
        <ele>99.63</ele>
        <time>2017-04-02T10:53:33Z</time>
      </trkpt>
      <trkpt lat="43.92985" lon="4.10237">
        <ele>100.11</ele>
        <time>2017-04-02T10:54:11Z</time>
      </trkpt>
      <trkpt lat="43.92992" lon="4.10227">
        <ele>99.15</ele>
        <time>2017-04-02T10:54:24Z</time>
      </trkpt>
      <trkpt lat="43.92993" lon="4.10226">
        <ele>99.15</ele>
        <time>2017-04-02T10:56:33Z</time>
      </trkpt>
      <trkpt lat="43.92988" lon="4.10231">
        <ele>98.19</ele>
        <time>2017-04-02T11:03:46Z</time>
      </trkpt>
      <trkpt lat="43.92985" lon="4.10243">
        <ele>99.15</ele>
        <time>2017-04-02T11:07:18Z</time>
      </trkpt>
      <trkpt lat="43.92973" lon="4.1025">
        <ele>97.71</ele>
        <time>2017-04-02T11:07:31Z</time>
      </trkpt>
      <trkpt lat="43.92964" lon="4.10244">
        <ele>95.31</ele>
        <time>2017-04-02T11:07:43Z</time>
      </trkpt>
      <trkpt lat="43.92958" lon="4.10232">
        <ele>94.35</ele>
        <time>2017-04-02T11:07:54Z</time>
      </trkpt>
      <trkpt lat="43.92953" lon="4.1022">
        <ele>92.9</ele>
        <time>2017-04-02T11:08:05Z</time>
      </trkpt>
      <trkpt lat="43.92953" lon="4.10206">
        <ele>92.9</ele>
        <time>2017-04-02T11:08:14Z</time>
      </trkpt>
      <trkpt lat="43.92958" lon="4.10193">
        <ele>92.9</ele>
        <time>2017-04-02T11:08:24Z</time>
      </trkpt>
      <trkpt lat="43.92962" lon="4.10181">
        <ele>92.9</ele>
        <time>2017-04-02T11:08:34Z</time>
      </trkpt>
      <trkpt lat="43.92966" lon="4.10168">
        <ele>93.39</ele>
        <time>2017-04-02T11:08:44Z</time>
      </trkpt>
      <trkpt lat="43.92971" lon="4.10155">
        <ele>93.39</ele>
        <time>2017-04-02T11:08:55Z</time>
      </trkpt>
      <trkpt lat="43.92975" lon="4.10144">
        <ele>93.87</ele>
        <time>2017-04-02T11:09:06Z</time>
      </trkpt>
      <trkpt lat="43.92981" lon="4.10131">
        <ele>91.46</ele>
        <time>2017-04-02T11:09:19Z</time>
      </trkpt>
      <trkpt lat="43.92985" lon="4.10118">
        <ele>91.94</ele>
        <time>2017-04-02T11:09:30Z</time>
      </trkpt>
      <trkpt lat="43.9299" lon="4.10105">
        <ele>92.42</ele>
        <time>2017-04-02T11:09:41Z</time>
      </trkpt>
      <trkpt lat="43.92993" lon="4.10092">
        <ele>92.42</ele>
        <time>2017-04-02T11:09:52Z</time>
      </trkpt>
      <trkpt lat="43.92996" lon="4.10079">
        <ele>91.46</ele>
        <time>2017-04-02T11:10:05Z</time>
      </trkpt>
      <trkpt lat="43.92994" lon="4.10064">
        <ele>89.54</ele>
        <time>2017-04-02T11:10:18Z</time>
      </trkpt>
      <trkpt lat="43.92994" lon="4.1005">
        <ele>89.54</ele>
        <time>2017-04-02T11:10:30Z</time>
      </trkpt>
      <trkpt lat="43.92997" lon="4.10037">
        <ele>89.54</ele>
        <time>2017-04-02T11:10:46Z</time>
      </trkpt>
      <trkpt lat="43.92991" lon="4.10026">
        <ele>88.58</ele>
        <time>2017-04-02T11:10:58Z</time>
      </trkpt>
      <trkpt lat="43.92983" lon="4.10018">
        <ele>87.62</ele>
        <time>2017-04-02T11:11:12Z</time>
      </trkpt>
      <trkpt lat="43.92973" lon="4.10015">
        <ele>88.1</ele>
        <time>2017-04-02T11:11:24Z</time>
      </trkpt>
      <trkpt lat="43.92963" lon="4.10013">
        <ele>87.14</ele>
        <time>2017-04-02T11:11:34Z</time>
      </trkpt>
      <trkpt lat="43.92952" lon="4.1001">
        <ele>85.69</ele>
        <time>2017-04-02T11:11:46Z</time>
      </trkpt>
      <trkpt lat="43.92943" lon="4.10007">
        <ele>83.77</ele>
        <time>2017-04-02T11:11:58Z</time>
      </trkpt>
      <trkpt lat="43.92933" lon="4.10002">
        <ele>83.29</ele>
        <time>2017-04-02T11:12:09Z</time>
      </trkpt>
      <trkpt lat="43.92922" lon="4.09998">
        <ele>82.33</ele>
        <time>2017-04-02T11:12:21Z</time>
      </trkpt>
      <trkpt lat="43.92912" lon="4.09996">
        <ele>84.25</ele>
        <time>2017-04-02T11:12:34Z</time>
      </trkpt>
      <trkpt lat="43.92902" lon="4.10004">
        <ele>85.21</ele>
        <time>2017-04-02T11:12:47Z</time>
      </trkpt>
      <trkpt lat="43.92891" lon="4.10014">
        <ele>85.69</ele>
        <time>2017-04-02T11:13:00Z</time>
      </trkpt>
      <trkpt lat="43.92883" lon="4.10025">
        <ele>85.21</ele>
        <time>2017-04-02T11:13:11Z</time>
      </trkpt>
      <trkpt lat="43.92876" lon="4.10034">
        <ele>83.77</ele>
        <time>2017-04-02T11:13:20Z</time>
      </trkpt>
      <trkpt lat="43.92866" lon="4.10041">
        <ele>81.85</ele>
        <time>2017-04-02T11:13:32Z</time>
      </trkpt>
      <trkpt lat="43.92852" lon="4.10045">
        <ele>82.81</ele>
        <time>2017-04-02T11:13:45Z</time>
      </trkpt>
      <trkpt lat="43.92835" lon="4.10049">
        <ele>82.81</ele>
        <time>2017-04-02T11:13:59Z</time>
      </trkpt>
      <trkpt lat="43.92824" lon="4.10053">
        <ele>82.81</ele>
        <time>2017-04-02T11:14:12Z</time>
      </trkpt>
      <trkpt lat="43.92812" lon="4.10054">
        <ele>84.73</ele>
        <time>2017-04-02T11:14:24Z</time>
      </trkpt>
      <trkpt lat="43.92801" lon="4.10058">
        <ele>86.66</ele>
        <time>2017-04-02T11:14:34Z</time>
      </trkpt>
      <trkpt lat="43.9279" lon="4.10061">
        <ele>88.58</ele>
        <time>2017-04-02T11:14:46Z</time>
      </trkpt>
      <trkpt lat="43.92779" lon="4.1006">
        <ele>89.06</ele>
        <time>2017-04-02T11:14:58Z</time>
      </trkpt>
      <trkpt lat="43.92767" lon="4.10055">
        <ele>90.02</ele>
        <time>2017-04-02T11:15:09Z</time>
      </trkpt>
      <trkpt lat="43.92757" lon="4.10048">
        <ele>90.98</ele>
        <time>2017-04-02T11:15:20Z</time>
      </trkpt>
      <trkpt lat="43.92747" lon="4.10041">
        <ele>89.06</ele>
        <time>2017-04-02T11:15:32Z</time>
      </trkpt>
      <trkpt lat="43.92736" lon="4.10035">
        <ele>87.14</ele>
        <time>2017-04-02T11:15:44Z</time>
      </trkpt>
      <trkpt lat="43.92727" lon="4.10029">
        <ele>88.58</ele>
        <time>2017-04-02T11:15:56Z</time>
      </trkpt>
      <trkpt lat="43.92717" lon="4.10022">
        <ele>89.54</ele>
        <time>2017-04-02T11:16:09Z</time>
      </trkpt>
      <trkpt lat="43.92705" lon="4.10016">
        <ele>89.54</ele>
        <time>2017-04-02T11:16:19Z</time>
      </trkpt>
      <trkpt lat="43.92695" lon="4.1001">
        <ele>91.46</ele>
        <time>2017-04-02T11:16:30Z</time>
      </trkpt>
      <trkpt lat="43.92686" lon="4.10003">
        <ele>92.42</ele>
        <time>2017-04-02T11:16:41Z</time>
      </trkpt>
      <trkpt lat="43.92677" lon="4.09996">
        <ele>92.9</ele>
        <time>2017-04-02T11:16:52Z</time>
      </trkpt>
      <trkpt lat="43.92668" lon="4.09989">
        <ele>92.9</ele>
        <time>2017-04-02T11:17:01Z</time>
      </trkpt>
      <trkpt lat="43.9266" lon="4.09981">
        <ele>93.39</ele>
        <time>2017-04-02T11:17:10Z</time>
      </trkpt>
      <trkpt lat="43.9265" lon="4.09975">
        <ele>92.9</ele>
        <time>2017-04-02T11:17:20Z</time>
      </trkpt>
      <trkpt lat="43.92644" lon="4.09966">
        <ele>93.39</ele>
        <time>2017-04-02T11:17:30Z</time>
      </trkpt>
      <trkpt lat="43.92638" lon="4.09959">
        <ele>93.39</ele>
        <time>2017-04-02T11:17:55Z</time>
      </trkpt>
      <trkpt lat="43.9264" lon="4.09963">
        <ele>94.83</ele>
        <time>2017-04-02T11:19:01Z</time>
      </trkpt>
      <trkpt lat="43.92636" lon="4.09957">
        <ele>95.79</ele>
        <time>2017-04-02T11:19:37Z</time>
      </trkpt>
      <trkpt lat="43.92628" lon="4.09951">
        <ele>97.23</ele>
        <time>2017-04-02T11:19:47Z</time>
      </trkpt>
      <trkpt lat="43.9262" lon="4.09947">
        <ele>99.63</ele>
        <time>2017-04-02T11:19:57Z</time>
      </trkpt>
      <trkpt lat="43.92611" lon="4.09941">
        <ele>102.52</ele>
        <time>2017-04-02T11:20:08Z</time>
      </trkpt>
      <trkpt lat="43.92604" lon="4.09934">
        <ele>104.92</ele>
        <time>2017-04-02T11:20:33Z</time>
      </trkpt>
      <trkpt lat="43.92595" lon="4.09924">
        <ele>105.88</ele>
        <time>2017-04-02T11:20:44Z</time>
      </trkpt>
      <trkpt lat="43.92587" lon="4.09916">
        <ele>105.88</ele>
        <time>2017-04-02T11:20:53Z</time>
      </trkpt>
      <trkpt lat="43.92579" lon="4.09908">
        <ele>106.84</ele>
        <time>2017-04-02T11:21:04Z</time>
      </trkpt>
      <trkpt lat="43.92571" lon="4.09899">
        <ele>108.29</ele>
        <time>2017-04-02T11:21:16Z</time>
      </trkpt>
      <trkpt lat="43.92561" lon="4.0989">
        <ele>108.29</ele>
        <time>2017-04-02T11:21:27Z</time>
      </trkpt>
      <trkpt lat="43.92553" lon="4.09881">
        <ele>109.25</ele>
        <time>2017-04-02T11:21:37Z</time>
      </trkpt>
      <trkpt lat="43.92546" lon="4.09872">
        <ele>109.73</ele>
        <time>2017-04-02T11:21:48Z</time>
      </trkpt>
      <trkpt lat="43.92539" lon="4.09863">
        <ele>111.17</ele>
        <time>2017-04-02T11:22:00Z</time>
      </trkpt>
      <trkpt lat="43.92532" lon="4.09855">
        <ele>111.17</ele>
        <time>2017-04-02T11:22:11Z</time>
      </trkpt>
      <trkpt lat="43.92524" lon="4.09847">
        <ele>113.09</ele>
        <time>2017-04-02T11:22:22Z</time>
      </trkpt>
      <trkpt lat="43.92517" lon="4.09839">
        <ele>115.01</ele>
        <time>2017-04-02T11:22:33Z</time>
      </trkpt>
      <trkpt lat="43.9251" lon="4.09829">
        <ele>115.5</ele>
        <time>2017-04-02T11:22:46Z</time>
      </trkpt>
      <trkpt lat="43.92503" lon="4.09819">
        <ele>115.5</ele>
        <time>2017-04-02T11:23:02Z</time>
      </trkpt>
      <trkpt lat="43.92493" lon="4.09809">
        <ele>115.98</ele>
        <time>2017-04-02T11:23:15Z</time>
      </trkpt>
      <trkpt lat="43.92489" lon="4.09802">
        <ele>115.98</ele>
        <time>2017-04-02T11:23:30Z</time>
      </trkpt>
      <trkpt lat="43.92479" lon="4.09794">
        <ele>116.94</ele>
        <time>2017-04-02T11:23:42Z</time>
      </trkpt>
      <trkpt lat="43.92471" lon="4.09785">
        <ele>117.42</ele>
        <time>2017-04-02T11:23:54Z</time>
      </trkpt>
      <trkpt lat="43.92461" lon="4.09776">
        <ele>117.9</ele>
        <time>2017-04-02T11:24:07Z</time>
      </trkpt>
      <trkpt lat="43.92453" lon="4.09767">
        <ele>120.78</ele>
        <time>2017-04-02T11:24:19Z</time>
      </trkpt>
      <trkpt lat="43.92445" lon="4.09756">
        <ele>124.15</ele>
        <time>2017-04-02T11:24:31Z</time>
      </trkpt>
      <trkpt lat="43.92437" lon="4.09747">
        <ele>125.59</ele>
        <time>2017-04-02T11:24:44Z</time>
      </trkpt>
      <trkpt lat="43.92428" lon="4.09735">
        <ele>125.59</ele>
        <time>2017-04-02T11:24:57Z</time>
      </trkpt>
      <trkpt lat="43.9242" lon="4.09724">
        <ele>126.07</ele>
        <time>2017-04-02T11:25:10Z</time>
      </trkpt>
      <trkpt lat="43.92411" lon="4.09716">
        <ele>126.55</ele>
        <time>2017-04-02T11:25:23Z</time>
      </trkpt>
      <trkpt lat="43.92402" lon="4.09707">
        <ele>127.03</ele>
        <time>2017-04-02T11:25:35Z</time>
      </trkpt>
      <trkpt lat="43.92392" lon="4.09699">
        <ele>127.51</ele>
        <time>2017-04-02T11:25:46Z</time>
      </trkpt>
      <trkpt lat="43.92383" lon="4.09693">
        <ele>127.99</ele>
        <time>2017-04-02T11:25:57Z</time>
      </trkpt>
      <trkpt lat="43.92374" lon="4.09684">
        <ele>128.95</ele>
        <time>2017-04-02T11:26:09Z</time>
      </trkpt>
      <trkpt lat="43.92362" lon="4.09676">
        <ele>129.92</ele>
        <time>2017-04-02T11:26:21Z</time>
      </trkpt>
      <trkpt lat="43.92354" lon="4.09675">
        <ele>124.63</ele>
        <time>2017-04-02T11:29:04Z</time>
      </trkpt>
      <trkpt lat="43.92346" lon="4.09665">
        <ele>124.63</ele>
        <time>2017-04-02T11:29:16Z</time>
      </trkpt>
      <trkpt lat="43.92337" lon="4.09656">
        <ele>124.15</ele>
        <time>2017-04-02T11:29:27Z</time>
      </trkpt>
      <trkpt lat="43.92328" lon="4.09647">
        <ele>124.63</ele>
        <time>2017-04-02T11:29:39Z</time>
      </trkpt>
      <trkpt lat="43.92319" lon="4.09637">
        <ele>125.59</ele>
        <time>2017-04-02T11:29:50Z</time>
      </trkpt>
      <trkpt lat="43.92311" lon="4.09629">
        <ele>126.55</ele>
        <time>2017-04-02T11:30:02Z</time>
      </trkpt>
      <trkpt lat="43.92302" lon="4.09619">
        <ele>127.99</ele>
        <time>2017-04-02T11:30:14Z</time>
      </trkpt>
      <trkpt lat="43.92292" lon="4.09608">
        <ele>128.47</ele>
        <time>2017-04-02T11:30:27Z</time>
      </trkpt>
      <trkpt lat="43.92283" lon="4.09599">
        <ele>128.95</ele>
        <time>2017-04-02T11:30:40Z</time>
      </trkpt>
      <trkpt lat="43.92275" lon="4.0959">
        <ele>129.43</ele>
        <time>2017-04-02T11:30:52Z</time>
      </trkpt>
      <trkpt lat="43.92267" lon="4.0958">
        <ele>129.92</ele>
        <time>2017-04-02T11:31:04Z</time>
      </trkpt>
      <trkpt lat="43.92258" lon="4.0957">
        <ele>131.36</ele>
        <time>2017-04-02T11:31:17Z</time>
      </trkpt>
      <trkpt lat="43.92249" lon="4.0956">
        <ele>129.43</ele>
        <time>2017-04-02T11:31:28Z</time>
      </trkpt>
      <trkpt lat="43.92241" lon="4.09552">
        <ele>127.51</ele>
        <time>2017-04-02T11:31:39Z</time>
      </trkpt>
      <trkpt lat="43.92232" lon="4.09546">
        <ele>128.47</ele>
        <time>2017-04-02T11:31:49Z</time>
      </trkpt>
      <trkpt lat="43.92222" lon="4.09541">
        <ele>127.99</ele>
        <time>2017-04-02T11:32:00Z</time>
      </trkpt>
      <trkpt lat="43.92209" lon="4.09538">
        <ele>127.99</ele>
        <time>2017-04-02T11:32:11Z</time>
      </trkpt>
      <trkpt lat="43.92198" lon="4.09535">
        <ele>127.03</ele>
        <time>2017-04-02T11:32:23Z</time>
      </trkpt>
      <trkpt lat="43.92187" lon="4.0953">
        <ele>126.55</ele>
        <time>2017-04-02T11:32:35Z</time>
      </trkpt>
      <trkpt lat="43.92178" lon="4.09522">
        <ele>125.11</ele>
        <time>2017-04-02T11:32:46Z</time>
      </trkpt>
      <trkpt lat="43.92176" lon="4.09509">
        <ele>124.63</ele>
        <time>2017-04-02T11:32:55Z</time>
      </trkpt>
      <trkpt lat="43.92178" lon="4.09497">
        <ele>125.11</ele>
        <time>2017-04-02T11:33:04Z</time>
      </trkpt>
      <trkpt lat="43.92182" lon="4.09486">
        <ele>124.63</ele>
        <time>2017-04-02T11:33:13Z</time>
      </trkpt>
      <trkpt lat="43.92184" lon="4.09473">
        <ele>123.19</ele>
        <time>2017-04-02T11:33:23Z</time>
      </trkpt>
      <trkpt lat="43.92189" lon="4.09459">
        <ele>122.22</ele>
        <time>2017-04-02T11:33:33Z</time>
      </trkpt>
      <trkpt lat="43.92191" lon="4.09446">
        <ele>121.26</ele>
        <time>2017-04-02T11:33:42Z</time>
      </trkpt>
      <trkpt lat="43.92196" lon="4.09434">
        <ele>120.78</ele>
        <time>2017-04-02T11:33:50Z</time>
      </trkpt>
      <trkpt lat="43.922" lon="4.09422">
        <ele>118.86</ele>
        <time>2017-04-02T11:33:59Z</time>
      </trkpt>
      <trkpt lat="43.92201" lon="4.09413">
        <ele>116.94</ele>
        <time>2017-04-02T11:34:18Z</time>
      </trkpt>
      <trkpt lat="43.92204" lon="4.09399">
        <ele>116.46</ele>
        <time>2017-04-02T11:34:26Z</time>
      </trkpt>
      <trkpt lat="43.92208" lon="4.09387">
        <ele>115.98</ele>
        <time>2017-04-02T11:34:34Z</time>
      </trkpt>
      <trkpt lat="43.9221" lon="4.09375">
        <ele>115.98</ele>
        <time>2017-04-02T11:34:42Z</time>
      </trkpt>
      <trkpt lat="43.92214" lon="4.09366">
        <ele>116.94</ele>
        <time>2017-04-02T11:34:53Z</time>
      </trkpt>
      <trkpt lat="43.92208" lon="4.09361">
        <ele>116.94</ele>
        <time>2017-04-02T11:35:03Z</time>
      </trkpt>
      <trkpt lat="43.92202" lon="4.09359">
        <ele>119.82</ele>
        <time>2017-04-02T11:36:51Z</time>
      </trkpt>
      <trkpt lat="43.92195" lon="4.09355">
        <ele>117.9</ele>
        <time>2017-04-02T11:39:06Z</time>
      </trkpt>
      <trkpt lat="43.92198" lon="4.09355">
        <ele>116.94</ele>
        <time>2017-04-02T11:40:09Z</time>
      </trkpt>
      <trkpt lat="43.92205" lon="4.09356">
        <ele>116.46</ele>
        <time>2017-04-02T11:41:21Z</time>
      </trkpt>
      <trkpt lat="43.92214" lon="4.09359">
        <ele>116.94</ele>
        <time>2017-04-02T11:41:39Z</time>
      </trkpt>
      <trkpt lat="43.92213" lon="4.09366">
        <ele>117.42</ele>
        <time>2017-04-02T11:41:58Z</time>
      </trkpt>
      <trkpt lat="43.92217" lon="4.09364">
        <ele>117.42</ele>
        <time>2017-04-02T11:44:13Z</time>
      </trkpt>
      <trkpt lat="43.92221" lon="4.09351">
        <ele>117.9</ele>
        <time>2017-04-02T11:44:21Z</time>
      </trkpt>
      <trkpt lat="43.92225" lon="4.09339">
        <ele>117.9</ele>
        <time>2017-04-02T11:44:29Z</time>
      </trkpt>
      <trkpt lat="43.92228" lon="4.09326">
        <ele>117.42</ele>
        <time>2017-04-02T11:44:37Z</time>
      </trkpt>
      <trkpt lat="43.92229" lon="4.09314">
        <ele>118.38</ele>
        <time>2017-04-02T11:44:46Z</time>
      </trkpt>
      <trkpt lat="43.9223" lon="4.093">
        <ele>117.42</ele>
        <time>2017-04-02T11:44:54Z</time>
      </trkpt>
      <trkpt lat="43.92233" lon="4.09288">
        <ele>116.46</ele>
        <time>2017-04-02T11:45:03Z</time>
      </trkpt>
      <trkpt lat="43.92235" lon="4.09276">
        <ele>115.98</ele>
        <time>2017-04-02T11:45:12Z</time>
      </trkpt>
      <trkpt lat="43.92237" lon="4.09263">
        <ele>114.53</ele>
        <time>2017-04-02T11:45:21Z</time>
      </trkpt>
      <trkpt lat="43.9224" lon="4.0925">
        <ele>113.57</ele>
        <time>2017-04-02T11:45:30Z</time>
      </trkpt>
      <trkpt lat="43.92244" lon="4.09238">
        <ele>113.57</ele>
        <time>2017-04-02T11:45:47Z</time>
      </trkpt>
      <trkpt lat="43.92247" lon="4.09224">
        <ele>114.05</ele>
        <time>2017-04-02T11:45:56Z</time>
      </trkpt>
      <trkpt lat="43.92249" lon="4.09212">
        <ele>114.05</ele>
        <time>2017-04-02T11:46:04Z</time>
      </trkpt>
      <trkpt lat="43.92251" lon="4.09199">
        <ele>114.05</ele>
        <time>2017-04-02T11:46:13Z</time>
      </trkpt>
      <trkpt lat="43.92252" lon="4.09185">
        <ele>113.57</ele>
        <time>2017-04-02T11:46:22Z</time>
      </trkpt>
      <trkpt lat="43.92254" lon="4.09173">
        <ele>113.09</ele>
        <time>2017-04-02T11:46:31Z</time>
      </trkpt>
      <trkpt lat="43.92256" lon="4.09159">
        <ele>113.09</ele>
        <time>2017-04-02T11:46:40Z</time>
      </trkpt>
      <trkpt lat="43.92258" lon="4.09147">
        <ele>113.09</ele>
        <time>2017-04-02T11:46:48Z</time>
      </trkpt>
      <trkpt lat="43.92259" lon="4.09134">
        <ele>113.57</ele>
        <time>2017-04-02T11:46:56Z</time>
      </trkpt>
      <trkpt lat="43.9226" lon="4.09121">
        <ele>113.09</ele>
        <time>2017-04-02T11:47:04Z</time>
      </trkpt>
      <trkpt lat="43.92261" lon="4.09107">
        <ele>112.61</ele>
        <time>2017-04-02T11:47:13Z</time>
      </trkpt>
      <trkpt lat="43.92261" lon="4.09094">
        <ele>112.13</ele>
        <time>2017-04-02T11:47:21Z</time>
      </trkpt>
      <trkpt lat="43.92262" lon="4.09081">
        <ele>111.65</ele>
        <time>2017-04-02T11:47:30Z</time>
      </trkpt>
      <trkpt lat="43.92262" lon="4.09067">
        <ele>111.17</ele>
        <time>2017-04-02T11:47:39Z</time>
      </trkpt>
      <trkpt lat="43.92262" lon="4.09053">
        <ele>111.17</ele>
        <time>2017-04-02T11:47:48Z</time>
      </trkpt>
      <trkpt lat="43.92262" lon="4.09039">
        <ele>111.17</ele>
        <time>2017-04-02T11:47:57Z</time>
      </trkpt>
      <trkpt lat="43.92267" lon="4.0903">
        <ele>110.69</ele>
        <time>2017-04-02T11:48:06Z</time>
      </trkpt>
      <trkpt lat="43.92276" lon="4.09025">
        <ele>110.21</ele>
        <time>2017-04-02T11:48:16Z</time>
      </trkpt>
      <trkpt lat="43.92285" lon="4.09022">
        <ele>109.73</ele>
        <time>2017-04-02T11:48:25Z</time>
      </trkpt>
      <trkpt lat="43.92295" lon="4.09019">
        <ele>109.73</ele>
        <time>2017-04-02T11:48:34Z</time>
      </trkpt>
      <trkpt lat="43.92304" lon="4.09017">
        <ele>109.73</ele>
        <time>2017-04-02T11:48:42Z</time>
      </trkpt>
      <trkpt lat="43.92313" lon="4.09016">
        <ele>110.21</ele>
        <time>2017-04-02T11:48:50Z</time>
      </trkpt>
      <trkpt lat="43.92323" lon="4.09016">
        <ele>110.69</ele>
        <time>2017-04-02T11:48:59Z</time>
      </trkpt>
      <trkpt lat="43.92332" lon="4.09019">
        <ele>110.69</ele>
        <time>2017-04-02T11:49:08Z</time>
      </trkpt>
      <trkpt lat="43.92341" lon="4.0902">
        <ele>110.21</ele>
        <time>2017-04-02T11:49:17Z</time>
      </trkpt>
      <trkpt lat="43.9235" lon="4.09018">
        <ele>111.17</ele>
        <time>2017-04-02T11:49:27Z</time>
      </trkpt>
      <trkpt lat="43.92358" lon="4.09016">
        <ele>110.21</ele>
        <time>2017-04-02T11:49:45Z</time>
      </trkpt>
      <trkpt lat="43.92367" lon="4.09016">
        <ele>109.73</ele>
        <time>2017-04-02T11:49:55Z</time>
      </trkpt>
      <trkpt lat="43.92377" lon="4.09014">
        <ele>109.73</ele>
        <time>2017-04-02T11:50:05Z</time>
      </trkpt>
      <trkpt lat="43.92387" lon="4.09017">
        <ele>110.21</ele>
        <time>2017-04-02T11:50:16Z</time>
      </trkpt>
      <trkpt lat="43.92397" lon="4.09015">
        <ele>109.73</ele>
        <time>2017-04-02T11:50:25Z</time>
      </trkpt>
      <trkpt lat="43.92407" lon="4.09013">
        <ele>109.73</ele>
        <time>2017-04-02T11:50:34Z</time>
      </trkpt>
      <trkpt lat="43.92417" lon="4.09012">
        <ele>109.25</ele>
        <time>2017-04-02T11:50:43Z</time>
      </trkpt>
      <trkpt lat="43.92427" lon="4.0901">
        <ele>109.25</ele>
        <time>2017-04-02T11:50:52Z</time>
      </trkpt>
      <trkpt lat="43.92436" lon="4.09009">
        <ele>109.73</ele>
        <time>2017-04-02T11:51:01Z</time>
      </trkpt>
      <trkpt lat="43.92446" lon="4.09006">
        <ele>109.73</ele>
        <time>2017-04-02T11:51:09Z</time>
      </trkpt>
      <trkpt lat="43.92455" lon="4.09004">
        <ele>109.73</ele>
        <time>2017-04-02T11:51:18Z</time>
      </trkpt>
      <trkpt lat="43.92465" lon="4.09002">
        <ele>110.69</ele>
        <time>2017-04-02T11:51:27Z</time>
      </trkpt>
      <trkpt lat="43.92476" lon="4.09">
        <ele>111.65</ele>
        <time>2017-04-02T11:51:36Z</time>
      </trkpt>
      <trkpt lat="43.92485" lon="4.08998">
        <ele>112.13</ele>
        <time>2017-04-02T11:51:45Z</time>
      </trkpt>
      <trkpt lat="43.92493" lon="4.08995">
        <ele>111.65</ele>
        <time>2017-04-02T11:51:54Z</time>
      </trkpt>
      <trkpt lat="43.92501" lon="4.08986">
        <ele>112.61</ele>
        <time>2017-04-02T11:52:04Z</time>
      </trkpt>
      <trkpt lat="43.92505" lon="4.08973">
        <ele>114.53</ele>
        <time>2017-04-02T11:52:15Z</time>
      </trkpt>
      <trkpt lat="43.9251" lon="4.08961">
        <ele>114.05</ele>
        <time>2017-04-02T11:52:26Z</time>
      </trkpt>
      <trkpt lat="43.92518" lon="4.08952">
        <ele>115.01</ele>
        <time>2017-04-02T11:52:37Z</time>
      </trkpt>
      <trkpt lat="43.92526" lon="4.08943">
        <ele>116.94</ele>
        <time>2017-04-02T11:52:47Z</time>
      </trkpt>
      <trkpt lat="43.92533" lon="4.08932">
        <ele>118.86</ele>
        <time>2017-04-02T11:52:57Z</time>
      </trkpt>
      <trkpt lat="43.92536" lon="4.08917">
        <ele>121.74</ele>
        <time>2017-04-02T11:53:08Z</time>
      </trkpt>
      <trkpt lat="43.92534" lon="4.08904">
        <ele>121.26</ele>
        <time>2017-04-02T11:53:18Z</time>
      </trkpt>
      <trkpt lat="43.92534" lon="4.08891">
        <ele>121.74</ele>
        <time>2017-04-02T11:53:28Z</time>
      </trkpt>
      <trkpt lat="43.92533" lon="4.08877">
        <ele>123.67</ele>
        <time>2017-04-02T11:53:39Z</time>
      </trkpt>
      <trkpt lat="43.9253" lon="4.08863">
        <ele>127.51</ele>
        <time>2017-04-02T11:53:51Z</time>
      </trkpt>
      <trkpt lat="43.92528" lon="4.08849">
        <ele>133.76</ele>
        <time>2017-04-02T11:54:04Z</time>
      </trkpt>
      <trkpt lat="43.92525" lon="4.08833">
        <ele>136.64</ele>
        <time>2017-04-02T11:54:23Z</time>
      </trkpt>
      <trkpt lat="43.92522" lon="4.08819">
        <ele>142.41</ele>
        <time>2017-04-02T11:54:36Z</time>
      </trkpt>
      <trkpt lat="43.92518" lon="4.08803">
        <ele>141.45</ele>
        <time>2017-04-02T11:54:48Z</time>
      </trkpt>
      <trkpt lat="43.92513" lon="4.08785">
        <ele>136.64</ele>
        <time>2017-04-02T11:54:59Z</time>
      </trkpt>
      <trkpt lat="43.92514" lon="4.08769">
        <ele>139.53</ele>
        <time>2017-04-02T11:55:10Z</time>
      </trkpt>
      <trkpt lat="43.92515" lon="4.08752">
        <ele>139.05</ele>
        <time>2017-04-02T11:55:21Z</time>
      </trkpt>
      <trkpt lat="43.92515" lon="4.08736">
        <ele>139.53</ele>
        <time>2017-04-02T11:55:33Z</time>
      </trkpt>
      <trkpt lat="43.92509" lon="4.08724">
        <ele>140.49</ele>
        <time>2017-04-02T11:55:45Z</time>
      </trkpt>
      <trkpt lat="43.92513" lon="4.08709">
        <ele>141.93</ele>
        <time>2017-04-02T11:55:56Z</time>
      </trkpt>
      <trkpt lat="43.92509" lon="4.08692">
        <ele>141.45</ele>
        <time>2017-04-02T11:56:13Z</time>
      </trkpt>
      <trkpt lat="43.92505" lon="4.08679">
        <ele>150.1</ele>
        <time>2017-04-02T11:56:26Z</time>
      </trkpt>
      <trkpt lat="43.92502" lon="4.08658">
        <ele>158.75</ele>
        <time>2017-04-02T11:56:43Z</time>
      </trkpt>
      <trkpt lat="43.92494" lon="4.08639">
        <ele>166.45</ele>
        <time>2017-04-02T11:57:01Z</time>
      </trkpt>
      <trkpt lat="43.92488" lon="4.08616">
        <ele>159.72</ele>
        <time>2017-04-02T11:57:16Z</time>
      </trkpt>
      <trkpt lat="43.92474" lon="4.08603">
        <ele>149.62</ele>
        <time>2017-04-02T11:57:27Z</time>
      </trkpt>
      <trkpt lat="43.92464" lon="4.08591">
        <ele>141.93</ele>
        <time>2017-04-02T11:57:39Z</time>
      </trkpt>
      <trkpt lat="43.92451" lon="4.08581">
        <ele>134.24</ele>
        <time>2017-04-02T11:57:48Z</time>
      </trkpt>
      <trkpt lat="43.92439" lon="4.08566">
        <ele>129.43</ele>
        <time>2017-04-02T11:58:01Z</time>
      </trkpt>
      <trkpt lat="43.92428" lon="4.08556">
        <ele>127.51</ele>
        <time>2017-04-02T11:58:11Z</time>
      </trkpt>
      <trkpt lat="43.92418" lon="4.08547">
        <ele>125.11</ele>
        <time>2017-04-02T11:58:21Z</time>
      </trkpt>
      <trkpt lat="43.92407" lon="4.08537">
        <ele>124.15</ele>
        <time>2017-04-02T11:58:31Z</time>
      </trkpt>
      <trkpt lat="43.92398" lon="4.08528">
        <ele>124.63</ele>
        <time>2017-04-02T11:58:41Z</time>
      </trkpt>
      <trkpt lat="43.92391" lon="4.08519">
        <ele>124.15</ele>
        <time>2017-04-02T11:58:50Z</time>
      </trkpt>
      <trkpt lat="43.92385" lon="4.08507">
        <ele>123.19</ele>
        <time>2017-04-02T11:58:59Z</time>
      </trkpt>
      <trkpt lat="43.92383" lon="4.08494">
        <ele>124.15</ele>
        <time>2017-04-02T11:59:08Z</time>
      </trkpt>
      <trkpt lat="43.92385" lon="4.08481">
        <ele>124.63</ele>
        <time>2017-04-02T11:59:17Z</time>
      </trkpt>
      <trkpt lat="43.92389" lon="4.08468">
        <ele>124.63</ele>
        <time>2017-04-02T11:59:26Z</time>
      </trkpt>
      <trkpt lat="43.92394" lon="4.08455">
        <ele>125.11</ele>
        <time>2017-04-02T11:59:36Z</time>
      </trkpt>
      <trkpt lat="43.924" lon="4.08444">
        <ele>126.55</ele>
        <time>2017-04-02T11:59:46Z</time>
      </trkpt>
      <trkpt lat="43.92405" lon="4.08433">
        <ele>128.47</ele>
        <time>2017-04-02T11:59:57Z</time>
      </trkpt>
      <trkpt lat="43.92407" lon="4.08421">
        <ele>131.84</ele>
        <time>2017-04-02T12:00:08Z</time>
      </trkpt>
      <trkpt lat="43.92408" lon="4.08405">
        <ele>129.92</ele>
        <time>2017-04-02T12:00:18Z</time>
      </trkpt>
      <trkpt lat="43.9241" lon="4.08392">
        <ele>128.95</ele>
        <time>2017-04-02T12:00:28Z</time>
      </trkpt>
      <trkpt lat="43.92411" lon="4.08378">
        <ele>127.99</ele>
        <time>2017-04-02T12:00:39Z</time>
      </trkpt>
      <trkpt lat="43.92411" lon="4.08364">
        <ele>127.51</ele>
        <time>2017-04-02T12:00:48Z</time>
      </trkpt>
      <trkpt lat="43.9241" lon="4.08352">
        <ele>127.51</ele>
        <time>2017-04-02T12:00:57Z</time>
      </trkpt>
      <trkpt lat="43.92408" lon="4.08339">
        <ele>128.95</ele>
        <time>2017-04-02T12:01:07Z</time>
      </trkpt>
      <trkpt lat="43.92405" lon="4.08325">
        <ele>130.4</ele>
        <time>2017-04-02T12:01:19Z</time>
      </trkpt>
      <trkpt lat="43.924" lon="4.08312">
        <ele>131.36</ele>
        <time>2017-04-02T12:01:31Z</time>
      </trkpt>
      <trkpt lat="43.92396" lon="4.08298">
        <ele>131.84</ele>
        <time>2017-04-02T12:01:45Z</time>
      </trkpt>
      <trkpt lat="43.92389" lon="4.08286">
        <ele>132.32</ele>
        <time>2017-04-02T12:01:57Z</time>
      </trkpt>
      <trkpt lat="43.92381" lon="4.08275">
        <ele>133.28</ele>
        <time>2017-04-02T12:02:08Z</time>
      </trkpt>
      <trkpt lat="43.92372" lon="4.08264">
        <ele>134.72</ele>
        <time>2017-04-02T12:02:21Z</time>
      </trkpt>
      <trkpt lat="43.92365" lon="4.08252">
        <ele>140.97</ele>
        <time>2017-04-02T12:02:34Z</time>
      </trkpt>
      <trkpt lat="43.92355" lon="4.08241">
        <ele>143.37</ele>
        <time>2017-04-02T12:02:45Z</time>
      </trkpt>
      <trkpt lat="43.92345" lon="4.0823">
        <ele>141.93</ele>
        <time>2017-04-02T12:02:55Z</time>
      </trkpt>
      <trkpt lat="43.92338" lon="4.08219">
        <ele>142.41</ele>
        <time>2017-04-02T12:03:06Z</time>
      </trkpt>
      <trkpt lat="43.92329" lon="4.08208">
        <ele>141.93</ele>
        <time>2017-04-02T12:03:17Z</time>
      </trkpt>
      <trkpt lat="43.92322" lon="4.08197">
        <ele>139.53</ele>
        <time>2017-04-02T12:03:26Z</time>
      </trkpt>
      <trkpt lat="43.92313" lon="4.08187">
        <ele>137.13</ele>
        <time>2017-04-02T12:03:35Z</time>
      </trkpt>
      <trkpt lat="43.92306" lon="4.08176">
        <ele>136.16</ele>
        <time>2017-04-02T12:03:45Z</time>
      </trkpt>
      <trkpt lat="43.92298" lon="4.08163">
        <ele>134.72</ele>
        <time>2017-04-02T12:03:55Z</time>
      </trkpt>
      <trkpt lat="43.92291" lon="4.08154">
        <ele>134.72</ele>
        <time>2017-04-02T12:04:05Z</time>
      </trkpt>
      <trkpt lat="43.92284" lon="4.08141">
        <ele>132.32</ele>
        <time>2017-04-02T12:04:14Z</time>
      </trkpt>
      <trkpt lat="43.92278" lon="4.08131">
        <ele>132.8</ele>
        <time>2017-04-02T12:04:24Z</time>
      </trkpt>
      <trkpt lat="43.92275" lon="4.08117">
        <ele>139.05</ele>
        <time>2017-04-02T12:04:36Z</time>
      </trkpt>
      <trkpt lat="43.92278" lon="4.08099">
        <ele>145.3</ele>
        <time>2017-04-02T12:04:49Z</time>
      </trkpt>
      <trkpt lat="43.92282" lon="4.08083">
        <ele>153.95</ele>
        <time>2017-04-02T12:05:04Z</time>
      </trkpt>
      <trkpt lat="43.92285" lon="4.08067">
        <ele>155.39</ele>
        <time>2017-04-02T12:05:17Z</time>
      </trkpt>
      <trkpt lat="43.92286" lon="4.08049">
        <ele>155.39</ele>
        <time>2017-04-02T12:05:28Z</time>
      </trkpt>
      <trkpt lat="43.92285" lon="4.08029">
        <ele>148.66</ele>
        <time>2017-04-02T12:05:39Z</time>
      </trkpt>
      <trkpt lat="43.92286" lon="4.08013">
        <ele>145.78</ele>
        <time>2017-04-02T12:05:49Z</time>
      </trkpt>
      <trkpt lat="43.92287" lon="4.07999">
        <ele>145.78</ele>
        <time>2017-04-02T12:05:59Z</time>
      </trkpt>
      <trkpt lat="43.92287" lon="4.07983">
        <ele>143.37</ele>
        <time>2017-04-02T12:06:10Z</time>
      </trkpt>
      <trkpt lat="43.92292" lon="4.0797">
        <ele>145.78</ele>
        <time>2017-04-02T12:06:22Z</time>
      </trkpt>
      <trkpt lat="43.92295" lon="4.07954">
        <ele>146.26</ele>
        <time>2017-04-02T12:06:33Z</time>
      </trkpt>
      <trkpt lat="43.92298" lon="4.07939">
        <ele>144.82</ele>
        <time>2017-04-02T12:06:43Z</time>
      </trkpt>
      <trkpt lat="43.92299" lon="4.07924">
        <ele>142.89</ele>
        <time>2017-04-02T12:06:54Z</time>
      </trkpt>
      <trkpt lat="43.92302" lon="4.07908">
        <ele>142.41</ele>
        <time>2017-04-02T12:07:05Z</time>
      </trkpt>
      <trkpt lat="43.92304" lon="4.07895">
        <ele>144.82</ele>
        <time>2017-04-02T12:07:16Z</time>
      </trkpt>
      <trkpt lat="43.92303" lon="4.07881">
        <ele>147.22</ele>
        <time>2017-04-02T12:07:28Z</time>
      </trkpt>
      <trkpt lat="43.92299" lon="4.07862">
        <ele>155.87</ele>
        <time>2017-04-02T12:07:43Z</time>
      </trkpt>
      <trkpt lat="43.92295" lon="4.07845">
        <ele>157.31</ele>
        <time>2017-04-02T12:07:54Z</time>
      </trkpt>
      <trkpt lat="43.92293" lon="4.07831">
        <ele>152.51</ele>
        <time>2017-04-02T12:08:03Z</time>
      </trkpt>
      <trkpt lat="43.92289" lon="4.07819">
        <ele>150.58</ele>
        <time>2017-04-02T12:08:12Z</time>
      </trkpt>
      <trkpt lat="43.92284" lon="4.07806">
        <ele>148.66</ele>
        <time>2017-04-02T12:08:22Z</time>
      </trkpt>
      <trkpt lat="43.92279" lon="4.07794">
        <ele>146.74</ele>
        <time>2017-04-02T12:08:32Z</time>
      </trkpt>
      <trkpt lat="43.92273" lon="4.07783">
        <ele>148.18</ele>
        <time>2017-04-02T12:08:42Z</time>
      </trkpt>
      <trkpt lat="43.92265" lon="4.07765">
        <ele>141.93</ele>
        <time>2017-04-02T12:09:01Z</time>
      </trkpt>
      <trkpt lat="43.92261" lon="4.07754">
        <ele>139.05</ele>
        <time>2017-04-02T12:09:12Z</time>
      </trkpt>
      <trkpt lat="43.92257" lon="4.0774">
        <ele>138.09</ele>
        <time>2017-04-02T12:09:22Z</time>
      </trkpt>
      <trkpt lat="43.92254" lon="4.07727">
        <ele>136.64</ele>
        <time>2017-04-02T12:09:31Z</time>
      </trkpt>
      <trkpt lat="43.92251" lon="4.07713">
        <ele>137.61</ele>
        <time>2017-04-02T12:09:40Z</time>
      </trkpt>
      <trkpt lat="43.92248" lon="4.07699">
        <ele>140.49</ele>
        <time>2017-04-02T12:09:50Z</time>
      </trkpt>
      <trkpt lat="43.92247" lon="4.07684">
        <ele>140.49</ele>
        <time>2017-04-02T12:09:59Z</time>
      </trkpt>
      <trkpt lat="43.92249" lon="4.07669">
        <ele>143.37</ele>
        <time>2017-04-02T12:10:09Z</time>
      </trkpt>
      <trkpt lat="43.92252" lon="4.07655">
        <ele>144.34</ele>
        <time>2017-04-02T12:10:20Z</time>
      </trkpt>
      <trkpt lat="43.92258" lon="4.07644">
        <ele>143.85</ele>
        <time>2017-04-02T12:10:34Z</time>
      </trkpt>
      <trkpt lat="43.92262" lon="4.0763">
        <ele>142.89</ele>
        <time>2017-04-02T12:10:44Z</time>
      </trkpt>
      <trkpt lat="43.92267" lon="4.07618">
        <ele>141.45</ele>
        <time>2017-04-02T12:10:54Z</time>
      </trkpt>
      <trkpt lat="43.9227" lon="4.07605">
        <ele>141.93</ele>
        <time>2017-04-02T12:11:05Z</time>
      </trkpt>
      <trkpt lat="43.92271" lon="4.07592">
        <ele>141.45</ele>
        <time>2017-04-02T12:11:15Z</time>
      </trkpt>
      <trkpt lat="43.92271" lon="4.0758">
        <ele>141.93</ele>
        <time>2017-04-02T12:11:26Z</time>
      </trkpt>
      <trkpt lat="43.92267" lon="4.07567">
        <ele>142.41</ele>
        <time>2017-04-02T12:11:36Z</time>
      </trkpt>
      <trkpt lat="43.92265" lon="4.07555">
        <ele>142.89</ele>
        <time>2017-04-02T12:11:45Z</time>
      </trkpt>
      <trkpt lat="43.92265" lon="4.07541">
        <ele>145.3</ele>
        <time>2017-04-02T12:11:58Z</time>
      </trkpt>
      <trkpt lat="43.92265" lon="4.07531">
        <ele>142.89</ele>
        <time>2017-04-02T12:12:36Z</time>
      </trkpt>
      <trkpt lat="43.92268" lon="4.07519">
        <ele>142.89</ele>
        <time>2017-04-02T12:12:47Z</time>
      </trkpt>
      <trkpt lat="43.92269" lon="4.07507">
        <ele>143.37</ele>
        <time>2017-04-02T12:12:57Z</time>
      </trkpt>
      <trkpt lat="43.92269" lon="4.07492">
        <ele>143.85</ele>
        <time>2017-04-02T12:13:06Z</time>
      </trkpt>
      <trkpt lat="43.92273" lon="4.07479">
        <ele>144.34</ele>
        <time>2017-04-02T12:13:15Z</time>
      </trkpt>
      <trkpt lat="43.92276" lon="4.07467">
        <ele>144.34</ele>
        <time>2017-04-02T12:13:24Z</time>
      </trkpt>
      <trkpt lat="43.92281" lon="4.07456">
        <ele>144.34</ele>
        <time>2017-04-02T12:13:33Z</time>
      </trkpt>
      <trkpt lat="43.92286" lon="4.07444">
        <ele>145.3</ele>
        <time>2017-04-02T12:13:42Z</time>
      </trkpt>
      <trkpt lat="43.92292" lon="4.07434">
        <ele>146.26</ele>
        <time>2017-04-02T12:13:51Z</time>
      </trkpt>
      <trkpt lat="43.92299" lon="4.07424">
        <ele>146.26</ele>
        <time>2017-04-02T12:14:02Z</time>
      </trkpt>
      <trkpt lat="43.92304" lon="4.07412">
        <ele>146.74</ele>
        <time>2017-04-02T12:14:13Z</time>
      </trkpt>
      <trkpt lat="43.92308" lon="4.074">
        <ele>145.78</ele>
        <time>2017-04-02T12:14:23Z</time>
      </trkpt>
      <trkpt lat="43.92313" lon="4.07389">
        <ele>146.26</ele>
        <time>2017-04-02T12:14:32Z</time>
      </trkpt>
      <trkpt lat="43.92319" lon="4.07378">
        <ele>146.26</ele>
        <time>2017-04-02T12:14:41Z</time>
      </trkpt>
      <trkpt lat="43.92325" lon="4.07367">
        <ele>146.26</ele>
        <time>2017-04-02T12:14:50Z</time>
      </trkpt>
      <trkpt lat="43.92331" lon="4.07356">
        <ele>146.26</ele>
        <time>2017-04-02T12:14:59Z</time>
      </trkpt>
      <trkpt lat="43.92337" lon="4.07345">
        <ele>146.26</ele>
        <time>2017-04-02T12:15:09Z</time>
      </trkpt>
      <trkpt lat="43.92343" lon="4.07334">
        <ele>148.66</ele>
        <time>2017-04-02T12:15:18Z</time>
      </trkpt>
      <trkpt lat="43.92349" lon="4.07323">
        <ele>150.58</ele>
        <time>2017-04-02T12:15:28Z</time>
      </trkpt>
      <trkpt lat="43.92354" lon="4.0731">
        <ele>152.51</ele>
        <time>2017-04-02T12:15:39Z</time>
      </trkpt>
      <trkpt lat="43.9236" lon="4.073">
        <ele>151.54</ele>
        <time>2017-04-02T12:15:49Z</time>
      </trkpt>
      <trkpt lat="43.92367" lon="4.07289">
        <ele>152.03</ele>
        <time>2017-04-02T12:15:59Z</time>
      </trkpt>
      <trkpt lat="43.92374" lon="4.07279">
        <ele>152.51</ele>
        <time>2017-04-02T12:16:09Z</time>
      </trkpt>
      <trkpt lat="43.92381" lon="4.07269">
        <ele>152.99</ele>
        <time>2017-04-02T12:16:19Z</time>
      </trkpt>
      <trkpt lat="43.92389" lon="4.07258">
        <ele>155.39</ele>
        <time>2017-04-02T12:16:30Z</time>
      </trkpt>
      <trkpt lat="43.92396" lon="4.07247">
        <ele>155.39</ele>
        <time>2017-04-02T12:16:41Z</time>
      </trkpt>
      <trkpt lat="43.92402" lon="4.07237">
        <ele>154.91</ele>
        <time>2017-04-02T12:16:51Z</time>
      </trkpt>
      <trkpt lat="43.92408" lon="4.07226">
        <ele>154.43</ele>
        <time>2017-04-02T12:17:01Z</time>
      </trkpt>
      <trkpt lat="43.92414" lon="4.07216">
        <ele>155.87</ele>
        <time>2017-04-02T12:17:11Z</time>
      </trkpt>
      <trkpt lat="43.9242" lon="4.07204">
        <ele>157.79</ele>
        <time>2017-04-02T12:17:22Z</time>
      </trkpt>
      <trkpt lat="43.92426" lon="4.07193">
        <ele>159.24</ele>
        <time>2017-04-02T12:17:33Z</time>
      </trkpt>
      <trkpt lat="43.92434" lon="4.07184">
        <ele>159.72</ele>
        <time>2017-04-02T12:17:43Z</time>
      </trkpt>
      <trkpt lat="43.92442" lon="4.07175">
        <ele>160.2</ele>
        <time>2017-04-02T12:17:54Z</time>
      </trkpt>
      <trkpt lat="43.92449" lon="4.07166">
        <ele>160.2</ele>
        <time>2017-04-02T12:18:05Z</time>
      </trkpt>
      <trkpt lat="43.92456" lon="4.07155">
        <ele>159.72</ele>
        <time>2017-04-02T12:18:15Z</time>
      </trkpt>
      <trkpt lat="43.92463" lon="4.07146">
        <ele>159.72</ele>
        <time>2017-04-02T12:18:24Z</time>
      </trkpt>
      <trkpt lat="43.9247" lon="4.07138">
        <ele>159.24</ele>
        <time>2017-04-02T12:18:35Z</time>
      </trkpt>
      <trkpt lat="43.92476" lon="4.07129">
        <ele>160.2</ele>
        <time>2017-04-02T12:18:47Z</time>
      </trkpt>
      <trkpt lat="43.9248" lon="4.07116">
        <ele>158.27</ele>
        <time>2017-04-02T12:19:00Z</time>
      </trkpt>
      <trkpt lat="43.92482" lon="4.07103">
        <ele>156.35</ele>
        <time>2017-04-02T12:19:12Z</time>
      </trkpt>
      <trkpt lat="43.92485" lon="4.0709">
        <ele>155.39</ele>
        <time>2017-04-02T12:19:22Z</time>
      </trkpt>
      <trkpt lat="43.92489" lon="4.07077">
        <ele>153.95</ele>
        <time>2017-04-02T12:19:32Z</time>
      </trkpt>
      <trkpt lat="43.92492" lon="4.07065">
        <ele>152.99</ele>
        <time>2017-04-02T12:19:42Z</time>
      </trkpt>
      <trkpt lat="43.92493" lon="4.07053">
        <ele>153.47</ele>
        <time>2017-04-02T12:19:52Z</time>
      </trkpt>
      <trkpt lat="43.92493" lon="4.07039">
        <ele>155.87</ele>
        <time>2017-04-02T12:20:04Z</time>
      </trkpt>
      <trkpt lat="43.92493" lon="4.07025">
        <ele>156.35</ele>
        <time>2017-04-02T12:20:15Z</time>
      </trkpt>
      <trkpt lat="43.92492" lon="4.0701">
        <ele>154.91</ele>
        <time>2017-04-02T12:20:26Z</time>
      </trkpt>
      <trkpt lat="43.92492" lon="4.06995">
        <ele>155.87</ele>
        <time>2017-04-02T12:20:36Z</time>
      </trkpt>
      <trkpt lat="43.92491" lon="4.06982">
        <ele>156.35</ele>
        <time>2017-04-02T12:20:46Z</time>
      </trkpt>
      <trkpt lat="43.9249" lon="4.06968">
        <ele>156.35</ele>
        <time>2017-04-02T12:20:56Z</time>
      </trkpt>
      <trkpt lat="43.9249" lon="4.06952">
        <ele>155.87</ele>
        <time>2017-04-02T12:21:06Z</time>
      </trkpt>
      <trkpt lat="43.9249" lon="4.06937">
        <ele>154.43</ele>
        <time>2017-04-02T12:21:17Z</time>
      </trkpt>
      <trkpt lat="43.92486" lon="4.06925">
        <ele>153.95</ele>
        <time>2017-04-02T12:21:28Z</time>
      </trkpt>
      <trkpt lat="43.92481" lon="4.06913">
        <ele>153.95</ele>
        <time>2017-04-02T12:21:38Z</time>
      </trkpt>
      <trkpt lat="43.92477" lon="4.069">
        <ele>153.95</ele>
        <time>2017-04-02T12:21:48Z</time>
      </trkpt>
      <trkpt lat="43.92474" lon="4.06886">
        <ele>155.87</ele>
        <time>2017-04-02T12:21:59Z</time>
      </trkpt>
      <trkpt lat="43.92476" lon="4.06881">
        <ele>150.58</ele>
        <time>2017-04-02T12:22:46Z</time>
      </trkpt>
      <trkpt lat="43.92477" lon="4.06869">
        <ele>148.66</ele>
        <time>2017-04-02T12:22:54Z</time>
      </trkpt>
      <trkpt lat="43.92476" lon="4.06856">
        <ele>149.62</ele>
        <time>2017-04-02T12:23:02Z</time>
      </trkpt>
      <trkpt lat="43.92473" lon="4.06842">
        <ele>150.58</ele>
        <time>2017-04-02T12:23:10Z</time>
      </trkpt>
      <trkpt lat="43.92471" lon="4.06829">
        <ele>150.1</ele>
        <time>2017-04-02T12:23:18Z</time>
      </trkpt>
      <trkpt lat="43.92469" lon="4.06813">
        <ele>150.1</ele>
        <time>2017-04-02T12:23:26Z</time>
      </trkpt>
      <trkpt lat="43.92467" lon="4.068">
        <ele>148.66</ele>
        <time>2017-04-02T12:23:33Z</time>
      </trkpt>
      <trkpt lat="43.92465" lon="4.06787">
        <ele>146.74</ele>
        <time>2017-04-02T12:23:41Z</time>
      </trkpt>
      <trkpt lat="43.92462" lon="4.06773">
        <ele>145.3</ele>
        <time>2017-04-02T12:23:50Z</time>
      </trkpt>
      <trkpt lat="43.92456" lon="4.06763">
        <ele>144.82</ele>
        <time>2017-04-02T12:23:59Z</time>
      </trkpt>
      <trkpt lat="43.92449" lon="4.06751">
        <ele>146.74</ele>
        <time>2017-04-02T12:24:08Z</time>
      </trkpt>
      <trkpt lat="43.92443" lon="4.06741">
        <ele>148.18</ele>
        <time>2017-04-02T12:24:16Z</time>
      </trkpt>
      <trkpt lat="43.92435" lon="4.06731">
        <ele>148.66</ele>
        <time>2017-04-02T12:24:25Z</time>
      </trkpt>
      <trkpt lat="43.92427" lon="4.06722">
        <ele>147.22</ele>
        <time>2017-04-02T12:24:33Z</time>
      </trkpt>
      <trkpt lat="43.92423" lon="4.0671">
        <ele>145.78</ele>
        <time>2017-04-02T12:24:51Z</time>
      </trkpt>
      <trkpt lat="43.92414" lon="4.06701">
        <ele>146.74</ele>
        <time>2017-04-02T12:25:03Z</time>
      </trkpt>
      <trkpt lat="43.92409" lon="4.06687">
        <ele>146.26</ele>
        <time>2017-04-02T12:25:14Z</time>
      </trkpt>
      <trkpt lat="43.92402" lon="4.06677">
        <ele>144.82</ele>
        <time>2017-04-02T12:25:24Z</time>
      </trkpt>
      <trkpt lat="43.92393" lon="4.06666">
        <ele>142.41</ele>
        <time>2017-04-02T12:25:35Z</time>
      </trkpt>
      <trkpt lat="43.92385" lon="4.06657">
        <ele>141.93</ele>
        <time>2017-04-02T12:25:46Z</time>
      </trkpt>
      <trkpt lat="43.9238" lon="4.06646">
        <ele>141.45</ele>
        <time>2017-04-02T12:25:56Z</time>
      </trkpt>
      <trkpt lat="43.92373" lon="4.06633">
        <ele>140.49</ele>
        <time>2017-04-02T12:26:06Z</time>
      </trkpt>
      <trkpt lat="43.92365" lon="4.06624">
        <ele>138.09</ele>
        <time>2017-04-02T12:26:15Z</time>
      </trkpt>
      <trkpt lat="43.92359" lon="4.06613">
        <ele>136.64</ele>
        <time>2017-04-02T12:26:25Z</time>
      </trkpt>
      <trkpt lat="43.92353" lon="4.06603">
        <ele>136.64</ele>
        <time>2017-04-02T12:26:34Z</time>
      </trkpt>
      <trkpt lat="43.92348" lon="4.06589">
        <ele>135.68</ele>
        <time>2017-04-02T12:26:44Z</time>
      </trkpt>
      <trkpt lat="43.92345" lon="4.06578">
        <ele>134.72</ele>
        <time>2017-04-02T12:26:53Z</time>
      </trkpt>
      <trkpt lat="43.92345" lon="4.06564">
        <ele>132.32</ele>
        <time>2017-04-02T12:27:04Z</time>
      </trkpt>
      <trkpt lat="43.92347" lon="4.06551">
        <ele>131.36</ele>
        <time>2017-04-02T12:27:13Z</time>
      </trkpt>
      <trkpt lat="43.92349" lon="4.06538">
        <ele>130.4</ele>
        <time>2017-04-02T12:27:22Z</time>
      </trkpt>
      <trkpt lat="43.92346" lon="4.06526">
        <ele>128.95</ele>
        <time>2017-04-02T12:27:31Z</time>
      </trkpt>
      <trkpt lat="43.92342" lon="4.06513">
        <ele>127.99</ele>
        <time>2017-04-02T12:27:40Z</time>
      </trkpt>
      <trkpt lat="43.92336" lon="4.06503">
        <ele>126.55</ele>
        <time>2017-04-02T12:27:48Z</time>
      </trkpt>
      <trkpt lat="43.9233" lon="4.06495">
        <ele>126.07</ele>
        <time>2017-04-02T12:27:56Z</time>
      </trkpt>
      <trkpt lat="43.92324" lon="4.06485">
        <ele>126.07</ele>
        <time>2017-04-02T12:28:05Z</time>
      </trkpt>
      <trkpt lat="43.92319" lon="4.06474">
        <ele>125.11</ele>
        <time>2017-04-02T12:28:14Z</time>
      </trkpt>
      <trkpt lat="43.92314" lon="4.0646">
        <ele>125.11</ele>
        <time>2017-04-02T12:28:24Z</time>
      </trkpt>
      <trkpt lat="43.92311" lon="4.06447">
        <ele>124.63</ele>
        <time>2017-04-02T12:28:33Z</time>
      </trkpt>
      <trkpt lat="43.92311" lon="4.06432">
        <ele>125.11</ele>
        <time>2017-04-02T12:28:42Z</time>
      </trkpt>
      <trkpt lat="43.92312" lon="4.06418">
        <ele>127.99</ele>
        <time>2017-04-02T12:28:51Z</time>
      </trkpt>
      <trkpt lat="43.92314" lon="4.06406">
        <ele>127.99</ele>
        <time>2017-04-02T12:29:00Z</time>
      </trkpt>
      <trkpt lat="43.92316" lon="4.06391">
        <ele>127.03</ele>
        <time>2017-04-02T12:29:09Z</time>
      </trkpt>
      <trkpt lat="43.92315" lon="4.06377">
        <ele>124.63</ele>
        <time>2017-04-02T12:29:17Z</time>
      </trkpt>
      <trkpt lat="43.92312" lon="4.06365">
        <ele>122.71</ele>
        <time>2017-04-02T12:29:26Z</time>
      </trkpt>
      <trkpt lat="43.92308" lon="4.06353">
        <ele>122.71</ele>
        <time>2017-04-02T12:29:36Z</time>
      </trkpt>
      <trkpt lat="43.92304" lon="4.06342">
        <ele>123.19</ele>
        <time>2017-04-02T12:29:46Z</time>
      </trkpt>
      <trkpt lat="43.923" lon="4.0633">
        <ele>122.71</ele>
        <time>2017-04-02T12:29:56Z</time>
      </trkpt>
      <trkpt lat="43.92293" lon="4.06321">
        <ele>121.26</ele>
        <time>2017-04-02T12:30:06Z</time>
      </trkpt>
      <trkpt lat="43.92288" lon="4.06309">
        <ele>121.26</ele>
        <time>2017-04-02T12:30:18Z</time>
      </trkpt>
      <trkpt lat="43.92282" lon="4.063">
        <ele>122.22</ele>
        <time>2017-04-02T12:30:28Z</time>
      </trkpt>
      <trkpt lat="43.92276" lon="4.06289">
        <ele>123.19</ele>
        <time>2017-04-02T12:30:38Z</time>
      </trkpt>
      <trkpt lat="43.92269" lon="4.06279">
        <ele>123.67</ele>
        <time>2017-04-02T12:30:48Z</time>
      </trkpt>
      <trkpt lat="43.92263" lon="4.06268">
        <ele>124.63</ele>
        <time>2017-04-02T12:30:58Z</time>
      </trkpt>
      <trkpt lat="43.92256" lon="4.06259">
        <ele>125.11</ele>
        <time>2017-04-02T12:31:08Z</time>
      </trkpt>
      <trkpt lat="43.9225" lon="4.06248">
        <ele>125.11</ele>
        <time>2017-04-02T12:31:17Z</time>
      </trkpt>
      <trkpt lat="43.92242" lon="4.06239">
        <ele>125.59</ele>
        <time>2017-04-02T12:31:26Z</time>
      </trkpt>
      <trkpt lat="43.92234" lon="4.06229">
        <ele>125.59</ele>
        <time>2017-04-02T12:31:35Z</time>
      </trkpt>
      <trkpt lat="43.92227" lon="4.06221">
        <ele>125.59</ele>
        <time>2017-04-02T12:31:44Z</time>
      </trkpt>
      <trkpt lat="43.92219" lon="4.06214">
        <ele>124.15</ele>
        <time>2017-04-02T12:31:53Z</time>
      </trkpt>
      <trkpt lat="43.9221" lon="4.0621">
        <ele>123.67</ele>
        <time>2017-04-02T12:32:02Z</time>
      </trkpt>
      <trkpt lat="43.922" lon="4.06202">
        <ele>125.11</ele>
        <time>2017-04-02T12:32:12Z</time>
      </trkpt>
      <trkpt lat="43.92196" lon="4.06188">
        <ele>127.03</ele>
        <time>2017-04-02T12:32:24Z</time>
      </trkpt>
      <trkpt lat="43.92201" lon="4.06176">
        <ele>127.51</ele>
        <time>2017-04-02T12:32:35Z</time>
      </trkpt>
      <trkpt lat="43.92209" lon="4.06164">
        <ele>128.47</ele>
        <time>2017-04-02T12:32:45Z</time>
      </trkpt>
      <trkpt lat="43.92212" lon="4.06152">
        <ele>126.55</ele>
        <time>2017-04-02T12:32:54Z</time>
      </trkpt>
      <trkpt lat="43.92212" lon="4.06138">
        <ele>124.15</ele>
        <time>2017-04-02T12:33:03Z</time>
      </trkpt>
      <trkpt lat="43.92208" lon="4.06126">
        <ele>124.15</ele>
        <time>2017-04-02T12:33:12Z</time>
      </trkpt>
      <trkpt lat="43.92204" lon="4.06115">
        <ele>122.71</ele>
        <time>2017-04-02T12:33:20Z</time>
      </trkpt>
      <trkpt lat="43.92198" lon="4.06103">
        <ele>124.15</ele>
        <time>2017-04-02T12:33:29Z</time>
      </trkpt>
      <trkpt lat="43.92195" lon="4.06089">
        <ele>125.11</ele>
        <time>2017-04-02T12:33:38Z</time>
      </trkpt>
      <trkpt lat="43.92193" lon="4.06075">
        <ele>124.15</ele>
        <time>2017-04-02T12:33:47Z</time>
      </trkpt>
      <trkpt lat="43.92191" lon="4.06061">
        <ele>125.11</ele>
        <time>2017-04-02T12:33:57Z</time>
      </trkpt>
      <trkpt lat="43.92188" lon="4.06048">
        <ele>124.63</ele>
        <time>2017-04-02T12:34:06Z</time>
      </trkpt>
      <trkpt lat="43.92187" lon="4.06034">
        <ele>123.67</ele>
        <time>2017-04-02T12:34:15Z</time>
      </trkpt>
      <trkpt lat="43.92188" lon="4.0602">
        <ele>121.26</ele>
        <time>2017-04-02T12:34:24Z</time>
      </trkpt>
      <trkpt lat="43.92188" lon="4.06006">
        <ele>118.38</ele>
        <time>2017-04-02T12:34:33Z</time>
      </trkpt>
      <trkpt lat="43.92186" lon="4.05993">
        <ele>116.94</ele>
        <time>2017-04-02T12:34:42Z</time>
      </trkpt>
      <trkpt lat="43.92183" lon="4.05981">
        <ele>115.98</ele>
        <time>2017-04-02T12:34:51Z</time>
      </trkpt>
      <trkpt lat="43.9218" lon="4.05967">
        <ele>114.53</ele>
        <time>2017-04-02T12:35:00Z</time>
      </trkpt>
      <trkpt lat="43.92176" lon="4.05955">
        <ele>114.53</ele>
        <time>2017-04-02T12:35:08Z</time>
      </trkpt>
      <trkpt lat="43.92173" lon="4.05942">
        <ele>115.98</ele>
        <time>2017-04-02T12:35:18Z</time>
      </trkpt>
      <trkpt lat="43.92171" lon="4.05929">
        <ele>116.94</ele>
        <time>2017-04-02T12:35:27Z</time>
      </trkpt>
      <trkpt lat="43.9217" lon="4.05914">
        <ele>116.46</ele>
        <time>2017-04-02T12:35:37Z</time>
      </trkpt>
      <trkpt lat="43.92172" lon="4.059">
        <ele>115.98</ele>
        <time>2017-04-02T12:35:46Z</time>
      </trkpt>
      <trkpt lat="43.92172" lon="4.05887">
        <ele>116.94</ele>
        <time>2017-04-02T12:35:55Z</time>
      </trkpt>
      <trkpt lat="43.92173" lon="4.05874">
        <ele>116.94</ele>
        <time>2017-04-02T12:36:03Z</time>
      </trkpt>
      <trkpt lat="43.92175" lon="4.0586">
        <ele>118.38</ele>
        <time>2017-04-02T12:36:12Z</time>
      </trkpt>
      <trkpt lat="43.92177" lon="4.05848">
        <ele>117.9</ele>
        <time>2017-04-02T12:36:20Z</time>
      </trkpt>
      <trkpt lat="43.92179" lon="4.05834">
        <ele>115.5</ele>
        <time>2017-04-02T12:36:30Z</time>
      </trkpt>
      <trkpt lat="43.9218" lon="4.0582">
        <ele>115.98</ele>
        <time>2017-04-02T12:36:40Z</time>
      </trkpt>
      <trkpt lat="43.9218" lon="4.05806">
        <ele>115.01</ele>
        <time>2017-04-02T12:36:50Z</time>
      </trkpt>
      <trkpt lat="43.9218" lon="4.05793">
        <ele>114.53</ele>
        <time>2017-04-02T12:37:00Z</time>
      </trkpt>
      <trkpt lat="43.92179" lon="4.0578">
        <ele>113.09</ele>
        <time>2017-04-02T12:37:09Z</time>
      </trkpt>
      <trkpt lat="43.92177" lon="4.05768">
        <ele>113.57</ele>
        <time>2017-04-02T12:37:18Z</time>
      </trkpt>
      <trkpt lat="43.92174" lon="4.05756">
        <ele>113.09</ele>
        <time>2017-04-02T12:37:27Z</time>
      </trkpt>
      <trkpt lat="43.92171" lon="4.05744">
        <ele>114.05</ele>
        <time>2017-04-02T12:37:36Z</time>
      </trkpt>
      <trkpt lat="43.92169" lon="4.0573">
        <ele>115.5</ele>
        <time>2017-04-02T12:37:45Z</time>
      </trkpt>
      <trkpt lat="43.92165" lon="4.05717">
        <ele>115.01</ele>
        <time>2017-04-02T12:37:54Z</time>
      </trkpt>
      <trkpt lat="43.92161" lon="4.05705">
        <ele>115.98</ele>
        <time>2017-04-02T12:38:03Z</time>
      </trkpt>
      <trkpt lat="43.92155" lon="4.05693">
        <ele>116.46</ele>
        <time>2017-04-02T12:38:13Z</time>
      </trkpt>
      <trkpt lat="43.92151" lon="4.0568">
        <ele>115.5</ele>
        <time>2017-04-02T12:38:21Z</time>
      </trkpt>
      <trkpt lat="43.92148" lon="4.05667">
        <ele>114.53</ele>
        <time>2017-04-02T12:38:29Z</time>
      </trkpt>
      <trkpt lat="43.92146" lon="4.05656">
        <ele>116.46</ele>
        <time>2017-04-02T12:38:40Z</time>
      </trkpt>
      <trkpt lat="43.92143" lon="4.05647">
        <ele>115.01</ele>
        <time>2017-04-02T12:39:14Z</time>
      </trkpt>
      <trkpt lat="43.92139" lon="4.05643">
        <ele>110.69</ele>
        <time>2017-04-02T12:42:12Z</time>
      </trkpt>
      <trkpt lat="43.92136" lon="4.05631">
        <ele>113.57</ele>
        <time>2017-04-02T12:42:21Z</time>
      </trkpt>
      <trkpt lat="43.92133" lon="4.05619">
        <ele>115.98</ele>
        <time>2017-04-02T12:42:31Z</time>
      </trkpt>
      <trkpt lat="43.92129" lon="4.05606">
        <ele>118.86</ele>
        <time>2017-04-02T12:42:41Z</time>
      </trkpt>
      <trkpt lat="43.92124" lon="4.05593">
        <ele>121.26</ele>
        <time>2017-04-02T12:42:51Z</time>
      </trkpt>
      <trkpt lat="43.92119" lon="4.0558">
        <ele>123.67</ele>
        <time>2017-04-02T12:43:01Z</time>
      </trkpt>
      <trkpt lat="43.92115" lon="4.05567">
        <ele>124.15</ele>
        <time>2017-04-02T12:43:11Z</time>
      </trkpt>
      <trkpt lat="43.9211" lon="4.05555">
        <ele>127.51</ele>
        <time>2017-04-02T12:43:20Z</time>
      </trkpt>
      <trkpt lat="43.92104" lon="4.05541">
        <ele>130.4</ele>
        <time>2017-04-02T12:43:31Z</time>
      </trkpt>
      <trkpt lat="43.921" lon="4.05525">
        <ele>130.88</ele>
        <time>2017-04-02T12:43:41Z</time>
      </trkpt>
      <trkpt lat="43.92096" lon="4.05511">
        <ele>130.4</ele>
        <time>2017-04-02T12:43:51Z</time>
      </trkpt>
      <trkpt lat="43.9209" lon="4.05498">
        <ele>129.92</ele>
        <time>2017-04-02T12:44:01Z</time>
      </trkpt>
      <trkpt lat="43.92083" lon="4.05486">
        <ele>131.36</ele>
        <time>2017-04-02T12:44:11Z</time>
      </trkpt>
      <trkpt lat="43.92074" lon="4.05477">
        <ele>135.68</ele>
        <time>2017-04-02T12:44:22Z</time>
      </trkpt>
      <trkpt lat="43.92065" lon="4.05472">
        <ele>140.97</ele>
        <time>2017-04-02T12:44:32Z</time>
      </trkpt>
      <trkpt lat="43.9206" lon="4.05453">
        <ele>132.32</ele>
        <time>2017-04-02T12:44:42Z</time>
      </trkpt>
      <trkpt lat="43.92051" lon="4.05443">
        <ele>127.51</ele>
        <time>2017-04-02T12:44:53Z</time>
      </trkpt>
      <trkpt lat="43.92042" lon="4.05434">
        <ele>124.63</ele>
        <time>2017-04-02T12:45:03Z</time>
      </trkpt>
      <trkpt lat="43.92032" lon="4.05429">
        <ele>121.74</ele>
        <time>2017-04-02T12:45:13Z</time>
      </trkpt>
      <trkpt lat="43.92019" lon="4.05425">
        <ele>119.82</ele>
        <time>2017-04-02T12:45:25Z</time>
      </trkpt>
      <trkpt lat="43.92006" lon="4.05421">
        <ele>118.86</ele>
        <time>2017-04-02T12:45:36Z</time>
      </trkpt>
      <trkpt lat="43.91993" lon="4.05418">
        <ele>115.5</ele>
        <time>2017-04-02T12:45:47Z</time>
      </trkpt>
      <trkpt lat="43.91977" lon="4.05416">
        <ele>112.61</ele>
        <time>2017-04-02T12:45:56Z</time>
      </trkpt>
      <trkpt lat="43.91966" lon="4.05413">
        <ele>111.17</ele>
        <time>2017-04-02T12:46:06Z</time>
      </trkpt>
      <trkpt lat="43.91954" lon="4.05413">
        <ele>109.73</ele>
        <time>2017-04-02T12:46:16Z</time>
      </trkpt>
      <trkpt lat="43.91942" lon="4.05416">
        <ele>111.65</ele>
        <time>2017-04-02T12:46:27Z</time>
      </trkpt>
      <trkpt lat="43.91933" lon="4.05423">
        <ele>114.53</ele>
        <time>2017-04-02T12:46:36Z</time>
      </trkpt>
      <trkpt lat="43.91924" lon="4.05431">
        <ele>115.01</ele>
        <time>2017-04-02T12:46:50Z</time>
      </trkpt>
      <trkpt lat="43.91922" lon="4.05431">
        <ele>112.61</ele>
        <time>2017-04-02T12:47:27Z</time>
      </trkpt>
      <trkpt lat="43.91913" lon="4.05429">
        <ele>113.09</ele>
        <time>2017-04-02T12:47:55Z</time>
      </trkpt>
      <trkpt lat="43.91904" lon="4.0542">
        <ele>114.53</ele>
        <time>2017-04-02T12:48:07Z</time>
      </trkpt>
      <trkpt lat="43.91897" lon="4.0541">
        <ele>113.57</ele>
        <time>2017-04-02T12:48:19Z</time>
      </trkpt>
      <trkpt lat="43.91888" lon="4.05401">
        <ele>115.98</ele>
        <time>2017-04-02T12:48:31Z</time>
      </trkpt>
      <trkpt lat="43.91879" lon="4.05391">
        <ele>112.61</ele>
        <time>2017-04-02T12:48:42Z</time>
      </trkpt>
      <trkpt lat="43.91868" lon="4.05381">
        <ele>111.65</ele>
        <time>2017-04-02T12:48:55Z</time>
      </trkpt>
      <trkpt lat="43.91857" lon="4.05373">
        <ele>112.13</ele>
        <time>2017-04-02T12:49:08Z</time>
      </trkpt>
      <trkpt lat="43.91845" lon="4.05366">
        <ele>110.21</ele>
        <time>2017-04-02T12:49:20Z</time>
      </trkpt>
      <trkpt lat="43.91834" lon="4.05361">
        <ele>109.73</ele>
        <time>2017-04-02T12:49:31Z</time>
      </trkpt>
      <trkpt lat="43.91823" lon="4.05355">
        <ele>113.57</ele>
        <time>2017-04-02T12:49:44Z</time>
      </trkpt>
      <trkpt lat="43.91814" lon="4.05343">
        <ele>115.01</ele>
        <time>2017-04-02T12:50:00Z</time>
      </trkpt>
      <trkpt lat="43.9181" lon="4.0533">
        <ele>115.98</ele>
        <time>2017-04-02T12:50:19Z</time>
      </trkpt>
      <trkpt lat="43.91809" lon="4.05316">
        <ele>112.13</ele>
        <time>2017-04-02T12:50:46Z</time>
      </trkpt>
      <trkpt lat="43.91807" lon="4.05302">
        <ele>112.13</ele>
        <time>2017-04-02T12:50:57Z</time>
      </trkpt>
      <trkpt lat="43.91802" lon="4.0529">
        <ele>109.25</ele>
        <time>2017-04-02T12:51:06Z</time>
      </trkpt>
      <trkpt lat="43.91794" lon="4.05281">
        <ele>106.36</ele>
        <time>2017-04-02T12:51:15Z</time>
      </trkpt>
      <trkpt lat="43.91785" lon="4.05273">
        <ele>103.48</ele>
        <time>2017-04-02T12:51:25Z</time>
      </trkpt>
      <trkpt lat="43.91777" lon="4.05266">
        <ele>103.48</ele>
        <time>2017-04-02T12:51:46Z</time>
      </trkpt>
      <trkpt lat="43.91767" lon="4.05262">
        <ele>102.04</ele>
        <time>2017-04-02T12:51:57Z</time>
      </trkpt>
      <trkpt lat="43.91759" lon="4.05255">
        <ele>102.52</ele>
        <time>2017-04-02T12:52:29Z</time>
      </trkpt>
      <trkpt lat="43.91751" lon="4.05247">
        <ele>103.48</ele>
        <time>2017-04-02T12:52:39Z</time>
      </trkpt>
      <trkpt lat="43.91743" lon="4.0524">
        <ele>103.96</ele>
        <time>2017-04-02T12:52:49Z</time>
      </trkpt>
      <trkpt lat="43.91735" lon="4.0523">
        <ele>103.96</ele>
        <time>2017-04-02T12:52:59Z</time>
      </trkpt>
      <trkpt lat="43.91725" lon="4.05222">
        <ele>103.48</ele>
        <time>2017-04-02T12:53:09Z</time>
      </trkpt>
      <trkpt lat="43.91716" lon="4.05214">
        <ele>103.48</ele>
        <time>2017-04-02T12:53:19Z</time>
      </trkpt>
      <trkpt lat="43.91707" lon="4.05204">
        <ele>103.48</ele>
        <time>2017-04-02T12:53:29Z</time>
      </trkpt>
      <trkpt lat="43.91699" lon="4.05197">
        <ele>104.92</ele>
        <time>2017-04-02T12:53:39Z</time>
      </trkpt>
      <trkpt lat="43.91692" lon="4.05186">
        <ele>106.36</ele>
        <time>2017-04-02T12:54:18Z</time>
      </trkpt>
      <trkpt lat="43.91686" lon="4.05179">
        <ele>105.4</ele>
        <time>2017-04-02T12:54:44Z</time>
      </trkpt>
      <trkpt lat="43.91678" lon="4.0517">
        <ele>106.84</ele>
        <time>2017-04-02T12:54:58Z</time>
      </trkpt>
      <trkpt lat="43.91672" lon="4.05161">
        <ele>112.13</ele>
        <time>2017-04-02T12:55:11Z</time>
      </trkpt>
      <trkpt lat="43.91667" lon="4.0515">
        <ele>110.21</ele>
        <time>2017-04-02T12:55:37Z</time>
      </trkpt>
      <trkpt lat="43.91668" lon="4.05142">
        <ele>106.36</ele>
        <time>2017-04-02T12:56:28Z</time>
      </trkpt>
      <trkpt lat="43.91664" lon="4.05129">
        <ele>105.88</ele>
        <time>2017-04-02T12:56:39Z</time>
      </trkpt>
      <trkpt lat="43.91663" lon="4.05114">
        <ele>105.88</ele>
        <time>2017-04-02T12:56:49Z</time>
      </trkpt>
      <trkpt lat="43.91669" lon="4.05105">
        <ele>105.4</ele>
        <time>2017-04-02T12:56:59Z</time>
      </trkpt>
      <trkpt lat="43.91671" lon="4.05098">
        <ele>104.44</ele>
        <time>2017-04-02T12:57:34Z</time>
      </trkpt>
      <trkpt lat="43.91672" lon="4.05093">
        <ele>103.96</ele>
        <time>2017-04-02T12:57:55Z</time>
      </trkpt>
      <trkpt lat="43.91674" lon="4.05084">
        <ele>103</ele>
        <time>2017-04-02T12:58:36Z</time>
      </trkpt>
      <trkpt lat="43.91675" lon="4.05069">
        <ele>102.52</ele>
        <time>2017-04-02T12:58:49Z</time>
      </trkpt>
      <trkpt lat="43.91675" lon="4.05054">
        <ele>98.67</ele>
        <time>2017-04-02T12:59:17Z</time>
      </trkpt>
      <trkpt lat="43.91676" lon="4.05043">
        <ele>100.11</ele>
        <time>2017-04-02T12:59:42Z</time>
      </trkpt>
      <trkpt lat="43.91674" lon="4.0503">
        <ele>100.11</ele>
        <time>2017-04-02T12:59:55Z</time>
      </trkpt>
      <trkpt lat="43.9167" lon="4.05015">
        <ele>100.6</ele>
        <time>2017-04-02T13:00:06Z</time>
      </trkpt>
      <trkpt lat="43.9166" lon="4.05007">
        <ele>102.04</ele>
        <time>2017-04-02T13:00:39Z</time>
      </trkpt>
      <trkpt lat="43.9165" lon="4.04999">
        <ele>104.92</ele>
        <time>2017-04-02T13:00:53Z</time>
      </trkpt>
      <trkpt lat="43.91642" lon="4.0499">
        <ele>106.36</ele>
        <time>2017-04-02T13:01:03Z</time>
      </trkpt>
      <trkpt lat="43.91635" lon="4.04979">
        <ele>104.92</ele>
        <time>2017-04-02T13:01:13Z</time>
      </trkpt>
      <trkpt lat="43.91626" lon="4.04971">
        <ele>103.48</ele>
        <time>2017-04-02T13:01:22Z</time>
      </trkpt>
      <trkpt lat="43.91616" lon="4.04964">
        <ele>103</ele>
        <time>2017-04-02T13:01:31Z</time>
      </trkpt>
      <trkpt lat="43.91607" lon="4.04958">
        <ele>101.56</ele>
        <time>2017-04-02T13:01:40Z</time>
      </trkpt>
      <trkpt lat="43.91598" lon="4.04952">
        <ele>101.08</ele>
        <time>2017-04-02T13:01:50Z</time>
      </trkpt>
      <trkpt lat="43.91589" lon="4.04945">
        <ele>101.08</ele>
        <time>2017-04-02T13:02:00Z</time>
      </trkpt>
      <trkpt lat="43.91578" lon="4.04938">
        <ele>100.11</ele>
        <time>2017-04-02T13:02:10Z</time>
      </trkpt>
      <trkpt lat="43.91568" lon="4.04932">
        <ele>100.11</ele>
        <time>2017-04-02T13:02:21Z</time>
      </trkpt>
      <trkpt lat="43.91558" lon="4.04924">
        <ele>98.19</ele>
        <time>2017-04-02T13:02:32Z</time>
      </trkpt>
      <trkpt lat="43.91548" lon="4.04916">
        <ele>98.19</ele>
        <time>2017-04-02T13:02:43Z</time>
      </trkpt>
      <trkpt lat="43.91538" lon="4.04908">
        <ele>97.23</ele>
        <time>2017-04-02T13:02:54Z</time>
      </trkpt>
      <trkpt lat="43.91529" lon="4.04902">
        <ele>95.79</ele>
        <time>2017-04-02T13:03:03Z</time>
      </trkpt>
      <trkpt lat="43.91519" lon="4.04896">
        <ele>94.83</ele>
        <time>2017-04-02T13:03:12Z</time>
      </trkpt>
      <trkpt lat="43.9151" lon="4.0489">
        <ele>94.35</ele>
        <time>2017-04-02T13:03:21Z</time>
      </trkpt>
      <trkpt lat="43.915" lon="4.04884">
        <ele>93.87</ele>
        <time>2017-04-02T13:03:31Z</time>
      </trkpt>
      <trkpt lat="43.9149" lon="4.0488">
        <ele>95.79</ele>
        <time>2017-04-02T13:03:41Z</time>
      </trkpt>
      <trkpt lat="43.91479" lon="4.04876">
        <ele>96.27</ele>
        <time>2017-04-02T13:03:51Z</time>
      </trkpt>
      <trkpt lat="43.91468" lon="4.04874">
        <ele>96.75</ele>
        <time>2017-04-02T13:04:01Z</time>
      </trkpt>
      <trkpt lat="43.91458" lon="4.04871">
        <ele>98.19</ele>
        <time>2017-04-02T13:04:11Z</time>
      </trkpt>
      <trkpt lat="43.91447" lon="4.04868">
        <ele>98.19</ele>
        <time>2017-04-02T13:04:21Z</time>
      </trkpt>
      <trkpt lat="43.91437" lon="4.04865">
        <ele>97.23</ele>
        <time>2017-04-02T13:04:30Z</time>
      </trkpt>
      <trkpt lat="43.91426" lon="4.04862">
        <ele>96.75</ele>
        <time>2017-04-02T13:04:39Z</time>
      </trkpt>
      <trkpt lat="43.91415" lon="4.04861">
        <ele>97.23</ele>
        <time>2017-04-02T13:04:48Z</time>
      </trkpt>
      <trkpt lat="43.91405" lon="4.04859">
        <ele>97.71</ele>
        <time>2017-04-02T13:04:57Z</time>
      </trkpt>
      <trkpt lat="43.91395" lon="4.0486">
        <ele>98.67</ele>
        <time>2017-04-02T13:05:06Z</time>
      </trkpt>
      <trkpt lat="43.91385" lon="4.04862">
        <ele>97.71</ele>
        <time>2017-04-02T13:05:16Z</time>
      </trkpt>
      <trkpt lat="43.91373" lon="4.04864">
        <ele>98.19</ele>
        <time>2017-04-02T13:05:26Z</time>
      </trkpt>
      <trkpt lat="43.91363" lon="4.04866">
        <ele>98.67</ele>
        <time>2017-04-02T13:05:35Z</time>
      </trkpt>
      <trkpt lat="43.91353" lon="4.04867">
        <ele>99.15</ele>
        <time>2017-04-02T13:05:46Z</time>
      </trkpt>
      <trkpt lat="43.9134" lon="4.04868">
        <ele>96.75</ele>
        <time>2017-04-02T13:05:57Z</time>
      </trkpt>
      <trkpt lat="43.91328" lon="4.04866">
        <ele>99.63</ele>
        <time>2017-04-02T13:06:08Z</time>
      </trkpt>
      <trkpt lat="43.91315" lon="4.04864">
        <ele>101.08</ele>
        <time>2017-04-02T13:06:19Z</time>
      </trkpt>
      <trkpt lat="43.91303" lon="4.04862">
        <ele>100.11</ele>
        <time>2017-04-02T13:06:29Z</time>
      </trkpt>
      <trkpt lat="43.91292" lon="4.04862">
        <ele>99.15</ele>
        <time>2017-04-02T13:06:39Z</time>
      </trkpt>
      <trkpt lat="43.9128" lon="4.04861">
        <ele>96.75</ele>
        <time>2017-04-02T13:06:50Z</time>
      </trkpt>
      <trkpt lat="43.9127" lon="4.04859">
        <ele>96.75</ele>
        <time>2017-04-02T13:07:00Z</time>
      </trkpt>
      <trkpt lat="43.91259" lon="4.04853">
        <ele>96.27</ele>
        <time>2017-04-02T13:07:09Z</time>
      </trkpt>
      <trkpt lat="43.91252" lon="4.04841">
        <ele>95.31</ele>
        <time>2017-04-02T13:07:18Z</time>
      </trkpt>
      <trkpt lat="43.91249" lon="4.04829">
        <ele>94.83</ele>
        <time>2017-04-02T13:07:28Z</time>
      </trkpt>
      <trkpt lat="43.91247" lon="4.04814">
        <ele>94.35</ele>
        <time>2017-04-02T13:07:38Z</time>
      </trkpt>
      <trkpt lat="43.91243" lon="4.048">
        <ele>93.87</ele>
        <time>2017-04-02T13:07:49Z</time>
      </trkpt>
      <trkpt lat="43.91239" lon="4.04788">
        <ele>91.94</ele>
        <time>2017-04-02T13:07:58Z</time>
      </trkpt>
      <trkpt lat="43.91233" lon="4.04776">
        <ele>90.02</ele>
        <time>2017-04-02T13:08:08Z</time>
      </trkpt>
      <trkpt lat="43.91226" lon="4.04766">
        <ele>89.54</ele>
        <time>2017-04-02T13:08:17Z</time>
      </trkpt>
      <trkpt lat="43.91218" lon="4.0476">
        <ele>91.94</ele>
        <time>2017-04-02T13:08:28Z</time>
      </trkpt>
      <trkpt lat="43.91207" lon="4.0476">
        <ele>93.87</ele>
        <time>2017-04-02T13:08:39Z</time>
      </trkpt>
      <trkpt lat="43.91199" lon="4.04768">
        <ele>95.31</ele>
        <time>2017-04-02T13:08:48Z</time>
      </trkpt>
      <trkpt lat="43.91191" lon="4.04777">
        <ele>95.79</ele>
        <time>2017-04-02T13:08:57Z</time>
      </trkpt>
      <trkpt lat="43.91184" lon="4.04784">
        <ele>97.71</ele>
        <time>2017-04-02T13:09:06Z</time>
      </trkpt>
      <trkpt lat="43.91174" lon="4.04791">
        <ele>99.15</ele>
        <time>2017-04-02T13:09:17Z</time>
      </trkpt>
      <trkpt lat="43.91165" lon="4.048">
        <ele>100.6</ele>
        <time>2017-04-02T13:09:29Z</time>
      </trkpt>
      <trkpt lat="43.91156" lon="4.04808">
        <ele>100.6</ele>
        <time>2017-04-02T13:09:39Z</time>
      </trkpt>
      <trkpt lat="43.91149" lon="4.04819">
        <ele>100.6</ele>
        <time>2017-04-02T13:09:49Z</time>
      </trkpt>
      <trkpt lat="43.91141" lon="4.04829">
        <ele>98.19</ele>
        <time>2017-04-02T13:10:00Z</time>
      </trkpt>
      <trkpt lat="43.91132" lon="4.04837">
        <ele>98.67</ele>
        <time>2017-04-02T13:10:11Z</time>
      </trkpt>
      <trkpt lat="43.91122" lon="4.04845">
        <ele>98.19</ele>
        <time>2017-04-02T13:10:21Z</time>
      </trkpt>
      <trkpt lat="43.91114" lon="4.04854">
        <ele>97.71</ele>
        <time>2017-04-02T13:10:30Z</time>
      </trkpt>
      <trkpt lat="43.91105" lon="4.04863">
        <ele>97.23</ele>
        <time>2017-04-02T13:10:39Z</time>
      </trkpt>
      <trkpt lat="43.91096" lon="4.04869">
        <ele>97.71</ele>
        <time>2017-04-02T13:10:48Z</time>
      </trkpt>
      <trkpt lat="43.91086" lon="4.04875">
        <ele>96.27</ele>
        <time>2017-04-02T13:10:58Z</time>
      </trkpt>
      <trkpt lat="43.91076" lon="4.0488">
        <ele>94.83</ele>
        <time>2017-04-02T13:11:07Z</time>
      </trkpt>
      <trkpt lat="43.91068" lon="4.04886">
        <ele>94.83</ele>
        <time>2017-04-02T13:11:16Z</time>
      </trkpt>
      <trkpt lat="43.91059" lon="4.0489">
        <ele>94.83</ele>
        <time>2017-04-02T13:11:26Z</time>
      </trkpt>
      <trkpt lat="43.9105" lon="4.04895">
        <ele>93.87</ele>
        <time>2017-04-02T13:11:35Z</time>
      </trkpt>
      <trkpt lat="43.91042" lon="4.049">
        <ele>93.87</ele>
        <time>2017-04-02T13:11:44Z</time>
      </trkpt>
      <trkpt lat="43.91033" lon="4.04906">
        <ele>93.39</ele>
        <time>2017-04-02T13:11:53Z</time>
      </trkpt>
      <trkpt lat="43.91024" lon="4.04911">
        <ele>93.87</ele>
        <time>2017-04-02T13:12:02Z</time>
      </trkpt>
      <trkpt lat="43.91014" lon="4.04915">
        <ele>94.35</ele>
        <time>2017-04-02T13:12:11Z</time>
      </trkpt>
      <trkpt lat="43.91006" lon="4.04922">
        <ele>94.35</ele>
        <time>2017-04-02T13:12:20Z</time>
      </trkpt>
      <trkpt lat="43.90998" lon="4.0493">
        <ele>94.35</ele>
        <time>2017-04-02T13:12:29Z</time>
      </trkpt>
      <trkpt lat="43.90989" lon="4.04938">
        <ele>93.87</ele>
        <time>2017-04-02T13:12:38Z</time>
      </trkpt>
      <trkpt lat="43.90982" lon="4.04947">
        <ele>94.83</ele>
        <time>2017-04-02T13:12:47Z</time>
      </trkpt>
      <trkpt lat="43.90976" lon="4.04955">
        <ele>95.31</ele>
        <time>2017-04-02T13:12:56Z</time>
      </trkpt>
      <trkpt lat="43.9097" lon="4.04966">
        <ele>96.27</ele>
        <time>2017-04-02T13:13:05Z</time>
      </trkpt>
      <trkpt lat="43.90963" lon="4.04976">
        <ele>97.23</ele>
        <time>2017-04-02T13:13:15Z</time>
      </trkpt>
      <trkpt lat="43.90957" lon="4.04988">
        <ele>98.19</ele>
        <time>2017-04-02T13:13:25Z</time>
      </trkpt>
      <trkpt lat="43.90952" lon="4.05003">
        <ele>99.15</ele>
        <time>2017-04-02T13:13:36Z</time>
      </trkpt>
      <trkpt lat="43.90948" lon="4.05016">
        <ele>98.67</ele>
        <time>2017-04-02T13:13:45Z</time>
      </trkpt>
      <trkpt lat="43.90947" lon="4.05031">
        <ele>98.19</ele>
        <time>2017-04-02T13:13:54Z</time>
      </trkpt>
      <trkpt lat="43.90947" lon="4.05044">
        <ele>96.27</ele>
        <time>2017-04-02T13:14:03Z</time>
      </trkpt>
      <trkpt lat="43.90948" lon="4.05058">
        <ele>95.79</ele>
        <time>2017-04-02T13:14:12Z</time>
      </trkpt>
      <trkpt lat="43.90946" lon="4.0507">
        <ele>97.23</ele>
        <time>2017-04-02T13:14:21Z</time>
      </trkpt>
      <trkpt lat="43.90943" lon="4.05082">
        <ele>96.75</ele>
        <time>2017-04-02T13:14:31Z</time>
      </trkpt>
      <trkpt lat="43.90939" lon="4.05093">
        <ele>97.71</ele>
        <time>2017-04-02T13:14:40Z</time>
      </trkpt>
      <trkpt lat="43.90935" lon="4.05105">
        <ele>100.11</ele>
        <time>2017-04-02T13:14:51Z</time>
      </trkpt>
      <trkpt lat="43.90928" lon="4.05117">
        <ele>100.6</ele>
        <time>2017-04-02T13:15:01Z</time>
      </trkpt>
      <trkpt lat="43.90923" lon="4.05128">
        <ele>100.6</ele>
        <time>2017-04-02T13:15:10Z</time>
      </trkpt>
      <trkpt lat="43.90917" lon="4.0514">
        <ele>100.6</ele>
        <time>2017-04-02T13:15:20Z</time>
      </trkpt>
      <trkpt lat="43.90912" lon="4.05151">
        <ele>102.52</ele>
        <time>2017-04-02T13:15:30Z</time>
      </trkpt>
      <trkpt lat="43.90907" lon="4.05167">
        <ele>100.6</ele>
        <time>2017-04-02T13:15:40Z</time>
      </trkpt>
      <trkpt lat="43.90902" lon="4.05181">
        <ele>98.19</ele>
        <time>2017-04-02T13:15:49Z</time>
      </trkpt>
      <trkpt lat="43.90898" lon="4.05195">
        <ele>96.27</ele>
        <time>2017-04-02T13:15:58Z</time>
      </trkpt>
      <trkpt lat="43.90896" lon="4.05209">
        <ele>95.79</ele>
        <time>2017-04-02T13:16:08Z</time>
      </trkpt>
      <trkpt lat="43.90894" lon="4.05224">
        <ele>94.35</ele>
        <time>2017-04-02T13:16:21Z</time>
      </trkpt>
      <trkpt lat="43.90892" lon="4.05237">
        <ele>91.94</ele>
        <time>2017-04-02T13:16:33Z</time>
      </trkpt>
      <trkpt lat="43.90891" lon="4.05251">
        <ele>90.02</ele>
        <time>2017-04-02T13:16:45Z</time>
      </trkpt>
      <trkpt lat="43.90886" lon="4.05262">
        <ele>90.98</ele>
        <time>2017-04-02T13:16:58Z</time>
      </trkpt>
      <trkpt lat="43.90876" lon="4.05272">
        <ele>93.87</ele>
        <time>2017-04-02T13:17:14Z</time>
      </trkpt>
      <trkpt lat="43.90863" lon="4.05276">
        <ele>94.35</ele>
        <time>2017-04-02T13:17:29Z</time>
      </trkpt>
      <trkpt lat="43.90852" lon="4.0528">
        <ele>97.71</ele>
        <time>2017-04-02T13:17:42Z</time>
      </trkpt>
      <trkpt lat="43.90845" lon="4.05289">
        <ele>91.46</ele>
        <time>2017-04-02T13:27:46Z</time>
      </trkpt>
      <trkpt lat="43.90846" lon="4.05288">
        <ele>93.39</ele>
        <time>2017-04-02T13:32:35Z</time>
      </trkpt>
      <trkpt lat="43.90841" lon="4.0529">
        <ele>93.87</ele>
        <time>2017-04-02T13:33:00Z</time>
      </trkpt>
      <trkpt lat="43.90835" lon="4.05299">
        <ele>94.83</ele>
        <time>2017-04-02T13:33:14Z</time>
      </trkpt>
      <trkpt lat="43.90829" lon="4.0531">
        <ele>94.83</ele>
        <time>2017-04-02T13:33:27Z</time>
      </trkpt>
      <trkpt lat="43.90822" lon="4.05321">
        <ele>94.83</ele>
        <time>2017-04-02T13:33:38Z</time>
      </trkpt>
      <trkpt lat="43.90817" lon="4.05332">
        <ele>95.79</ele>
        <time>2017-04-02T13:33:50Z</time>
      </trkpt>
      <trkpt lat="43.90812" lon="4.05339">
        <ele>97.71</ele>
        <time>2017-04-02T13:34:05Z</time>
      </trkpt>
      <trkpt lat="43.90805" lon="4.05352">
        <ele>98.19</ele>
        <time>2017-04-02T13:34:17Z</time>
      </trkpt>
      <trkpt lat="43.90799" lon="4.05368">
        <ele>98.19</ele>
        <time>2017-04-02T13:34:29Z</time>
      </trkpt>
      <trkpt lat="43.90794" lon="4.05382">
        <ele>98.19</ele>
        <time>2017-04-02T13:34:41Z</time>
      </trkpt>
      <trkpt lat="43.9079" lon="4.05396">
        <ele>97.71</ele>
        <time>2017-04-02T13:34:53Z</time>
      </trkpt>
      <trkpt lat="43.90787" lon="4.05411">
        <ele>98.67</ele>
        <time>2017-04-02T13:35:05Z</time>
      </trkpt>
      <trkpt lat="43.90785" lon="4.05425">
        <ele>98.19</ele>
        <time>2017-04-02T13:35:16Z</time>
      </trkpt>
      <trkpt lat="43.90784" lon="4.0544">
        <ele>97.71</ele>
        <time>2017-04-02T13:35:25Z</time>
      </trkpt>
      <trkpt lat="43.90779" lon="4.05449">
        <ele>98.67</ele>
        <time>2017-04-02T13:35:35Z</time>
      </trkpt>
      <trkpt lat="43.90771" lon="4.05453">
        <ele>103.48</ele>
        <time>2017-04-02T13:35:45Z</time>
      </trkpt>
      <trkpt lat="43.90764" lon="4.05465">
        <ele>104.92</ele>
        <time>2017-04-02T13:35:58Z</time>
      </trkpt>
      <trkpt lat="43.90755" lon="4.05466">
        <ele>108.29</ele>
        <time>2017-04-02T13:36:08Z</time>
      </trkpt>
      <trkpt lat="43.90746" lon="4.0547">
        <ele>109.73</ele>
        <time>2017-04-02T13:36:18Z</time>
      </trkpt>
      <trkpt lat="43.90736" lon="4.05475">
        <ele>110.21</ele>
        <time>2017-04-02T13:36:28Z</time>
      </trkpt>
      <trkpt lat="43.90727" lon="4.05482">
        <ele>109.73</ele>
        <time>2017-04-02T13:36:38Z</time>
      </trkpt>
      <trkpt lat="43.90718" lon="4.05492">
        <ele>108.77</ele>
        <time>2017-04-02T13:36:49Z</time>
      </trkpt>
      <trkpt lat="43.90711" lon="4.05505">
        <ele>107.32</ele>
        <time>2017-04-02T13:37:01Z</time>
      </trkpt>
      <trkpt lat="43.90704" lon="4.05518">
        <ele>105.4</ele>
        <time>2017-04-02T13:37:12Z</time>
      </trkpt>
      <trkpt lat="43.90698" lon="4.0553">
        <ele>104.44</ele>
        <time>2017-04-02T13:37:22Z</time>
      </trkpt>
      <trkpt lat="43.90691" lon="4.0554">
        <ele>104.44</ele>
        <time>2017-04-02T13:37:33Z</time>
      </trkpt>
      <trkpt lat="43.90683" lon="4.05547">
        <ele>105.88</ele>
        <time>2017-04-02T13:37:43Z</time>
      </trkpt>
      <trkpt lat="43.90675" lon="4.05553">
        <ele>106.84</ele>
        <time>2017-04-02T13:37:53Z</time>
      </trkpt>
      <trkpt lat="43.90668" lon="4.05565">
        <ele>106.36</ele>
        <time>2017-04-02T13:38:03Z</time>
      </trkpt>
      <trkpt lat="43.90662" lon="4.05577">
        <ele>105.4</ele>
        <time>2017-04-02T13:38:12Z</time>
      </trkpt>
      <trkpt lat="43.90657" lon="4.0559">
        <ele>104.92</ele>
        <time>2017-04-02T13:38:22Z</time>
      </trkpt>
      <trkpt lat="43.90652" lon="4.05602">
        <ele>104.92</ele>
        <time>2017-04-02T13:38:32Z</time>
      </trkpt>
      <trkpt lat="43.90645" lon="4.05614">
        <ele>104.92</ele>
        <time>2017-04-02T13:38:43Z</time>
      </trkpt>
      <trkpt lat="43.90639" lon="4.05627">
        <ele>104.44</ele>
        <time>2017-04-02T13:38:53Z</time>
      </trkpt>
      <trkpt lat="43.90633" lon="4.05636">
        <ele>105.88</ele>
        <time>2017-04-02T13:39:03Z</time>
      </trkpt>
      <trkpt lat="43.90626" lon="4.05647">
        <ele>104.92</ele>
        <time>2017-04-02T13:39:13Z</time>
      </trkpt>
      <trkpt lat="43.9062" lon="4.05656">
        <ele>104.92</ele>
        <time>2017-04-02T13:39:27Z</time>
      </trkpt>
      <trkpt lat="43.90612" lon="4.05664">
        <ele>105.4</ele>
        <time>2017-04-02T13:39:37Z</time>
      </trkpt>
      <trkpt lat="43.90605" lon="4.05672">
        <ele>105.88</ele>
        <time>2017-04-02T13:39:47Z</time>
      </trkpt>
      <trkpt lat="43.90597" lon="4.05681">
        <ele>105.4</ele>
        <time>2017-04-02T13:39:58Z</time>
      </trkpt>
      <trkpt lat="43.9059" lon="4.0569">
        <ele>106.36</ele>
        <time>2017-04-02T13:40:08Z</time>
      </trkpt>
      <trkpt lat="43.90583" lon="4.05701">
        <ele>105.4</ele>
        <time>2017-04-02T13:40:19Z</time>
      </trkpt>
      <trkpt lat="43.90576" lon="4.05712">
        <ele>105.4</ele>
        <time>2017-04-02T13:40:31Z</time>
      </trkpt>
      <trkpt lat="43.90571" lon="4.05724">
        <ele>105.88</ele>
        <time>2017-04-02T13:40:42Z</time>
      </trkpt>
      <trkpt lat="43.90567" lon="4.05737">
        <ele>104.92</ele>
        <time>2017-04-02T13:40:53Z</time>
      </trkpt>
      <trkpt lat="43.90566" lon="4.05752">
        <ele>103.96</ele>
        <time>2017-04-02T13:41:04Z</time>
      </trkpt>
      <trkpt lat="43.9057" lon="4.05764">
        <ele>106.84</ele>
        <time>2017-04-02T13:41:15Z</time>
      </trkpt>
      <trkpt lat="43.90576" lon="4.05773">
        <ele>110.21</ele>
        <time>2017-04-02T13:41:31Z</time>
      </trkpt>
      <trkpt lat="43.90583" lon="4.05781">
        <ele>107.81</ele>
        <time>2017-04-02T13:42:34Z</time>
      </trkpt>
      <trkpt lat="43.90587" lon="4.05795">
        <ele>109.73</ele>
        <time>2017-04-02T13:42:49Z</time>
      </trkpt>
      <trkpt lat="43.90591" lon="4.05808">
        <ele>110.69</ele>
        <time>2017-04-02T13:43:01Z</time>
      </trkpt>
      <trkpt lat="43.90593" lon="4.05822">
        <ele>108.77</ele>
        <time>2017-04-02T13:43:13Z</time>
      </trkpt>
      <trkpt lat="43.90592" lon="4.05832">
        <ele>108.77</ele>
        <time>2017-04-02T13:44:20Z</time>
      </trkpt>
      <trkpt lat="43.90585" lon="4.0583">
        <ele>109.25</ele>
        <time>2017-04-02T13:44:37Z</time>
      </trkpt>
      <trkpt lat="43.90575" lon="4.05827">
        <ele>109.73</ele>
        <time>2017-04-02T13:44:49Z</time>
      </trkpt>
      <trkpt lat="43.90564" lon="4.05825">
        <ele>111.65</ele>
        <time>2017-04-02T13:45:00Z</time>
      </trkpt>
      <trkpt lat="43.90554" lon="4.05824">
        <ele>111.65</ele>
        <time>2017-04-02T13:45:11Z</time>
      </trkpt>
      <trkpt lat="43.90543" lon="4.05829">
        <ele>110.21</ele>
        <time>2017-04-02T13:45:26Z</time>
      </trkpt>
      <trkpt lat="43.90533" lon="4.05827">
        <ele>110.21</ele>
        <time>2017-04-02T13:45:35Z</time>
      </trkpt>
      <trkpt lat="43.90523" lon="4.05825">
        <ele>109.25</ele>
        <time>2017-04-02T13:45:45Z</time>
      </trkpt>
      <trkpt lat="43.90512" lon="4.05823">
        <ele>108.29</ele>
        <time>2017-04-02T13:45:54Z</time>
      </trkpt>
      <trkpt lat="43.90503" lon="4.05822">
        <ele>109.25</ele>
        <time>2017-04-02T13:46:04Z</time>
      </trkpt>
      <trkpt lat="43.90493" lon="4.05822">
        <ele>110.21</ele>
        <time>2017-04-02T13:46:15Z</time>
      </trkpt>
      <trkpt lat="43.90483" lon="4.05821">
        <ele>111.17</ele>
        <time>2017-04-02T13:46:25Z</time>
      </trkpt>
      <trkpt lat="43.90472" lon="4.05823">
        <ele>111.65</ele>
        <time>2017-04-02T13:46:35Z</time>
      </trkpt>
      <trkpt lat="43.90463" lon="4.05825">
        <ele>112.61</ele>
        <time>2017-04-02T13:46:44Z</time>
      </trkpt>
      <trkpt lat="43.90453" lon="4.05827">
        <ele>112.61</ele>
        <time>2017-04-02T13:46:54Z</time>
      </trkpt>
      <trkpt lat="43.90444" lon="4.05829">
        <ele>112.61</ele>
        <time>2017-04-02T13:47:03Z</time>
      </trkpt>
      <trkpt lat="43.90435" lon="4.0583">
        <ele>112.61</ele>
        <time>2017-04-02T13:47:12Z</time>
      </trkpt>
      <trkpt lat="43.90425" lon="4.05833">
        <ele>112.61</ele>
        <time>2017-04-02T13:47:21Z</time>
      </trkpt>
      <trkpt lat="43.90416" lon="4.05836">
        <ele>113.57</ele>
        <time>2017-04-02T13:47:30Z</time>
      </trkpt>
      <trkpt lat="43.90408" lon="4.0584">
        <ele>115.01</ele>
        <time>2017-04-02T13:47:40Z</time>
      </trkpt>
      <trkpt lat="43.90399" lon="4.05847">
        <ele>116.46</ele>
        <time>2017-04-02T13:47:50Z</time>
      </trkpt>
      <trkpt lat="43.90392" lon="4.05858">
        <ele>116.94</ele>
        <time>2017-04-02T13:48:00Z</time>
      </trkpt>
      <trkpt lat="43.90387" lon="4.05868">
        <ele>117.42</ele>
        <time>2017-04-02T13:48:14Z</time>
      </trkpt>
      <trkpt lat="43.9038" lon="4.05876">
        <ele>118.86</ele>
        <time>2017-04-02T13:48:28Z</time>
      </trkpt>
      <trkpt lat="43.90373" lon="4.05885">
        <ele>120.78</ele>
        <time>2017-04-02T13:48:38Z</time>
      </trkpt>
      <trkpt lat="43.90366" lon="4.05893">
        <ele>122.22</ele>
        <time>2017-04-02T13:48:48Z</time>
      </trkpt>
      <trkpt lat="43.90358" lon="4.05902">
        <ele>123.19</ele>
        <time>2017-04-02T13:48:58Z</time>
      </trkpt>
      <trkpt lat="43.9035" lon="4.0591">
        <ele>124.15</ele>
        <time>2017-04-02T13:49:08Z</time>
      </trkpt>
      <trkpt lat="43.90342" lon="4.05919">
        <ele>124.15</ele>
        <time>2017-04-02T13:49:18Z</time>
      </trkpt>
      <trkpt lat="43.90334" lon="4.05928">
        <ele>123.67</ele>
        <time>2017-04-02T13:49:27Z</time>
      </trkpt>
      <trkpt lat="43.90328" lon="4.05937">
        <ele>124.15</ele>
        <time>2017-04-02T13:49:36Z</time>
      </trkpt>
      <trkpt lat="43.9032" lon="4.05944">
        <ele>126.07</ele>
        <time>2017-04-02T13:49:46Z</time>
      </trkpt>
      <trkpt lat="43.90311" lon="4.05951">
        <ele>126.55</ele>
        <time>2017-04-02T13:49:56Z</time>
      </trkpt>
      <trkpt lat="43.90303" lon="4.05959">
        <ele>126.55</ele>
        <time>2017-04-02T13:50:06Z</time>
      </trkpt>
      <trkpt lat="43.90292" lon="4.05965">
        <ele>127.51</ele>
        <time>2017-04-02T13:50:17Z</time>
      </trkpt>
      <trkpt lat="43.90282" lon="4.05969">
        <ele>125.59</ele>
        <time>2017-04-02T13:50:26Z</time>
      </trkpt>
      <trkpt lat="43.90272" lon="4.05974">
        <ele>123.67</ele>
        <time>2017-04-02T13:50:37Z</time>
      </trkpt>
      <trkpt lat="43.90261" lon="4.05976">
        <ele>125.11</ele>
        <time>2017-04-02T13:50:47Z</time>
      </trkpt>
      <trkpt lat="43.90252" lon="4.05978">
        <ele>124.63</ele>
        <time>2017-04-02T13:50:57Z</time>
      </trkpt>
      <trkpt lat="43.9024" lon="4.0598">
        <ele>126.07</ele>
        <time>2017-04-02T13:51:10Z</time>
      </trkpt>
      <trkpt lat="43.90229" lon="4.05981">
        <ele>128.95</ele>
        <time>2017-04-02T13:51:21Z</time>
      </trkpt>
      <trkpt lat="43.90219" lon="4.05982">
        <ele>128.95</ele>
        <time>2017-04-02T13:51:31Z</time>
      </trkpt>
      <trkpt lat="43.9021" lon="4.05985">
        <ele>128.47</ele>
        <time>2017-04-02T13:51:41Z</time>
      </trkpt>
      <trkpt lat="43.90199" lon="4.05987">
        <ele>129.43</ele>
        <time>2017-04-02T13:51:53Z</time>
      </trkpt>
      <trkpt lat="43.90189" lon="4.0599">
        <ele>129.43</ele>
        <time>2017-04-02T13:52:02Z</time>
      </trkpt>
      <trkpt lat="43.90179" lon="4.05993">
        <ele>128.95</ele>
        <time>2017-04-02T13:52:11Z</time>
      </trkpt>
      <trkpt lat="43.9017" lon="4.05998">
        <ele>130.4</ele>
        <time>2017-04-02T13:52:23Z</time>
      </trkpt>
      <trkpt lat="43.9016" lon="4.06003">
        <ele>130.88</ele>
        <time>2017-04-02T13:52:33Z</time>
      </trkpt>
      <trkpt lat="43.9015" lon="4.06009">
        <ele>130.88</ele>
        <time>2017-04-02T13:52:44Z</time>
      </trkpt>
      <trkpt lat="43.9014" lon="4.06013">
        <ele>129.92</ele>
        <time>2017-04-02T13:52:54Z</time>
      </trkpt>
      <trkpt lat="43.9013" lon="4.06014">
        <ele>128.95</ele>
        <time>2017-04-02T13:53:04Z</time>
      </trkpt>
      <trkpt lat="43.90119" lon="4.06013">
        <ele>127.99</ele>
        <time>2017-04-02T13:53:14Z</time>
      </trkpt>
      <trkpt lat="43.90108" lon="4.06009">
        <ele>127.51</ele>
        <time>2017-04-02T13:53:24Z</time>
      </trkpt>
      <trkpt lat="43.90099" lon="4.06001">
        <ele>130.4</ele>
        <time>2017-04-02T13:53:37Z</time>
      </trkpt>
      <trkpt lat="43.90088" lon="4.05995">
        <ele>129.92</ele>
        <time>2017-04-02T13:53:49Z</time>
      </trkpt>
      <trkpt lat="43.90078" lon="4.05986">
        <ele>130.88</ele>
        <time>2017-04-02T13:54:00Z</time>
      </trkpt>
      <trkpt lat="43.90069" lon="4.0598">
        <ele>131.36</ele>
        <time>2017-04-02T13:54:12Z</time>
      </trkpt>
      <trkpt lat="43.90058" lon="4.05972">
        <ele>132.32</ele>
        <time>2017-04-02T13:54:25Z</time>
      </trkpt>
      <trkpt lat="43.90046" lon="4.05962">
        <ele>128.95</ele>
        <time>2017-04-02T13:54:35Z</time>
      </trkpt>
      <trkpt lat="43.90039" lon="4.05951">
        <ele>126.55</ele>
        <time>2017-04-02T13:54:44Z</time>
      </trkpt>
      <trkpt lat="43.90031" lon="4.05942">
        <ele>126.55</ele>
        <time>2017-04-02T13:54:54Z</time>
      </trkpt>
      <trkpt lat="43.90021" lon="4.05936">
        <ele>126.07</ele>
        <time>2017-04-02T13:55:04Z</time>
      </trkpt>
      <trkpt lat="43.90012" lon="4.05926">
        <ele>127.99</ele>
        <time>2017-04-02T13:55:16Z</time>
      </trkpt>
      <trkpt lat="43.9" lon="4.05923">
        <ele>129.92</ele>
        <time>2017-04-02T13:55:28Z</time>
      </trkpt>
      <trkpt lat="43.89989" lon="4.05919">
        <ele>131.84</ele>
        <time>2017-04-02T13:55:40Z</time>
      </trkpt>
      <trkpt lat="43.89978" lon="4.05919">
        <ele>129.92</ele>
        <time>2017-04-02T13:55:50Z</time>
      </trkpt>
      <trkpt lat="43.89967" lon="4.05924">
        <ele>130.88</ele>
        <time>2017-04-02T13:56:04Z</time>
      </trkpt>
      <trkpt lat="43.89951" lon="4.05928">
        <ele>128.95</ele>
        <time>2017-04-02T13:56:19Z</time>
      </trkpt>
      <trkpt lat="43.89939" lon="4.0593">
        <ele>127.51</ele>
        <time>2017-04-02T13:56:31Z</time>
      </trkpt>
      <trkpt lat="43.89927" lon="4.05935">
        <ele>127.51</ele>
        <time>2017-04-02T13:56:42Z</time>
      </trkpt>
      <trkpt lat="43.89916" lon="4.05941">
        <ele>126.55</ele>
        <time>2017-04-02T13:56:52Z</time>
      </trkpt>
      <trkpt lat="43.89904" lon="4.05948">
        <ele>125.11</ele>
        <time>2017-04-02T13:57:03Z</time>
      </trkpt>
      <trkpt lat="43.89893" lon="4.05957">
        <ele>124.63</ele>
        <time>2017-04-02T13:57:13Z</time>
      </trkpt>
      <trkpt lat="43.89881" lon="4.05963">
        <ele>123.19</ele>
        <time>2017-04-02T13:57:22Z</time>
      </trkpt>
      <trkpt lat="43.8987" lon="4.05967">
        <ele>121.26</ele>
        <time>2017-04-02T13:57:31Z</time>
      </trkpt>
      <trkpt lat="43.89861" lon="4.05972">
        <ele>120.78</ele>
        <time>2017-04-02T13:57:40Z</time>
      </trkpt>
      <trkpt lat="43.89852" lon="4.05978">
        <ele>121.74</ele>
        <time>2017-04-02T13:57:52Z</time>
      </trkpt>
      <trkpt lat="43.89841" lon="4.05982">
        <ele>122.71</ele>
        <time>2017-04-02T13:58:02Z</time>
      </trkpt>
      <trkpt lat="43.89829" lon="4.05986">
        <ele>121.74</ele>
        <time>2017-04-02T13:58:13Z</time>
      </trkpt>
      <trkpt lat="43.89818" lon="4.05988">
        <ele>120.3</ele>
        <time>2017-04-02T13:58:23Z</time>
      </trkpt>
      <trkpt lat="43.89807" lon="4.05988">
        <ele>118.38</ele>
        <time>2017-04-02T13:58:34Z</time>
      </trkpt>
      <trkpt lat="43.89797" lon="4.05989">
        <ele>117.9</ele>
        <time>2017-04-02T13:58:44Z</time>
      </trkpt>
      <trkpt lat="43.89785" lon="4.05989">
        <ele>116.94</ele>
        <time>2017-04-02T13:58:54Z</time>
      </trkpt>
      <trkpt lat="43.89773" lon="4.0599">
        <ele>115.5</ele>
        <time>2017-04-02T13:59:04Z</time>
      </trkpt>
      <trkpt lat="43.89761" lon="4.05989">
        <ele>115.98</ele>
        <time>2017-04-02T13:59:14Z</time>
      </trkpt>
      <trkpt lat="43.89751" lon="4.05986">
        <ele>115.98</ele>
        <time>2017-04-02T13:59:23Z</time>
      </trkpt>
      <trkpt lat="43.89741" lon="4.05982">
        <ele>116.46</ele>
        <time>2017-04-02T13:59:33Z</time>
      </trkpt>
      <trkpt lat="43.8973" lon="4.05981">
        <ele>115.01</ele>
        <time>2017-04-02T13:59:43Z</time>
      </trkpt>
      <trkpt lat="43.89719" lon="4.05976">
        <ele>118.86</ele>
        <time>2017-04-02T13:59:55Z</time>
      </trkpt>
      <trkpt lat="43.89708" lon="4.05968">
        <ele>120.3</ele>
        <time>2017-04-02T14:00:06Z</time>
      </trkpt>
      <trkpt lat="43.89696" lon="4.05965">
        <ele>121.26</ele>
        <time>2017-04-02T14:00:16Z</time>
      </trkpt>
      <trkpt lat="43.89687" lon="4.05963">
        <ele>121.74</ele>
        <time>2017-04-02T14:00:26Z</time>
      </trkpt>
      <trkpt lat="43.89673" lon="4.05959">
        <ele>118.86</ele>
        <time>2017-04-02T14:00:35Z</time>
      </trkpt>
      <trkpt lat="43.89662" lon="4.05956">
        <ele>117.9</ele>
        <time>2017-04-02T14:00:44Z</time>
      </trkpt>
      <trkpt lat="43.89651" lon="4.05953">
        <ele>115.98</ele>
        <time>2017-04-02T14:00:53Z</time>
      </trkpt>
      <trkpt lat="43.89641" lon="4.0595">
        <ele>115.5</ele>
        <time>2017-04-02T14:01:02Z</time>
      </trkpt>
      <trkpt lat="43.89632" lon="4.05945">
        <ele>116.94</ele>
        <time>2017-04-02T14:01:12Z</time>
      </trkpt>
      <trkpt lat="43.89622" lon="4.05941">
        <ele>119.34</ele>
        <time>2017-04-02T14:01:23Z</time>
      </trkpt>
      <trkpt lat="43.89609" lon="4.05936">
        <ele>122.22</ele>
        <time>2017-04-02T14:01:37Z</time>
      </trkpt>
      <trkpt lat="43.89597" lon="4.0593">
        <ele>122.22</ele>
        <time>2017-04-02T14:01:51Z</time>
      </trkpt>
      <trkpt lat="43.89583" lon="4.05928">
        <ele>122.71</ele>
        <time>2017-04-02T14:02:06Z</time>
      </trkpt>
      <trkpt lat="43.89565" lon="4.05929">
        <ele>119.82</ele>
        <time>2017-04-02T14:02:35Z</time>
      </trkpt>
      <trkpt lat="43.89557" lon="4.0593">
        <ele>116.46</ele>
        <time>2017-04-02T14:03:54Z</time>
      </trkpt>
      <trkpt lat="43.89546" lon="4.05931">
        <ele>117.42</ele>
        <time>2017-04-02T14:04:08Z</time>
      </trkpt>
      <trkpt lat="43.89536" lon="4.05929">
        <ele>117.42</ele>
        <time>2017-04-02T14:04:20Z</time>
      </trkpt>
      <trkpt lat="43.89526" lon="4.05929">
        <ele>115.98</ele>
        <time>2017-04-02T14:04:31Z</time>
      </trkpt>
      <trkpt lat="43.89516" lon="4.05928">
        <ele>117.42</ele>
        <time>2017-04-02T14:04:43Z</time>
      </trkpt>
      <trkpt lat="43.89503" lon="4.05926">
        <ele>121.26</ele>
        <time>2017-04-02T14:04:57Z</time>
      </trkpt>
      <trkpt lat="43.89491" lon="4.05923">
        <ele>123.19</ele>
        <time>2017-04-02T14:05:11Z</time>
      </trkpt>
      <trkpt lat="43.89482" lon="4.05917">
        <ele>126.07</ele>
        <time>2017-04-02T14:05:24Z</time>
      </trkpt>
      <trkpt lat="43.89471" lon="4.05909">
        <ele>126.07</ele>
        <time>2017-04-02T14:05:37Z</time>
      </trkpt>
      <trkpt lat="43.89467" lon="4.05894">
        <ele>130.4</ele>
        <time>2017-04-02T14:05:54Z</time>
      </trkpt>
      <trkpt lat="43.8946" lon="4.05873">
        <ele>127.03</ele>
        <time>2017-04-02T14:06:05Z</time>
      </trkpt>
      <trkpt lat="43.8945" lon="4.05862">
        <ele>126.07</ele>
        <time>2017-04-02T14:06:16Z</time>
      </trkpt>
      <trkpt lat="43.89441" lon="4.05853">
        <ele>125.59</ele>
        <time>2017-04-02T14:06:26Z</time>
      </trkpt>
      <trkpt lat="43.89433" lon="4.05844">
        <ele>126.55</ele>
        <time>2017-04-02T14:06:36Z</time>
      </trkpt>
      <trkpt lat="43.89423" lon="4.05836">
        <ele>126.07</ele>
        <time>2017-04-02T14:06:46Z</time>
      </trkpt>
      <trkpt lat="43.89414" lon="4.0583">
        <ele>124.63</ele>
        <time>2017-04-02T14:06:55Z</time>
      </trkpt>
      <trkpt lat="43.89405" lon="4.05824">
        <ele>123.19</ele>
        <time>2017-04-02T14:07:04Z</time>
      </trkpt>
      <trkpt lat="43.89394" lon="4.05816">
        <ele>121.26</ele>
        <time>2017-04-02T14:07:14Z</time>
      </trkpt>
      <trkpt lat="43.89385" lon="4.05808">
        <ele>117.9</ele>
        <time>2017-04-02T14:07:24Z</time>
      </trkpt>
      <trkpt lat="43.89376" lon="4.05802">
        <ele>118.38</ele>
        <time>2017-04-02T14:07:35Z</time>
      </trkpt>
      <trkpt lat="43.89364" lon="4.05795">
        <ele>117.42</ele>
        <time>2017-04-02T14:07:46Z</time>
      </trkpt>
      <trkpt lat="43.89356" lon="4.05788">
        <ele>118.86</ele>
        <time>2017-04-02T14:07:56Z</time>
      </trkpt>
      <trkpt lat="43.89347" lon="4.0578">
        <ele>119.34</ele>
        <time>2017-04-02T14:08:07Z</time>
      </trkpt>
      <trkpt lat="43.89338" lon="4.05772">
        <ele>119.34</ele>
        <time>2017-04-02T14:08:17Z</time>
      </trkpt>
      <trkpt lat="43.89336" lon="4.05761">
        <ele>121.26</ele>
        <time>2017-04-02T14:08:28Z</time>
      </trkpt>
      <trkpt lat="43.89339" lon="4.05748">
        <ele>122.22</ele>
        <time>2017-04-02T14:08:38Z</time>
      </trkpt>
      <trkpt lat="43.89336" lon="4.05732">
        <ele>123.19</ele>
        <time>2017-04-02T14:08:50Z</time>
      </trkpt>
      <trkpt lat="43.89324" lon="4.05719">
        <ele>120.3</ele>
        <time>2017-04-02T14:12:10Z</time>
      </trkpt>
      <trkpt lat="43.89325" lon="4.05716">
        <ele>120.3</ele>
        <time>2017-04-02T14:12:32Z</time>
      </trkpt>
      <trkpt lat="43.89325" lon="4.05699">
        <ele>123.19</ele>
        <time>2017-04-02T14:12:49Z</time>
      </trkpt>
      <trkpt lat="43.89319" lon="4.05682">
        <ele>125.59</ele>
        <time>2017-04-02T14:13:04Z</time>
      </trkpt>
      <trkpt lat="43.89307" lon="4.0567">
        <ele>128.95</ele>
        <time>2017-04-02T14:13:21Z</time>
      </trkpt>
      <trkpt lat="43.89301" lon="4.05668">
        <ele>128.95</ele>
        <time>2017-04-02T14:14:16Z</time>
      </trkpt>
      <trkpt lat="43.89291" lon="4.05667">
        <ele>128.95</ele>
        <time>2017-04-02T14:14:30Z</time>
      </trkpt>
      <trkpt lat="43.89281" lon="4.05674">
        <ele>130.4</ele>
        <time>2017-04-02T14:14:40Z</time>
      </trkpt>
      <trkpt lat="43.89272" lon="4.05683">
        <ele>129.92</ele>
        <time>2017-04-02T14:14:50Z</time>
      </trkpt>
      <trkpt lat="43.89257" lon="4.05688">
        <ele>127.51</ele>
        <time>2017-04-02T14:15:07Z</time>
      </trkpt>
      <trkpt lat="43.89251" lon="4.05687">
        <ele>126.07</ele>
        <time>2017-04-02T14:15:43Z</time>
      </trkpt>
      <trkpt lat="43.89243" lon="4.05675">
        <ele>126.55</ele>
        <time>2017-04-02T14:15:58Z</time>
      </trkpt>
      <trkpt lat="43.89231" lon="4.05676">
        <ele>121.26</ele>
        <time>2017-04-02T14:16:10Z</time>
      </trkpt>
      <trkpt lat="43.89221" lon="4.05683">
        <ele>118.38</ele>
        <time>2017-04-02T14:16:19Z</time>
      </trkpt>
      <trkpt lat="43.89218" lon="4.05691">
        <ele>115.98</ele>
        <time>2017-04-02T14:16:33Z</time>
      </trkpt>
      <trkpt lat="43.89212" lon="4.05704">
        <ele>116.94</ele>
        <time>2017-04-02T14:16:46Z</time>
      </trkpt>
      <trkpt lat="43.89207" lon="4.05715">
        <ele>117.9</ele>
        <time>2017-04-02T14:17:00Z</time>
      </trkpt>
      <trkpt lat="43.89208" lon="4.05728">
        <ele>122.22</ele>
        <time>2017-04-02T14:17:21Z</time>
      </trkpt>
      <trkpt lat="43.8921" lon="4.05743">
        <ele>123.19</ele>
        <time>2017-04-02T14:17:40Z</time>
      </trkpt>
      <trkpt lat="43.89207" lon="4.05757">
        <ele>128.95</ele>
        <time>2017-04-02T14:17:58Z</time>
      </trkpt>
      <trkpt lat="43.89219" lon="4.05773">
        <ele>130.88</ele>
        <time>2017-04-02T14:18:14Z</time>
      </trkpt>
      <trkpt lat="43.89224" lon="4.05784">
        <ele>137.13</ele>
        <time>2017-04-02T14:18:32Z</time>
      </trkpt>
      <trkpt lat="43.8922" lon="4.05792">
        <ele>134.72</ele>
        <time>2017-04-02T14:18:48Z</time>
      </trkpt>
      <trkpt lat="43.89219" lon="4.05803">
        <ele>131.84</ele>
        <time>2017-04-02T14:19:09Z</time>
      </trkpt>
      <trkpt lat="43.89208" lon="4.05822">
        <ele>114.05</ele>
        <time>2017-04-02T14:20:03Z</time>
      </trkpt>
      <trkpt lat="43.89201" lon="4.0583">
        <ele>104.92</ele>
        <time>2017-04-02T14:20:31Z</time>
      </trkpt>
      <trkpt lat="43.89192" lon="4.05826">
        <ele>100.11</ele>
        <time>2017-04-02T14:20:59Z</time>
      </trkpt>
      <trkpt lat="43.89178" lon="4.0582">
        <ele>95.31</ele>
        <time>2017-04-02T14:21:19Z</time>
      </trkpt>
      <trkpt lat="43.8917" lon="4.05816">
        <ele>94.83</ele>
        <time>2017-04-02T14:21:39Z</time>
      </trkpt>
      <trkpt lat="43.89158" lon="4.05812">
        <ele>93.87</ele>
        <time>2017-04-02T14:21:56Z</time>
      </trkpt>
      <trkpt lat="43.8916" lon="4.05823">
        <ele>88.1</ele>
        <time>2017-04-02T14:22:51Z</time>
      </trkpt>
      <trkpt lat="43.89161" lon="4.05837">
        <ele>90.02</ele>
        <time>2017-04-02T14:23:06Z</time>
      </trkpt>
      <trkpt lat="43.89156" lon="4.05843">
        <ele>88.1</ele>
        <time>2017-04-02T14:23:20Z</time>
      </trkpt>
      <trkpt lat="43.89152" lon="4.05853">
        <ele>90.02</ele>
        <time>2017-04-02T14:23:36Z</time>
      </trkpt>
      <trkpt lat="43.89151" lon="4.05865">
        <ele>98.67</ele>
        <time>2017-04-02T14:23:55Z</time>
      </trkpt>
      <trkpt lat="43.89152" lon="4.05878">
        <ele>102.52</ele>
        <time>2017-04-02T14:24:09Z</time>
      </trkpt>
      <trkpt lat="43.89155" lon="4.05892">
        <ele>103.48</ele>
        <time>2017-04-02T14:24:19Z</time>
      </trkpt>
      <trkpt lat="43.89151" lon="4.05905">
        <ele>103.48</ele>
        <time>2017-04-02T14:24:30Z</time>
      </trkpt>
      <trkpt lat="43.89145" lon="4.05917">
        <ele>94.83</ele>
        <time>2017-04-02T14:25:03Z</time>
      </trkpt>
      <trkpt lat="43.89143" lon="4.05926">
        <ele>95.31</ele>
        <time>2017-04-02T14:25:25Z</time>
      </trkpt>
      <trkpt lat="43.89135" lon="4.0594">
        <ele>94.83</ele>
        <time>2017-04-02T14:25:42Z</time>
      </trkpt>
      <trkpt lat="43.89131" lon="4.05953">
        <ele>95.31</ele>
        <time>2017-04-02T14:25:58Z</time>
      </trkpt>
      <trkpt lat="43.89126" lon="4.05966">
        <ele>95.31</ele>
        <time>2017-04-02T14:26:14Z</time>
      </trkpt>
      <trkpt lat="43.89122" lon="4.05978">
        <ele>97.71</ele>
        <time>2017-04-02T14:26:36Z</time>
      </trkpt>
      <trkpt lat="43.89118" lon="4.05991">
        <ele>99.63</ele>
        <time>2017-04-02T14:26:53Z</time>
      </trkpt>
      <trkpt lat="43.89115" lon="4.06005">
        <ele>100.11</ele>
        <time>2017-04-02T14:27:05Z</time>
      </trkpt>
      <trkpt lat="43.89111" lon="4.06019">
        <ele>99.63</ele>
        <time>2017-04-02T14:27:16Z</time>
      </trkpt>
      <trkpt lat="43.89108" lon="4.06033">
        <ele>97.23</ele>
        <time>2017-04-02T14:27:27Z</time>
      </trkpt>
      <trkpt lat="43.89109" lon="4.06045">
        <ele>96.27</ele>
        <time>2017-04-02T14:27:41Z</time>
      </trkpt>
      <trkpt lat="43.89109" lon="4.0606">
        <ele>97.23</ele>
        <time>2017-04-02T14:27:54Z</time>
      </trkpt>
      <trkpt lat="43.8911" lon="4.06074">
        <ele>99.15</ele>
        <time>2017-04-02T14:28:05Z</time>
      </trkpt>
      <trkpt lat="43.8911" lon="4.06088">
        <ele>101.08</ele>
        <time>2017-04-02T14:28:18Z</time>
      </trkpt>
      <trkpt lat="43.89111" lon="4.06103">
        <ele>103.96</ele>
        <time>2017-04-02T14:28:31Z</time>
      </trkpt>
      <trkpt lat="43.89115" lon="4.06118">
        <ele>103.96</ele>
        <time>2017-04-02T14:28:44Z</time>
      </trkpt>
      <trkpt lat="43.89119" lon="4.06133">
        <ele>103</ele>
        <time>2017-04-02T14:28:57Z</time>
      </trkpt>
      <trkpt lat="43.89123" lon="4.06149">
        <ele>103.96</ele>
        <time>2017-04-02T14:29:11Z</time>
      </trkpt>
      <trkpt lat="43.89125" lon="4.06165">
        <ele>107.32</ele>
        <time>2017-04-02T14:29:24Z</time>
      </trkpt>
      <trkpt lat="43.89128" lon="4.0618">
        <ele>107.32</ele>
        <time>2017-04-02T14:29:34Z</time>
      </trkpt>
      <trkpt lat="43.89128" lon="4.06194">
        <ele>106.84</ele>
        <time>2017-04-02T14:29:44Z</time>
      </trkpt>
      <trkpt lat="43.89127" lon="4.06209">
        <ele>106.36</ele>
        <time>2017-04-02T14:29:54Z</time>
      </trkpt>
      <trkpt lat="43.89123" lon="4.06222">
        <ele>105.4</ele>
        <time>2017-04-02T14:30:05Z</time>
      </trkpt>
      <trkpt lat="43.89117" lon="4.06233">
        <ele>109.73</ele>
        <time>2017-04-02T14:30:17Z</time>
      </trkpt>
      <trkpt lat="43.89108" lon="4.06235">
        <ele>111.17</ele>
        <time>2017-04-02T14:30:27Z</time>
      </trkpt>
      <trkpt lat="43.89098" lon="4.06236">
        <ele>111.17</ele>
        <time>2017-04-02T14:30:36Z</time>
      </trkpt>
      <trkpt lat="43.8909" lon="4.06236">
        <ele>110.21</ele>
        <time>2017-04-02T14:30:45Z</time>
      </trkpt>
      <trkpt lat="43.8908" lon="4.06236">
        <ele>109.73</ele>
        <time>2017-04-02T14:30:55Z</time>
      </trkpt>
      <trkpt lat="43.8907" lon="4.06239">
        <ele>113.09</ele>
        <time>2017-04-02T14:31:05Z</time>
      </trkpt>
      <trkpt lat="43.89061" lon="4.06247">
        <ele>112.61</ele>
        <time>2017-04-02T14:31:17Z</time>
      </trkpt>
      <trkpt lat="43.8905" lon="4.06252">
        <ele>112.13</ele>
        <time>2017-04-02T14:31:29Z</time>
      </trkpt>
      <trkpt lat="43.89038" lon="4.06257">
        <ele>109.73</ele>
        <time>2017-04-02T14:31:41Z</time>
      </trkpt>
      <trkpt lat="43.89029" lon="4.06262">
        <ele>110.21</ele>
        <time>2017-04-02T14:31:53Z</time>
      </trkpt>
      <trkpt lat="43.8902" lon="4.06267">
        <ele>112.13</ele>
        <time>2017-04-02T14:32:07Z</time>
      </trkpt>
      <trkpt lat="43.89011" lon="4.06276">
        <ele>115.01</ele>
        <time>2017-04-02T14:32:20Z</time>
      </trkpt>
      <trkpt lat="43.89002" lon="4.06285">
        <ele>118.38</ele>
        <time>2017-04-02T14:32:32Z</time>
      </trkpt>
      <trkpt lat="43.88995" lon="4.06295">
        <ele>119.82</ele>
        <time>2017-04-02T14:32:43Z</time>
      </trkpt>
      <trkpt lat="43.88986" lon="4.06302">
        <ele>121.26</ele>
        <time>2017-04-02T14:32:53Z</time>
      </trkpt>
      <trkpt lat="43.88978" lon="4.0631">
        <ele>123.19</ele>
        <time>2017-04-02T14:33:04Z</time>
      </trkpt>
      <trkpt lat="43.88974" lon="4.0632">
        <ele>125.59</ele>
        <time>2017-04-02T14:33:17Z</time>
      </trkpt>
      <trkpt lat="43.88971" lon="4.06332">
        <ele>127.99</ele>
        <time>2017-04-02T14:33:30Z</time>
      </trkpt>
      <trkpt lat="43.88968" lon="4.06345">
        <ele>130.4</ele>
        <time>2017-04-02T14:33:44Z</time>
      </trkpt>
      <trkpt lat="43.88962" lon="4.06359">
        <ele>129.92</ele>
        <time>2017-04-02T14:33:56Z</time>
      </trkpt>
      <trkpt lat="43.88959" lon="4.06372">
        <ele>132.32</ele>
        <time>2017-04-02T14:34:08Z</time>
      </trkpt>
      <trkpt lat="43.88955" lon="4.06385">
        <ele>133.76</ele>
        <time>2017-04-02T14:34:21Z</time>
      </trkpt>
      <trkpt lat="43.88949" lon="4.06398">
        <ele>131.84</ele>
        <time>2017-04-02T14:34:32Z</time>
      </trkpt>
      <trkpt lat="43.88942" lon="4.06408">
        <ele>133.76</ele>
        <time>2017-04-02T14:34:43Z</time>
      </trkpt>
      <trkpt lat="43.88935" lon="4.06419">
        <ele>134.72</ele>
        <time>2017-04-02T14:34:55Z</time>
      </trkpt>
      <trkpt lat="43.88926" lon="4.0643">
        <ele>134.72</ele>
        <time>2017-04-02T14:35:07Z</time>
      </trkpt>
      <trkpt lat="43.88918" lon="4.06439">
        <ele>134.24</ele>
        <time>2017-04-02T14:35:19Z</time>
      </trkpt>
      <trkpt lat="43.8891" lon="4.06449">
        <ele>136.16</ele>
        <time>2017-04-02T14:35:33Z</time>
      </trkpt>
      <trkpt lat="43.88901" lon="4.0646">
        <ele>138.09</ele>
        <time>2017-04-02T14:35:46Z</time>
      </trkpt>
      <trkpt lat="43.88892" lon="4.06471">
        <ele>137.61</ele>
        <time>2017-04-02T14:35:59Z</time>
      </trkpt>
      <trkpt lat="43.88885" lon="4.06482">
        <ele>139.53</ele>
        <time>2017-04-02T14:36:12Z</time>
      </trkpt>
      <trkpt lat="43.88877" lon="4.06492">
        <ele>139.53</ele>
        <time>2017-04-02T14:36:25Z</time>
      </trkpt>
      <trkpt lat="43.88867" lon="4.065">
        <ele>138.57</ele>
        <time>2017-04-02T14:36:37Z</time>
      </trkpt>
      <trkpt lat="43.88858" lon="4.06508">
        <ele>139.53</ele>
        <time>2017-04-02T14:36:50Z</time>
      </trkpt>
      <trkpt lat="43.8885" lon="4.06517">
        <ele>141.45</ele>
        <time>2017-04-02T14:37:04Z</time>
      </trkpt>
      <trkpt lat="43.88842" lon="4.06528">
        <ele>148.66</ele>
        <time>2017-04-02T14:37:21Z</time>
      </trkpt>
      <trkpt lat="43.88835" lon="4.06538">
        <ele>150.1</ele>
        <time>2017-04-02T14:37:35Z</time>
      </trkpt>
      <trkpt lat="43.88826" lon="4.06551">
        <ele>150.58</ele>
        <time>2017-04-02T14:37:48Z</time>
      </trkpt>
      <trkpt lat="43.88821" lon="4.06562">
        <ele>151.54</ele>
        <time>2017-04-02T14:37:59Z</time>
      </trkpt>
      <trkpt lat="43.88819" lon="4.06575">
        <ele>153.95</ele>
        <time>2017-04-02T14:38:11Z</time>
      </trkpt>
      <trkpt lat="43.88814" lon="4.06589">
        <ele>154.91</ele>
        <time>2017-04-02T14:38:23Z</time>
      </trkpt>
      <trkpt lat="43.88807" lon="4.06603">
        <ele>157.31</ele>
        <time>2017-04-02T14:38:36Z</time>
      </trkpt>
      <trkpt lat="43.88801" lon="4.06615">
        <ele>156.83</ele>
        <time>2017-04-02T14:38:46Z</time>
      </trkpt>
      <trkpt lat="43.88791" lon="4.06629">
        <ele>152.03</ele>
        <time>2017-04-02T14:38:57Z</time>
      </trkpt>
      <trkpt lat="43.88775" lon="4.06646">
        <ele>140.01</ele>
        <time>2017-04-02T14:39:07Z</time>
      </trkpt>
      <trkpt lat="43.88772" lon="4.06662">
        <ele>136.16</ele>
        <time>2017-04-02T14:39:18Z</time>
      </trkpt>
      <trkpt lat="43.88774" lon="4.06679">
        <ele>134.72</ele>
        <time>2017-04-02T14:39:31Z</time>
      </trkpt>
      <trkpt lat="43.88774" lon="4.06695">
        <ele>134.24</ele>
        <time>2017-04-02T14:39:43Z</time>
      </trkpt>
      <trkpt lat="43.88776" lon="4.06713">
        <ele>127.99</ele>
        <time>2017-04-02T14:40:38Z</time>
      </trkpt>
      <trkpt lat="43.88776" lon="4.06712">
        <ele>126.07</ele>
        <time>2017-04-02T14:41:40Z</time>
      </trkpt>
      <trkpt lat="43.88776" lon="4.06719">
        <ele>125.59</ele>
        <time>2017-04-02T14:42:14Z</time>
      </trkpt>
      <trkpt lat="43.88775" lon="4.06731">
        <ele>125.11</ele>
        <time>2017-04-02T14:42:25Z</time>
      </trkpt>
      <trkpt lat="43.88774" lon="4.06746">
        <ele>127.03</ele>
        <time>2017-04-02T14:42:38Z</time>
      </trkpt>
      <trkpt lat="43.88772" lon="4.06762">
        <ele>129.92</ele>
        <time>2017-04-02T14:42:54Z</time>
      </trkpt>
      <trkpt lat="43.8877" lon="4.0678">
        <ele>136.16</ele>
        <time>2017-04-02T14:43:04Z</time>
      </trkpt>
      <trkpt lat="43.88767" lon="4.06796">
        <ele>137.61</ele>
        <time>2017-04-02T14:43:14Z</time>
      </trkpt>
      <trkpt lat="43.88766" lon="4.06811">
        <ele>138.09</ele>
        <time>2017-04-02T14:43:26Z</time>
      </trkpt>
      <trkpt lat="43.8877" lon="4.06827">
        <ele>133.76</ele>
        <time>2017-04-02T14:43:35Z</time>
      </trkpt>
      <trkpt lat="43.88772" lon="4.06844">
        <ele>130.88</ele>
        <time>2017-04-02T14:43:46Z</time>
      </trkpt>
      <trkpt lat="43.88775" lon="4.06861">
        <ele>131.84</ele>
        <time>2017-04-02T14:43:56Z</time>
      </trkpt>
      <trkpt lat="43.88776" lon="4.06876">
        <ele>133.28</ele>
        <time>2017-04-02T14:44:05Z</time>
      </trkpt>
      <trkpt lat="43.88775" lon="4.06892">
        <ele>136.16</ele>
        <time>2017-04-02T14:44:18Z</time>
      </trkpt>
      <trkpt lat="43.88774" lon="4.06907">
        <ele>134.72</ele>
        <time>2017-04-02T14:44:35Z</time>
      </trkpt>
      <trkpt lat="43.88773" lon="4.06915">
        <ele>130.88</ele>
        <time>2017-04-02T14:45:20Z</time>
      </trkpt>
      <trkpt lat="43.8877" lon="4.06929">
        <ele>133.76</ele>
        <time>2017-04-02T14:45:32Z</time>
      </trkpt>
      <trkpt lat="43.88766" lon="4.06944">
        <ele>136.64</ele>
        <time>2017-04-02T14:45:45Z</time>
      </trkpt>
      <trkpt lat="43.88766" lon="4.06962">
        <ele>136.16</ele>
        <time>2017-04-02T14:45:59Z</time>
      </trkpt>
      <trkpt lat="43.88763" lon="4.06976">
        <ele>133.28</ele>
        <time>2017-04-02T14:46:11Z</time>
      </trkpt>
      <trkpt lat="43.88759" lon="4.06991">
        <ele>132.8</ele>
        <time>2017-04-02T14:46:24Z</time>
      </trkpt>
      <trkpt lat="43.88756" lon="4.07006">
        <ele>132.32</ele>
        <time>2017-04-02T14:46:36Z</time>
      </trkpt>
      <trkpt lat="43.88751" lon="4.07023">
        <ele>130.4</ele>
        <time>2017-04-02T14:46:50Z</time>
      </trkpt>
      <trkpt lat="43.88748" lon="4.07031">
        <ele>130.88</ele>
        <time>2017-04-02T14:48:05Z</time>
      </trkpt>
      <trkpt lat="43.88747" lon="4.07046">
        <ele>131.36</ele>
        <time>2017-04-02T14:48:16Z</time>
      </trkpt>
      <trkpt lat="43.88743" lon="4.07059">
        <ele>132.8</ele>
        <time>2017-04-02T14:48:27Z</time>
      </trkpt>
      <trkpt lat="43.88744" lon="4.07073">
        <ele>137.61</ele>
        <time>2017-04-02T14:48:37Z</time>
      </trkpt>
      <trkpt lat="43.88748" lon="4.07087">
        <ele>140.97</ele>
        <time>2017-04-02T14:48:47Z</time>
      </trkpt>
      <trkpt lat="43.88751" lon="4.07098">
        <ele>145.3</ele>
        <time>2017-04-02T14:48:55Z</time>
      </trkpt>
      <trkpt lat="43.88749" lon="4.07112">
        <ele>154.43</ele>
        <time>2017-04-02T14:49:08Z</time>
      </trkpt>
      <trkpt lat="43.88742" lon="4.07126">
        <ele>156.83</ele>
        <time>2017-04-02T14:49:20Z</time>
      </trkpt>
      <trkpt lat="43.88733" lon="4.07144">
        <ele>151.54</ele>
        <time>2017-04-02T14:49:29Z</time>
      </trkpt>
      <trkpt lat="43.88718" lon="4.07163">
        <ele>139.05</ele>
        <time>2017-04-02T14:49:43Z</time>
      </trkpt>
      <trkpt lat="43.88706" lon="4.07167">
        <ele>136.64</ele>
        <time>2017-04-02T14:49:55Z</time>
      </trkpt>
      <trkpt lat="43.88699" lon="4.07172">
        <ele>129.92</ele>
        <time>2017-04-02T14:50:22Z</time>
      </trkpt>
      <trkpt lat="43.88687" lon="4.07177">
        <ele>123.19</ele>
        <time>2017-04-02T14:50:41Z</time>
      </trkpt>
      <trkpt lat="43.88657" lon="4.0719">
        <ele>108.77</ele>
        <time>2017-04-02T14:51:10Z</time>
      </trkpt>
      <trkpt lat="43.88654" lon="4.07191">
        <ele>107.81</ele>
        <time>2017-04-02T14:51:31Z</time>
      </trkpt>
      <trkpt lat="43.88639" lon="4.072">
        <ele>104.92</ele>
        <time>2017-04-02T14:51:50Z</time>
      </trkpt>
      <trkpt lat="43.88615" lon="4.07214">
        <ele>100.11</ele>
        <time>2017-04-02T14:52:43Z</time>
      </trkpt>
      <trkpt lat="43.88612" lon="4.07216">
        <ele>99.15</ele>
        <time>2017-04-02T14:52:59Z</time>
      </trkpt>
      <trkpt lat="43.88609" lon="4.07218">
        <ele>100.11</ele>
        <time>2017-04-02T14:53:14Z</time>
      </trkpt>
      <trkpt lat="43.8859" lon="4.07224">
        <ele>98.67</ele>
        <time>2017-04-02T14:54:03Z</time>
      </trkpt>
      <trkpt lat="43.88585" lon="4.07226">
        <ele>97.23</ele>
        <time>2017-04-02T14:54:31Z</time>
      </trkpt>
      <trkpt lat="43.88574" lon="4.07227">
        <ele>94.83</ele>
        <time>2017-04-02T14:54:47Z</time>
      </trkpt>
      <trkpt lat="43.88549" lon="4.07233">
        <ele>90.98</ele>
        <time>2017-04-02T14:55:05Z</time>
      </trkpt>
      <trkpt lat="43.88528" lon="4.07231">
        <ele>85.69</ele>
        <time>2017-04-02T14:55:24Z</time>
      </trkpt>
      <trkpt lat="43.88517" lon="4.07229">
        <ele>85.21</ele>
        <time>2017-04-02T14:55:38Z</time>
      </trkpt>
      <trkpt lat="43.88507" lon="4.07225">
        <ele>84.73</ele>
        <time>2017-04-02T14:55:51Z</time>
      </trkpt>
      <trkpt lat="43.88496" lon="4.07223">
        <ele>83.29</ele>
        <time>2017-04-02T14:56:04Z</time>
      </trkpt>
      <trkpt lat="43.88487" lon="4.0722">
        <ele>81.37</ele>
        <time>2017-04-02T14:56:18Z</time>
      </trkpt>
      <trkpt lat="43.88476" lon="4.07218">
        <ele>79.45</ele>
        <time>2017-04-02T14:56:34Z</time>
      </trkpt>
      <trkpt lat="43.88466" lon="4.07214">
        <ele>77.52</ele>
        <time>2017-04-02T14:56:44Z</time>
      </trkpt>
      <trkpt lat="43.88455" lon="4.07211">
        <ele>77.52</ele>
        <time>2017-04-02T14:56:56Z</time>
      </trkpt>
      <trkpt lat="43.88442" lon="4.07215">
        <ele>77.52</ele>
        <time>2017-04-02T14:57:11Z</time>
      </trkpt>
      <trkpt lat="43.8843" lon="4.07217">
        <ele>77.04</ele>
        <time>2017-04-02T14:57:23Z</time>
      </trkpt>
      <trkpt lat="43.88422" lon="4.07209">
        <ele>77.04</ele>
        <time>2017-04-02T14:57:34Z</time>
      </trkpt>
      <trkpt lat="43.88414" lon="4.07202">
        <ele>78</ele>
        <time>2017-04-02T14:57:46Z</time>
      </trkpt>
      <trkpt lat="43.88405" lon="4.07193">
        <ele>79.93</ele>
        <time>2017-04-02T14:57:58Z</time>
      </trkpt>
      <trkpt lat="43.88397" lon="4.07183">
        <ele>78.97</ele>
        <time>2017-04-02T14:58:12Z</time>
      </trkpt>
      <trkpt lat="43.8839" lon="4.07172">
        <ele>79.45</ele>
        <time>2017-04-02T14:58:24Z</time>
      </trkpt>
      <trkpt lat="43.88388" lon="4.0716">
        <ele>78.48</ele>
        <time>2017-04-02T14:58:38Z</time>
      </trkpt>
      <trkpt lat="43.88391" lon="4.07149">
        <ele>80.41</ele>
        <time>2017-04-02T14:58:54Z</time>
      </trkpt>
      <trkpt lat="43.88392" lon="4.0714">
        <ele>81.85</ele>
        <time>2017-04-02T14:59:34Z</time>
      </trkpt>
      <trkpt lat="43.88388" lon="4.07144">
        <ele>87.62</ele>
        <time>2017-04-02T14:59:57Z</time>
      </trkpt>
      <trkpt lat="43.88381" lon="4.07143">
        <ele>86.18</ele>
        <time>2017-04-02T15:00:09Z</time>
      </trkpt>
      <trkpt lat="43.88373" lon="4.07138">
        <ele>87.62</ele>
        <time>2017-04-02T15:00:22Z</time>
      </trkpt>
      <trkpt lat="43.88366" lon="4.07124">
        <ele>81.37</ele>
        <time>2017-04-02T15:00:46Z</time>
      </trkpt>
      <trkpt lat="43.88367" lon="4.07118">
        <ele>80.89</ele>
        <time>2017-04-02T15:02:14Z</time>
      </trkpt>
      <trkpt lat="43.88369" lon="4.07115">
        <ele>79.93</ele>
        <time>2017-04-02T15:03:41Z</time>
      </trkpt>
      <trkpt lat="43.88373" lon="4.07116">
        <ele>78.97</ele>
        <time>2017-04-02T15:04:59Z</time>
      </trkpt>
      <trkpt lat="43.88367" lon="4.07117">
        <ele>80.89</ele>
        <time>2017-04-02T15:05:50Z</time>
      </trkpt>
      <trkpt lat="43.88361" lon="4.07116">
        <ele>83.29</ele>
        <time>2017-04-02T15:10:08Z</time>
      </trkpt>
      <trkpt lat="43.88369" lon="4.07117">
        <ele>77.52</ele>
        <time>2017-04-02T15:12:35Z</time>
      </trkpt>
      <trkpt lat="43.88369" lon="4.07123">
        <ele>77.52</ele>
        <time>2017-04-02T15:13:10Z</time>
      </trkpt>
      <trkpt lat="43.88371" lon="4.07117">
        <ele>78</ele>
        <time>2017-04-02T15:13:27Z</time>
      </trkpt>
      <trkpt lat="43.88365" lon="4.07112">
        <ele>75.6</ele>
        <time>2017-04-02T15:14:02Z</time>
      </trkpt>
      <trkpt lat="43.88361" lon="4.07099">
        <ele>81.85</ele>
        <time>2017-04-02T15:14:15Z</time>
      </trkpt>
      <trkpt lat="43.88359" lon="4.07084">
        <ele>81.85</ele>
        <time>2017-04-02T15:14:25Z</time>
      </trkpt>
      <trkpt lat="43.88363" lon="4.07072">
        <ele>83.29</ele>
        <time>2017-04-02T15:14:42Z</time>
      </trkpt>
    </trkseg>
  </trk>
</gpx>